[[{"header":{"parameterUnit":"m.s-1","parameterCategory":1,"la1":30.6,"la2":29.2853,"lo1":-89.7004,"lo2":-87.6739,"dy":0.0162,"dx":0.0183,"nx":112,"ny":82,"refTime":"2023-05-27T06:00:00:Z","depth":0,"parameterNumber":2,"parameterNumberName":"U-component_of_WINDS"},"data":[0.0,0.0,0.0,0.0,0.0,0.0,0.0,0.0,0.0,0.0,0.0,0.0,0.0,0.0,0.0,0.0,0.0,0.0,0.0,0.0,0.0,0.0,0.0,0.0,0.0,0.0,0.0,0.0,0.0,0.0,0.0,0.0,0.0,0.0,0.0,0.0,0.0,0.0,0.0,0.0,0.0,0.0,0.0,0.0,0.0,0.0,0.0,0.0,0.0,0.0,0.0,0.0,0.0,0.0,0.0,0.0,0.0,0.0,0.0,0.0,0.0,0.0,0.0,0.0,0.0,0.0,0.0,0.0,0.0,0.0,0.0,0.0,0.0,0.0,0.0,0.0,0.0,0.0,0.0,0.0,0.0,0.0,0.0,0.0,0.0,0.0,0.0,0.0,0.0,0.0,-1.9753,-2.2566,-2.567,-2.6976,-2.5529,-2.5498,-2.3784,-1.9549,0.0,0.0,0.0,0.0,0.0,0.0,0.0,0.0,0.0,0.0,0.0,0.0,0.0,0.0,0.0,0.0,0.0,0.0,0.0,0.0,0.0,0.0,0.0,0.0,0.0,0.0,0.0,0.0,0.0,0.0,0.0,0.0,0.0,0.0,0.0,0.0,0.0,0.0,0.0,0.0,0.0,0.0,0.0,0.0,0.0,0.0,0.0,0.0,0.0,0.0,0.0,0.0,0.0,0.0,0.0,0.0,0.0,0.0,0.0,0.0,0.0,0.0,0.0,0.0,0.0,0.0,0.0,0.0,0.0,0.0,0.0,0.0,0.0,0.0,0.0,0.0,0.0,0.0,0.0,0.0,0.0,0.0,0.0,0.0,0.0,0.0,0.0,0.0,0.0,0.0,0.0,0.0,0.0,0.0,0.0,0.0,0.0,0.0,0.0,0.0,0.0,0.0,0.0,0.0,-2.1543,-2.5519,-2.6759,-2.7087,-2.6428,-2.4988,-2.2967,-2.0279,0.0,0.0,0.0,0.0,0.0,0.0,0.0,0.0,0.0,0.0,0.0,0.0,0.0,0.0,0.0,0.0,0.0,0.0,0.0,0.0,0.0,0.0,0.0,0.0,0.0,0.0,0.0,0.0,0.0,0.0,0.0,0.0,0.0,0.0,0.0,0.0,0.0,0.0,0.0,0.0,0.0,0.0,0.0,0.0,0.0,0.0,0.0,0.0,0.0,0.0,0.0,0.0,0.0,0.0,0.0,0.0,0.0,0.0,0.0,0.0,0.0,0.0,0.0,0.0,0.0,0.0,0.0,0.0,0.0,0.0,0.0,0.0,0.0,0.0,0.0,0.0,0.0,0.0,0.0,0.0,0.0,0.0,0.0,0.0,0.0,0.0,0.0,0.0,0.0,0.0,0.0,0.0,0.0,0.0,0.0,0.0,0.0,0.0,0.0,0.0,0.0,0.0,0.0,-2.0708,-2.2842,-2.5892,-2.7251,-2.7337,-2.5955,-2.5062,-2.3243,-2.0137,-1.9957,0.0,0.0,0.0,0.0,0.0,0.0,0.0,0.0,0.0,0.0,0.0,0.0,0.0,0.0,0.0,0.0,0.0,0.0,0.0,0.0,0.0,0.0,0.0,0.0,0.0,0.0,0.0,0.0,0.0,0.0,0.0,0.0,0.0,0.0,0.0,0.0,0.0,0.0,0.0,0.0,0.0,0.0,0.0,0.0,0.0,0.0,0.0,0.0,0.0,0.0,0.0,0.0,0.0,0.0,0.0,0.0,0.0,0.0,0.0,0.0,0.0,0.0,0.0,0.0,0.0,0.0,0.0,0.0,0.0,0.0,0.0,0.0,0.0,0.0,0.0,0.0,0.0,0.0,0.0,0.0,0.0,0.0,0.0,0.0,0.0,0.0,0.0,0.0,0.0,0.0,0.0,0.0,0.0,0.0,0.0,0.0,0.0,0.0,0.0,0.0,0.0,0.0,-2.2433,-2.409,-2.6022,-2.7358,-2.737,-2.5508,-2.4962,-2.3242,-1.9917,-1.95,0.0,0.0,0.0,0.0,0.0,0.0,0.0,0.0,0.0,0.0,0.0,0.0,0.0,0.0,0.0,0.0,0.0,0.0,0.0,0.0,0.0,0.0,0.0,0.0,0.0,0.0,0.0,0.0,0.0,0.0,0.0,0.0,0.0,0.0,0.0,0.0,0.0,0.0,0.0,0.0,0.0,0.0,0.0,0.0,0.0,0.0,0.0,0.0,0.0,0.0,0.0,0.0,0.0,0.0,0.0,0.0,0.0,0.0,0.0,0.0,0.0,0.0,0.0,0.0,0.0,0.0,0.0,0.0,0.0,0.0,0.0,0.0,0.0,0.0,0.0,0.0,0.0,0.0,0.0,0.0,0.0,0.0,0.0,0.0,0.0,0.0,0.0,0.0,0.0,0.0,0.0,0.0,0.0,0.0,0.0,0.0,0.0,0.0,0.0,0.0,0.0,0.0,-2.3602,-2.56,-2.7064,-2.7304,-2.6955,-2.5941,-2.4196,-2.2252,-2.0205,-1.9257,0.0,0.0,0.0,0.0,0.0,0.0,0.0,0.0,0.0,0.0,0.0,0.0,0.0,0.0,0.0,0.0,0.0,0.0,0.0,0.0,0.0,0.0,0.0,0.0,0.0,0.0,0.0,0.0,0.0,0.0,0.0,0.0,0.0,0.0,0.0,0.0,0.0,0.0,0.0,0.0,0.0,0.0,0.0,0.0,0.0,0.0,0.0,0.0,0.0,0.0,0.0,0.0,0.0,0.0,0.0,0.0,0.0,0.0,0.0,0.0,0.0,0.0,0.0,0.0,0.0,0.0,0.0,0.0,0.0,0.0,0.0,0.0,0.0,0.0,0.0,0.0,0.0,0.0,0.0,0.0,0.0,0.0,0.0,0.0,0.0,0.0,0.0,0.0,0.0,0.0,0.0,0.0,0.0,0.0,0.0,0.0,0.0,0.0,0.0,0.0,0.0,0.0,-2.2968,-2.4825,0.0,-2.6966,-2.6802,-2.5557,-2.4519,-2.2848,-2.0271,0.0,0.0,0.0,0.0,0.0,0.0,0.0,0.0,0.0,0.0,0.0,0.0,0.0,0.0,0.0,0.0,0.0,0.0,0.0,0.0,0.0,0.0,0.0,0.0,0.0,0.0,0.0,0.0,0.0,0.0,0.0,0.0,0.0,0.0,0.0,0.0,0.0,0.0,0.0,0.0,0.0,0.0,0.0,0.0,0.0,0.0,0.0,0.0,0.0,0.0,0.0,0.0,0.0,0.0,0.0,0.0,0.0,0.0,0.0,0.0,0.0,0.0,0.0,0.0,0.0,0.0,0.0,0.0,0.0,0.0,0.0,0.0,0.0,0.0,0.0,0.0,0.0,0.0,0.0,0.0,0.0,0.0,0.0,0.0,0.0,0.0,0.0,0.0,0.0,0.0,0.0,0.0,0.0,0.0,0.0,0.0,0.0,0.0,0.0,0.0,0.0,0.0,-2.073,-2.2684,-2.4465,0.0,-2.6474,-2.6409,-2.5303,-2.4088,-2.2433,-2.0249,0.0,0.0,0.0,0.0,0.0,0.0,0.0,0.0,0.0,0.0,0.0,0.0,0.0,0.0,0.0,0.0,0.0,0.0,0.0,0.0,0.0,0.0,0.0,0.0,0.0,0.0,0.0,0.0,0.0,0.0,0.0,0.0,0.0,0.0,0.0,0.0,0.0,0.0,0.0,0.0,0.0,0.0,0.0,0.0,0.0,0.0,0.0,0.0,0.0,0.0,0.0,0.0,0.0,0.0,0.0,0.0,0.0,0.0,0.0,0.0,0.0,0.0,0.0,0.0,0.0,0.0,0.0,0.0,0.0,0.0,0.0,0.0,0.0,0.0,0.0,0.0,0.0,0.0,0.0,0.0,0.0,0.0,0.0,0.0,0.0,0.0,0.0,0.0,0.0,0.0,0.0,0.0,0.0,0.0,0.0,0.0,0.0,0.0,0.0,0.0,0.0,0.0,-2.0763,-2.3005,-2.4836,-2.5786,-2.5884,-2.5688,-2.5248,-2.2557,-2.0697,0.0,0.0,0.0,0.0,0.0,0.0,0.0,0.0,0.0,0.0,0.0,0.0,0.0,0.0,0.0,0.0,0.0,0.0,0.0,0.0,0.0,0.0,0.0,0.0,0.0,0.0,0.0,0.0,0.0,0.0,0.0,0.0,0.0,0.0,0.0,0.0,0.0,0.0,0.0,0.0,0.0,0.0,0.0,0.0,0.0,0.0,0.0,0.0,0.0,0.0,0.0,0.0,0.0,0.0,0.0,0.0,0.0,0.0,0.0,0.0,0.0,0.0,0.0,0.0,0.0,0.0,0.0,0.0,0.0,0.0,0.0,0.0,0.0,0.0,0.0,0.0,0.0,0.0,0.0,0.0,0.0,0.0,0.0,0.0,0.0,0.0,0.0,0.0,0.0,0.0,0.0,0.0,0.0,0.0,0.0,0.0,0.0,0.0,0.0,0.0,0.0,0.0,0.0,-2.0271,-2.216,-2.382,-2.4803,-2.4902,-2.4847,-2.4705,-2.2688,-2.1024,-2.0129,0.0,0.0,0.0,0.0,0.0,0.0,0.0,0.0,0.0,0.0,0.0,0.0,0.0,0.0,0.0,0.0,0.0,0.0,0.0,0.0,0.0,0.0,0.0,0.0,0.0,0.0,0.0,0.0,0.0,0.0,0.0,0.0,0.0,0.0,0.0,0.0,0.0,0.0,0.0,0.0,0.0,0.0,0.0,0.0,0.0,0.0,0.0,0.0,0.0,0.0,0.0,0.0,0.0,0.0,0.0,0.0,0.0,0.0,0.0,0.0,0.0,0.0,0.0,0.0,0.0,0.0,0.0,0.0,0.0,0.0,0.0,0.0,0.0,0.0,0.0,0.0,0.0,0.0,0.0,0.0,0.0,0.0,0.0,0.0,0.0,0.0,0.0,0.0,0.0,0.0,0.0,0.0,0.0,0.0,0.0,0.0,0.0,0.0,0.0,0.0,0.0,0.0,-2.0031,-2.1623,-2.311,-2.4082,-2.4181,-2.4181,-2.4181,-2.2411,-2.097,-2.0162,0.0,0.0,0.0,0.0,0.0,0.0,0.0,0.0,0.0,0.0,0.0,0.0,0.0,0.0,0.0,0.0,0.0,0.0,0.0,0.0,0.0,0.0,0.0,0.0,0.0,0.0,0.0,0.0,0.0,0.0,0.0,0.0,0.0,0.0,0.0,0.0,0.0,0.0,0.0,0.0,0.0,0.0,0.0,0.0,0.0,0.0,0.0,0.0,0.0,0.0,0.0,0.0,0.0,0.0,0.0,0.0,0.0,0.0,0.0,0.0,0.0,0.0,0.0,0.0,0.0,0.0,0.0,0.0,0.0,0.0,0.0,0.0,0.0,0.0,0.0,0.0,0.0,0.0,0.0,0.0,0.0,0.0,0.0,0.0,0.0,0.0,0.0,0.0,0.0,0.0,0.0,0.0,0.0,0.0,0.0,0.0,0.0,0.0,0.0,0.0,0.0,0.0,-1.9998,-2.1339,-2.263,-2.3585,-2.3651,-2.364,-2.3684,-2.1964,-2.0686,-2.0172,0.0,0.0,0.0,0.0,0.0,0.0,0.0,0.0,0.0,0.0,0.0,0.0,0.0,0.0,0.0,0.0,0.0,0.0,0.0,0.0,0.0,0.0,0.0,0.0,0.0,0.0,0.0,0.0,0.0,0.0,0.0,0.0,0.0,0.0,0.0,0.0,0.0,0.0,0.0,0.0,0.0,0.0,0.0,0.0,0.0,0.0,0.0,0.0,0.0,0.0,0.0,0.0,0.0,0.0,0.0,0.0,0.0,0.0,0.0,0.0,-2.8821,0.0,0.0,0.0,0.0,0.0,0.0,0.0,0.0,0.0,0.0,0.0,0.0,0.0,0.0,0.0,0.0,0.0,0.0,0.0,0.0,0.0,0.0,0.0,0.0,0.0,0.0,0.0,0.0,0.0,0.0,0.0,0.0,0.0,0.0,0.0,0.0,0.0,0.0,0.0,0.0,0.0,-2.0042,-2.109,-2.2258,-2.3553,-2.3383,-2.3307,-2.3662,-2.1964,-2.0775,-2.0508,-1.9126,0.0,0.0,0.0,0.0,0.0,0.0,0.0,0.0,0.0,0.0,0.0,0.0,0.0,0.0,0.0,0.0,0.0,0.0,0.0,0.0,0.0,0.0,0.0,0.0,0.0,0.0,0.0,0.0,0.0,0.0,0.0,0.0,0.0,0.0,0.0,0.0,0.0,0.0,0.0,0.0,0.0,0.0,0.0,0.0,0.0,0.0,0.0,0.0,0.0,0.0,0.0,0.0,0.0,0.0,0.0,0.0,0.0,0.0,0.0,0.0,-2.9947,0.0,0.0,0.0,0.0,0.0,0.0,0.0,0.0,0.0,0.0,0.0,0.0,0.0,0.0,0.0,0.0,0.0,0.0,0.0,0.0,0.0,0.0,0.0,0.0,0.0,0.0,0.0,0.0,0.0,0.0,0.0,0.0,0.0,0.0,0.0,0.0,0.0,0.0,0.0,0.0,-2.086,-2.1497,-2.2395,-2.3776,-2.3564,-2.3483,-2.3888,-2.2831,-2.188,-2.1256,-2.0052,0.0,0.0,0.0,0.0,0.0,0.0,0.0,0.0,0.0,0.0,0.0,0.0,0.0,0.0,0.0,0.0,0.0,0.0,0.0,0.0,0.0,0.0,0.0,0.0,0.0,0.0,0.0,0.0,0.0,0.0,0.0,0.0,0.0,0.0,0.0,0.0,0.0,0.0,0.0,0.0,0.0,0.0,0.0,0.0,0.0,0.0,0.0,0.0,0.0,0.0,0.0,0.0,0.0,-3.5897,-3.6423,-3.7466,-3.6854,-3.6572,-3.6423,-3.3849,-3.2459,-3.1929,-3.1184,0.0,0.0,0.0,0.0,0.0,0.0,0.0,0.0,0.0,0.0,0.0,0.0,0.0,0.0,0.0,0.0,0.0,0.0,0.0,0.0,0.0,0.0,0.0,0.0,-2.4709,-2.4925,0.0,0.0,0.0,0.0,0.0,0.0,0.0,0.0,0.0,0.0,0.0,0.0,-2.1799,-2.2151,-2.2806,-2.4061,-2.3897,-2.3824,-2.408,-2.3729,-2.3098,-2.2065,-2.1023,-1.9507,0.0,0.0,0.0,0.0,0.0,0.0,0.0,0.0,0.0,0.0,0.0,0.0,0.0,0.0,0.0,0.0,0.0,0.0,0.0,0.0,0.0,0.0,0.0,0.0,0.0,0.0,0.0,0.0,0.0,0.0,0.0,0.0,-3.0997,-3.1269,0.0,0.0,0.0,0.0,0.0,0.0,0.0,0.0,0.0,0.0,0.0,0.0,0.0,-3.6742,-3.6899,-3.802,-3.8431,-3.8178,-3.9208,-3.9448,-3.9017,-3.8917,-3.8868,-3.8818,-3.7781,0.0,-3.3442,-3.2696,0.0,0.0,0.0,0.0,0.0,0.0,0.0,0.0,0.0,0.0,0.0,0.0,0.0,0.0,0.0,0.0,0.0,0.0,0.0,0.0,0.0,0.0,-2.5875,-2.573,-2.5495,-2.5097,0.0,-2.3599,-2.2987,-2.2927,-2.2539,0.0,0.0,0.0,0.0,0.0,0.0,0.0,-2.1891,-2.2731,-2.3546,-2.4143,-2.4152,-2.4007,-2.3703,-2.3575,-2.3213,-2.2548,-2.1279,-1.9928,-1.8449,-1.7422,0.0,0.0,0.0,0.0,0.0,0.0,0.0,0.0,0.0,0.0,0.0,0.0,0.0,0.0,0.0,0.0,0.0,0.0,0.0,0.0,0.0,0.0,0.0,0.0,0.0,0.0,0.0,0.0,0.0,-3.2085,-3.2371,-3.2474,-3.2799,-3.285,0.0,0.0,0.0,0.0,0.0,0.0,0.0,0.0,0.0,-3.7705,-3.9458,-4.018,-3.9746,-4.0715,-4.1264,-4.1405,-4.1946,-4.2452,-4.2932,-4.2531,-4.2104,-4.169,-4.0945,-3.9206,-3.6779,-3.5197,-3.3872,-3.2762,0.0,0.0,0.0,0.0,-2.9927,-2.95,-2.8861,-2.8496,0.0,-2.8604,0.0,0.0,0.0,0.0,0.0,0.0,0.0,0.0,0.0,0.0,-2.8093,-2.7641,-2.7317,-2.6918,-2.609,-2.5061,-2.4121,0.0,-2.3264,-2.2947,-2.2508,0.0,0.0,0.0,0.0,-2.263,-2.2926,-2.3452,-2.4038,-2.4731,-2.4658,-2.4562,-2.4563,-2.4543,-2.426,-2.3684,-2.2585,-2.1195,-1.9442,-1.8387,-1.7091,0.0,0.0,0.0,0.0,0.0,0.0,0.0,0.0,0.0,0.0,0.0,0.0,0.0,0.0,0.0,0.0,0.0,0.0,0.0,0.0,0.0,0.0,0.0,0.0,0.0,0.0,0.0,0.0,-3.3556,-3.4081,-3.3465,-3.4842,-3.5276,0.0,0.0,0.0,0.0,0.0,0.0,-3.869,-3.9911,-4.0899,-4.1655,-4.3095,-4.3468,-4.2663,-4.353,-4.4114,-4.4426,-4.4426,-4.5135,-4.6328,-4.5582,-4.4854,-4.4111,-4.3367,-4.1939,-3.9945,-3.7549,-3.5694,-3.4286,-3.3541,-3.2928,-3.2403,-3.2056,-3.1596,-3.1035,-3.0532,-3.0138,-2.9852,-2.9663,0.0,-2.8391,-2.8232,0.0,0.0,0.0,0.0,-2.9323,-2.8822,-2.9341,-2.9786,-2.901,-2.872,-2.832,-2.7208,-2.631,-2.5372,0.0,-2.389,-2.3673,-2.3276,0.0,0.0,0.0,0.0,-2.352,-2.395,-2.4171,-2.4565,-2.5228,-2.5087,-2.4992,-2.5147,-2.5241,-2.5048,-2.4417,-2.3466,-2.2127,-2.0399,-1.9116,-1.7725,-1.6155,0.0,0.0,0.0,0.0,0.0,0.0,0.0,0.0,0.0,0.0,0.0,0.0,0.0,0.0,0.0,0.0,0.0,0.0,0.0,0.0,0.0,0.0,0.0,0.0,0.0,0.0,0.0,0.0,0.0,-3.3665,-3.6798,0.0,0.0,0.0,0.0,-3.8028,-3.9175,-4.0232,-4.1075,-4.2394,-4.3411,-4.4009,-4.5758,-4.6411,-4.5787,-4.6807,-4.7144,-4.6725,-4.6725,-4.7139,-4.7868,-4.7123,-4.6394,-4.5649,-4.4903,-4.3727,-4.2109,-3.9245,-3.7235,-3.5827,-3.5081,-3.4767,-3.4638,-3.3747,-3.3383,-3.3308,-3.2998,-3.2175,-3.1306,-3.1931,-3.1367,-3.0351,-2.9711,-2.9958,0.0,0.0,-2.9765,-3.0056,-2.9993,-3.001,-2.9849,-2.9328,-2.8863,-2.829,-2.7149,-2.6875,-2.6345,0.0,-2.4097,-2.3794,-2.377,0.0,-2.3722,-2.3722,-2.4121,-2.4412,-2.4448,-2.4916,-2.524,-2.5312,-2.5276,-2.5147,-2.4861,-2.5111,-2.4943,-2.4083,-2.3211,-2.2256,-2.1288,-1.9065,-1.7583,-1.7054,-1.6437,0.0,0.0,0.0,0.0,0.0,0.0,0.0,0.0,0.0,0.0,0.0,0.0,0.0,0.0,0.0,0.0,0.0,0.0,0.0,0.0,0.0,0.0,0.0,0.0,0.0,0.0,0.0,0.0,-3.8011,-4.0619,0.0,-4.0093,-4.0709,-4.1452,-4.1959,-4.3385,-4.4707,-4.5853,-4.7191,-4.817,-4.8682,-4.888,-4.8935,-4.8911,-4.8987,-4.902,-4.9028,-4.8547,-4.8465,-4.868,-4.7934,-4.7206,-4.646,-4.5715,-4.4572,-4.3085,-4.1579,-3.9852,-3.8055,-3.7317,-3.6738,-3.6233,-3.5745,-3.5418,-3.5102,-3.4237,-3.3511,-3.2856,-3.206,-3.1519,-3.1061,-3.0422,-3.0684,-3.1134,-3.0871,-3.1519,-3.2234,-3.1976,-3.2156,-3.2226,-3.128,-3.0563,-2.9724,-2.845,-2.7759,-2.7138,-2.6213,-2.536,-2.4759,-2.4759,-2.4239,-2.3806,-2.3806,-2.4194,-2.4484,-2.4484,-2.4987,-2.5312,-2.5312,-2.5312,-2.5097,-2.4646,-2.4703,-2.4378,-2.3427,-2.2626,-2.173,-2.0699,-1.907,-1.7957,-1.742,-1.7105,-1.6699,0.0,0.0,0.0,0.0,0.0,0.0,0.0,0.0,0.0,0.0,0.0,0.0,0.0,0.0,0.0,0.0,0.0,0.0,0.0,0.0,0.0,0.0,0.0,0.0,0.0,0.0,-4.1234,-4.0926,-4.424,-4.578,-4.3878,-4.4928,-4.5943,-4.6486,-4.794,-4.942,-5.0825,-5.1661,-5.2187,-5.2414,-5.1852,-5.121,-5.0533,-5.0382,-5.0143,-4.9839,-4.9607,-4.9342,-4.9094,-4.8597,-4.7835,-4.6874,-4.6378,-4.5334,-4.3943,-4.3446,-4.2121,-4.0299,-3.957,-3.899,-3.8474,-3.7962,-3.7595,-3.7093,-3.5464,-3.4622,-3.4031,-3.2641,-3.2179,-3.2092,-3.1716,-3.199,-3.2466,-3.2466,-3.3122,-3.3757,-3.3475,-3.3607,-3.3479,-3.2295,-3.1429,-3.0528,-2.9163,-2.8385,-2.7846,-2.7498,-2.6561,-2.5853,-2.5853,-2.5131,-2.4661,-2.4807,-2.4807,-2.4855,-2.5035,-2.5204,-2.5312,-2.5312,-2.5312,-2.5095,-2.4532,-2.4433,-2.3982,-2.3063,-2.246,-2.1686,-2.0602,-1.9552,-1.8689,-1.8101,-1.7471,-1.709,-1.6921,0.0,0.0,0.0,0.0,0.0,0.0,0.0,0.0,0.0,0.0,0.0,0.0,0.0,0.0,0.0,0.0,0.0,0.0,0.0,0.0,0.0,0.0,0.0,-3.7339,-4.1959,-4.4621,-4.2338,-4.7645,-4.9945,-4.6051,-4.9202,-5.1466,-5.1466,-5.272,-5.4105,-5.5597,-5.5418,-5.5169,-5.4877,-5.4547,-5.3215,-5.0765,-5.1145,-5.0634,-4.9243,-4.9955,-4.9889,-4.9177,-4.9144,-4.8349,-4.6957,-4.6941,-4.6096,-4.4721,-4.4705,-4.3843,-4.2456,-4.1711,-4.1413,-4.1302,-4.0294,-3.9781,-3.9175,-3.6801,-3.5549,-3.4863,-3.3877,-3.3532,-3.3532,-3.3532,-3.3935,-3.4414,-3.4414,-3.4414,-3.4414,-3.4414,-3.4128,-3.3479,-3.216,-3.1378,-3.0557,-2.9172,-2.8697,-2.851,-2.851,-2.7681,-2.6934,-2.6922,-2.649,-2.6298,-2.6789,-2.6009,0.0,-2.6009,-2.5624,-2.5312,-2.5312,-2.5312,-2.5083,-2.4508,-2.4225,-2.3758,-2.2995,-2.2696,-2.2112,-2.1123,-2.0441,-1.977,-1.9044,-1.7533,-1.7014,-1.7468,0.0,0.0,0.0,0.0,0.0,0.0,0.0,0.0,0.0,0.0,0.0,0.0,0.0,0.0,0.0,0.0,0.0,0.0,0.0,0.0,0.0,0.0,-4.2393,-4.2176,-4.5979,-4.9166,-5.0271,-5.3458,-5.5142,-5.4037,-5.4925,-5.5577,-5.5577,-5.6468,-5.7118,-5.7324,-5.7271,-5.7002,-5.646,-5.5122,-5.4213,-5.3777,-5.3171,-5.2622,-5.2224,-5.1926,-5.1396,-5.0667,-5.0137,-4.9392,-4.8481,-4.7934,-4.6858,-4.545,-4.4903,-4.4158,-4.3218,-4.2473,-4.2191,-4.2092,-4.1279,-4.0437,-3.946,-3.8059,-3.6825,-3.5756,-3.4999,-3.4471,-3.4153,-3.4153,-3.4283,-3.4414,-3.4414,-3.4414,-3.4414,-3.4414,-3.4312,-3.4011,-3.3052,-3.2182,-3.1304,-3.0304,-2.9496,-2.8946,-2.8946,-2.8572,-2.8089,-2.756,-2.7018,-2.661,-2.637,-2.6069,0.0,-2.5552,-2.5396,-2.5312,-2.5312,-2.5312,-2.4951,-2.4083,-2.3929,-2.3311,-2.1945,-2.1634,-2.1279,-2.0766,-2.0326,-1.9998,-1.9802,-1.8871,-1.8415,0.0,0.0,0.0,0.0,0.0,0.0,0.0,0.0,0.0,0.0,0.0,0.0,0.0,0.0,0.0,0.0,0.0,0.0,0.0,0.0,0.0,0.0,-4.4041,-4.6703,-4.8387,-5.0633,-5.286,-5.4925,-5.7261,-5.8709,-5.8709,-5.9325,-5.9705,-5.9705,-5.9832,-5.9988,-6.0178,-5.9547,-5.897,-5.8513,-5.6882,-5.5625,-5.479,-5.3861,-5.3102,-5.2523,-5.2423,-5.2028,-5.1299,-5.085,-5.027,-4.9558,-4.911,-4.8266,-4.7106,-4.6046,-4.5367,0.0,0.0,0.0,0.0,0.0,-4.0551,-3.9407,-3.7933,-3.6826,-3.5956,-3.5137,-3.4668,-3.4414,-3.4414,-3.4414,-3.4414,-3.4414,-3.4414,-3.4414,-3.4414,-3.4414,-3.4196,-3.3402,-3.272,-3.1965,-3.082,-3.0088,-2.9496,-2.917,-2.9013,0.0,-2.8375,-2.7686,-2.7198,-2.7128,-2.6731,-2.6334,-2.5997,-2.5781,-2.5552,-2.5336,-2.5312,-2.4975,-2.4157,-2.3803,0.0,0.0,0.0,-2.1308,-2.1129,-2.0613,0.0,0.0,0.0,-1.8844,-1.8586,0.0,0.0,0.0,-1.7344,-1.708,0.0,0.0,0.0,0.0,0.0,0.0,0.0,0.0,0.0,0.0,0.0,0.0,0.0,0.0,0.0,0.0,-4.7482,-5.0972,-5.5015,-5.5577,-5.612,-5.7569,-5.9724,-6.1118,-6.1208,-6.2494,-6.3291,-6.32,-6.2549,-6.2422,-6.3019,0.0,0.0,0.0,0.0,-5.7486,-5.5173,-5.417,-5.3022,-5.168,-5.226,-5.2144,-5.1431,-5.1431,-5.1015,-5.0336,-5.0336,-4.9773,-4.8763,-4.7438,-4.6792,-4.646,-4.4506,-4.3664,-4.3403,-4.1851,-4.0642,-3.9443,-3.7541,0.0,0.0,-3.4902,-3.4534,-3.4481,-3.4414,-3.4414,-3.4414,-3.4414,-3.4414,-3.4414,-3.4414,-3.4414,-3.423,-3.352,-3.3122,-3.2541,-3.1082,-3.057,-3.0126,-2.9326,-2.9131,-2.9131,-2.9131,-2.8426,-2.7945,-2.8394,-2.7621,-2.697,-2.691,-2.6442,-2.5913,-2.5444,0.0,0.0,-2.4532,-2.3839,-2.3325,-2.3007,-2.2283,-2.1845,-2.1845,-2.113,-2.0539,-2.007,-1.9492,-1.8926,-1.8349,-1.7905,-1.7786,-1.7998,-1.7627,-1.7031,0.0,0.0,0.0,0.0,0.0,0.0,0.0,0.0,0.0,0.0,0.0,0.0,0.0,0.0,0.0,-4.8264,-5.1647,-5.5142,-5.9108,-5.9669,-6.0013,-6.0946,-6.206,-6.2983,-6.3635,-6.3979,-6.3889,-6.3237,-6.3056,-6.2748,-6.2277,-6.2549,-6.2572,-6.2289,-6.1051,-6.0016,-5.9283,-5.6708,-5.4965,-5.41,0.0,0.0,-5.221,-5.221,-5.1761,-5.11,-5.11,-4.9641,-4.7305,-4.7007,-4.6195,-4.5069,-4.4638,-4.4125,-4.3565,-4.3224,-4.2291,-4.1063,-4.0031,-3.8665,-3.7138,-3.5999,-3.535,-3.4938,-3.4534,-3.4414,0.0,-3.4414,-3.4414,-3.4414,-3.4414,-3.4414,-3.4346,-3.4196,-3.3638,-3.2897,-3.2001,-3.1267,-3.057,-2.9805,-2.9482,-2.9341,-2.9341,-2.8903,-2.8458,-2.813,-2.777,-2.7378,-2.6958,-2.6442,-2.6057,-2.5961,-2.5564,-2.5095,-2.4532,-2.401,-2.3508,-2.3027,-2.2444,-2.2111,-2.2111,-2.1412,-2.1436,-2.2329,-2.1163,-2.0474,-2.0339,-1.9669,-1.8893,-1.8008,-1.793,-1.7726,0.0,0.0,0.0,0.0,0.0,0.0,0.0,0.0,0.0,0.0,0.0,-3.9443,0.0,0.0,-4.7355,-5.1774,-5.4508,-5.717,-6.0357,-6.1154,-6.186,-6.3056,-6.3563,-6.4106,-6.4921,-6.5355,-6.5428,-6.5029,-6.4631,-6.4233,-6.3834,-6.3418,-6.3127,-6.2939,-6.115,-5.9756,-5.8789,-5.6472,-5.473,-5.3579,-5.3105,-5.2721,-5.2409,-5.2409,-5.221,-5.1846,-5.1464,-5.047,-4.9011,-4.7901,-4.6576,-4.5235,-4.5235,-4.4787,-4.4075,-4.3317,-4.2325,-4.1143,-3.9978,-3.8612,-3.7204,-3.5955,-3.5382,-3.5103,-3.4568,-3.4414,-3.4414,-3.4414,-3.4414,-3.4414,-3.4414,-3.4414,-3.4414,-3.4414,-3.4079,-3.3589,-3.284,-3.2024,-3.1267,-3.0482,-2.9934,-2.9599,-2.9599,-2.9314,-2.8981,-2.8607,-2.8453,-2.8193,-2.7659,-2.7256,-2.6843,-2.6311,-2.5937,-2.5492,-2.4963,-2.4446,-2.3929,-2.3445,-2.3168,-2.3011,-2.3011,-2.2645,-2.2589,-2.2836,-2.1745,-2.1029,-2.0685,-1.9928,-1.9228,-1.8652,-1.8652,-1.8373,0.0,0.0,0.0,0.0,0.0,0.0,0.0,0.0,-3.7003,-3.8582,-4.0346,-4.2479,-4.5371,-4.7391,-5.0071,-5.4418,-5.6554,-5.8347,-6.0303,-6.1381,-6.2412,-6.3563,-6.3979,-6.4541,-6.55,-6.6188,-6.6569,-6.6569,-6.5971,-6.5464,-6.5138,-6.4052,-6.3273,-6.2983,-6.0905,-5.9062,-5.7531,-5.5697,-5.4109,-5.2715,-5.2511,-5.2409,-5.2409,-5.2409,-5.2409,-5.2359,-5.1332,-5.0767,-5.052,-4.8431,-4.6792,-4.5582,-4.5582,-4.5202,-4.4569,-4.338,-4.2182,-4.1023,-3.9626,-3.846,-3.735,-3.6006,-3.5561,-3.5447,-3.4754,-3.4582,-3.4534,-3.4448,-3.4414,-3.4414,-3.4414,-3.4414,-3.4414,-3.4414,-3.4414,-3.4182,-3.3367,-3.2613,-3.1856,-3.1044,-3.0305,-2.9792,-2.9792,-2.9611,-2.9392,-2.9197,-2.9131,-2.8932,-2.8502,-2.8228,-2.7674,-2.6664,-2.6311,-2.5877,-2.5204,-2.4771,-2.4302,-2.383,-2.3806,-2.3806,-2.3806,-2.3661,-2.3418,-2.3049,-2.2284,-2.1553,-2.0856,-2.0365,-1.9869,-1.9404,-1.9587,-1.9137,-3.2056,-3.2524,-3.3919,-3.6142,-3.6409,-3.7077,0.0,0.0,-4.0875,-4.2524,-4.4265,-4.6305,-4.901,-5.0868,-5.2824,-5.545,-5.7822,-5.9434,-5.9705,-6.1045,-6.1779,-6.1281,-6.2458,-6.3925,-6.5446,-6.5681,-6.5736,-6.5736,-6.5645,-6.4975,-6.3526,-6.3961,-6.3617,-6.2186,-6.129,-6.0106,-5.865,-5.6314,-5.4703,-5.3822,-5.2976,-5.2499,-5.2409,-5.2409,-5.2409,-5.231,-5.0237,-4.8978,-4.8249,-4.6676,-4.5549,-4.4804,-4.4804,-4.4754,-4.4671,-4.4506,-4.3383,-4.1848,-4.104,-4.0076,-3.8956,-3.7395,-3.6874,-3.6661,-3.5479,-3.5103,-3.5019,-3.4534,-3.4414,-3.4414,-3.4414,-3.4414,-3.4414,-3.4414,-3.4414,-3.4182,-3.3367,-3.2613,-3.1856,-3.1044,-3.0305,-2.9792,-2.9792,-2.9792,-2.9663,-2.9431,-2.9197,-2.9067,-2.9018,-2.8588,-2.7972,-2.7174,-2.6651,-2.5888,-2.4699,-2.452,-2.4302,-2.383,-2.3806,-2.3806,-2.3806,-2.3157,-2.3301,-2.4285,-2.3618,-2.2907,-2.2113,-2.2719,-2.1934,-1.9844,-2.0569,-2.0269,-3.3337,-3.445,-3.608,-3.7349,-3.8638,-4.0328,-4.3142,-4.4064,-4.4838,-4.6711,-4.8173,-4.9861,-5.2221,-5.3327,-5.4653,0.0,-5.8637,-5.9615,-5.9615,-6.0593,-6.0665,-5.8909,-6.0122,-6.1734,-6.3363,-6.4341,-6.4903,-6.4903,-6.4903,-6.4613,-6.3925,-6.3762,-6.3182,-6.2032,-6.0818,-5.9277,-5.7377,-5.5893,-5.4485,-5.318,-5.2809,-5.2302,-5.1779,-5.2175,-5.191,-5.1048,-4.969,-4.8448,-4.7255,-4.5765,-4.5218,-4.5284,-4.4854,-4.4688,-4.4638,-4.4224,-4.3324,-4.2265,-4.1793,-4.0794,-3.9495,-3.8171,-3.7461,-3.6844,-3.5593,-3.5201,-3.507,-3.4534,-3.4414,-3.4414,-3.4414,-3.4414,-3.4414,-3.4414,-3.4414,-3.4298,-3.3962,-3.3311,-3.2648,-3.2313,-3.1267,-3.0444,-3.0444,-3.0062,-2.9753,-2.965,-2.9585,-2.9507,-2.9507,-2.9167,-2.8531,-2.7495,-2.6798,-2.6056,-2.5222,-2.5022,-2.4891,-2.4675,-2.4662,-2.4662,-2.4662,-2.4374,-2.4434,-2.4975,-2.4248,-2.3691,-2.3368,-2.327,-2.2688,-2.169,-2.1589,-2.1234,-3.507,-3.6689,-3.8571,-4.0044,-4.2065,-4.4216,-4.6286,-4.7452,-4.8554,-5.0059,-5.0924,-5.1957,-5.3824,-5.4374,-5.5269,-5.7387,-5.88,-5.9452,-5.8999,-5.9832,-5.9579,-5.7152,-5.8094,-5.9398,-6.0575,-6.253,-6.3834,-6.4052,-6.407,-6.407,-6.407,-6.3092,-6.2277,-6.167,-6.0122,-5.8321,-5.6382,-5.5587,-5.4374,-5.2764,-5.2764,-5.2392,-5.1665,-5.2161,-5.1595,-5.0171,-4.9425,-4.8266,-4.6792,-4.5301,-4.5003,-4.5433,-4.4903,-4.4688,-4.4652,-4.4108,-4.3433,-4.2741,-4.2351,-4.1375,-4.0132,-3.9033,-3.8177,-3.7324,-3.5961,-3.5529,-3.5382,-3.4601,-3.4414,-3.4414,-3.4414,-3.4414,-3.4414,-3.4414,-3.4414,-3.4414,-3.4414,-3.3776,-3.3178,-3.3178,-3.1938,-3.0895,-3.0895,-3.0279,-2.9792,-2.9792,-2.9792,-2.9792,-2.9792,-2.9435,-2.8871,-2.794,-2.7005,-2.6334,-2.5932,-2.5573,-2.5382,-2.5382,-2.5347,-2.5312,-2.5312,-2.5312,-2.5312,-2.5312,-2.4743,-2.4337,-2.4108,-2.3573,-2.3095,-2.266,-2.2059,-2.169,-3.7217,-3.9017,-4.1222,-4.5469,-4.7374,-4.8863,-5.1396,-5.1796,-5.1736,-5.2064,-5.1843,-5.1962,-5.3113,-5.3562,-5.4255,-5.5812,-5.8058,-5.9072,-5.7496,-5.8637,-5.8746,-5.6319,-5.6772,-5.7279,0.0,-6.0212,-6.2404,-6.3164,-6.3237,-6.3237,-6.3237,-6.1734,-6.0864,-6.0819,-5.9289,-5.7819,-5.6503,-5.5753,-5.4658,-5.3179,-5.3179,-5.2956,-5.2572,-5.2464,-5.1595,-5.0171,-4.9425,-4.8266,-4.6792,-4.5301,-4.4705,-4.4721,-4.4705,-4.4688,-4.4688,-4.4655,-4.4208,-4.3466,-4.2738,-4.1993,-4.1175,-4.0172,-3.9339,-3.8439,-3.6828,-3.6353,-3.6072,-3.4787,-3.4414,-3.4414,-3.4414,-3.4414,-3.4414,-3.4414,-3.4414,-3.4414,-3.4414,-3.3776,-3.3178,-3.3178,-3.1938,-3.0895,-3.0895,-3.0279,-2.9792,-2.9792,-2.9792,-2.9792,-2.9792,-2.9162,-2.8699,-2.8661,-2.7471,-2.6673,-2.6661,-2.6016,-2.5571,-2.5571,-2.5418,-2.5312,-2.5312,-2.5312,-2.5312,-2.5312,-2.5276,-2.4898,-2.4108,-2.4084,-2.3305,-2.1842,-2.1794,-2.1385,-3.8337,-4.1675,-4.5214,-4.7756,-5.0378,-5.2753,-5.4461,-5.4814,-5.4604,-5.3916,-5.2849,-5.194,-5.1746,-5.208,-5.2885,-5.4469,-5.6594,-5.7822,-5.7279,-5.8601,-5.813,-5.4146,-5.6228,0.0,0.0,0.0,0.0,-6.0756,-6.081,-6.1045,-6.1589,-6.0593,-6.0013,-6.0013,-5.8963,-5.755,-5.58,-5.5472,-5.4624,-5.3179,-5.2572,-5.2132,-5.184,-5.1323,-5.0489,-4.9442,-4.8696,-4.7819,-4.6825,-4.5831,-4.5417,-4.5367,-4.487,-4.4688,-4.4622,-4.4158,-4.3797,-4.3482,-4.2754,-4.2009,-4.1236,-4.0245,-3.9394,-3.8595,-3.7531,-3.6889,-3.6337,-3.5449,-3.4905,-3.4563,-3.4414,-3.4414,-3.4414,-3.4414,-3.4414,-3.4414,-3.4414,-3.4182,-3.4011,-3.4011,-3.3157,-3.2277,-3.1783,-3.1057,-3.0381,-2.9856,-2.9792,-2.9792,-2.9792,-2.959,-2.9288,-2.8862,-2.8002,-2.7309,-2.6937,-2.6205,-2.5723,-2.5606,-2.5535,-2.543,-2.5312,-2.5312,-2.5312,-2.5312,-2.5312,-2.5158,-2.4898,-2.4898,-2.4636,-2.4084,-2.3058,-2.2435,-4.1249,-4.5021,-4.8696,-5.0939,-5.3576,-5.588,-5.6705,-5.6495,-5.5705,-5.4114,-5.2366,-5.0904,-5.0075,-5.0189,-5.0939,-5.2546,-5.434,-5.5721,-5.6301,-5.7279,-5.688,-5.4074,-5.5993,-5.6536,0.0,0.0,0.0,-5.9108,-5.918,-5.9651,-6.0729,-5.9488,-5.9144,-6.0013,-5.8691,-5.7281,-5.5818,-5.549,-5.4655,-5.3298,-5.2286,-5.158,-5.1211,-5.0608,-4.9742,-4.868,-4.8216,-4.7587,-4.6841,-4.6096,-4.5947,-4.6113,-4.5367,-4.5086,-4.4986,-4.4274,-4.3843,-4.3482,-4.2754,-4.2009,-4.1236,-4.0358,-3.9578,-3.8816,-3.7978,-3.744,-3.6904,-3.5899,-3.5335,-3.492,-3.4515,-3.4414,-3.4414,-3.4414,-3.4414,-3.4414,-3.4414,-3.4414,-3.4414,-3.4414,-3.3742,-3.3038,-3.2577,-3.1586,-3.0645,-2.9895,-2.9792,-2.9792,-2.9792,-2.9792,-2.9641,-2.9277,-2.8437,-2.7764,-2.7415,-2.654,-2.5945,-2.5828,-2.5688,-2.5535,-2.5418,-2.5347,-2.5312,-2.5312,-2.5312,-2.5312,-2.5312,-2.5004,-2.4862,-2.4826,-2.3573,-2.2995,-4.5708,-4.889,-5.164,-5.4917,-5.6907,-5.8089,-5.8033,-5.6872,-5.5067,-5.2603,-5.0541,-4.8908,-4.8028,-4.797,-4.8606,-5.025,-5.1667,-5.315,-5.4852,-5.5124,-5.5377,0.0,0.0,0.0,0.0,0.0,0.0,-5.8402,0.0,-5.9017,-6.0593,-5.8474,-5.8275,-6.0611,-5.842,-5.6949,-5.645,-5.5676,-5.4693,-5.3501,-5.2354,-5.143,-5.071,-5.0358,-4.9375,-4.8001,-4.8001,-4.7603,-4.6891,-4.6195,-4.6295,-4.6825,-4.6079,-4.5765,-4.5649,-4.4903,-4.4208,-4.3482,-4.2754,-4.2009,-4.1293,-4.0591,-3.9879,-3.9148,-3.8318,-3.8092,-3.7777,-3.615,-3.5659,-3.5449,-3.462,-3.4414,-3.4414,-3.4414,-3.4414,-3.4414,-3.4414,-3.4414,-3.4414,-3.4414,-3.3742,-3.3178,-3.3178,-3.1978,-3.0759,-2.9972,-2.9894,-2.9894,-2.9792,-2.9792,-2.9792,-2.9792,-2.88,-2.8147,-2.8147,-2.6978,-2.6251,-2.6251,-2.5853,-2.5606,-2.5606,-2.5454,-2.5336,-2.5312,-2.5336,-2.5336,-2.5312,-2.4528,-2.4156,-2.4145,-2.339,-2.3069,-4.7912,-5.149,-5.4825,-5.6944,-5.777,-5.7939,-5.7338,-5.5485,-5.3002,-4.9877,-4.8354,-4.6965,-4.4897,-4.6158,-4.8236,-5.0442,-5.2255,0.0,-5.7116,-5.8021,0.0,-5.7007,0.0,-5.8872,-5.7062,-5.8166,0.0,0.0,-5.8184,-5.7949,-5.8963,-5.7858,-5.775,-5.8981,-5.7822,-5.6724,-5.5695,-5.4529,-5.3833,-5.3501,-5.2589,-5.173,-5.0892,-5.0108,-4.9192,-4.813,-4.8017,-4.7885,-4.7703,-4.752,-4.7222,-4.6825,-4.6079,-4.545,-4.4887,-4.4158,-4.3747,-4.3482,-4.2754,-4.2009,-4.121,-3.9995,-3.9448,-3.9272,-3.905,-3.8618,-3.8023,-3.7025,-3.6399,-3.5847,-3.4883,-3.4631,-3.4597,-3.4448,-3.4414,-3.4414,-3.4414,-3.4414,-3.4414,-3.4414,-3.3742,-3.3178,-3.3178,-3.2804,-3.2019,-3.0798,-3.1034,-3.0984,-2.9919,-2.9792,-2.9792,-2.9792,-2.9151,-2.8687,-2.8687,-2.7672,-2.6962,-2.682,-2.6307,-2.591,-2.5606,-2.5911,-2.5864,-2.5312,-2.5697,-2.5709,-2.5312,-2.5087,-2.5004,-2.4981,-2.4192,-2.3818,-5.0922,-5.4093,-5.6907,-5.7864,-5.7845,-5.7169,-5.5629,-5.3637,-5.1064,-4.7331,-4.6505,-4.5791,-4.3688,-4.4907,-4.6927,0.0,0.0,0.0,-5.6373,-5.7532,-5.8076,0.0,-5.976,0.0,-5.842,-5.9398,-5.9995,0.0,-5.8438,-5.8076,-5.8891,-5.7822,-5.7569,-5.8365,-5.7623,-5.6758,-5.5791,-5.483,-5.4333,-5.4316,-5.2819,-5.1862,-5.1325,-4.9798,-4.8789,-4.8195,0.0,-4.7867,-4.7537,-4.7868,-4.7371,-4.6378,-4.5947,-4.5334,-4.4605,-4.3863,-4.3598,-4.3482,-4.2754,-4.2224,-4.1657,-4.026,-3.9779,-3.973,-3.9398,-3.905,-3.8562,-3.7764,-3.731,-3.6738,-3.5544,-3.5169,-3.5019,-3.4616,-3.4448,-3.4414,-3.4414,-3.4414,-3.4414,-3.4414,-3.4261,-3.3951,-3.3304,-3.3634,-3.3346,-3.1542,-3.1809,-3.1824,-3.0639,-3.008,-2.9792,-2.9792,-2.9277,-2.8888,-2.8888,-2.8134,-2.7496,-2.7139,-2.7005,-2.6655,-2.6113,-2.6505,-2.6505,-2.5997,-2.6069,-2.5949,-2.5661,-2.5661,-2.554,-2.5276,-2.5098,-2.4847,-5.4052,-5.638,-5.8127,-5.8239,-5.7413,-5.5967,-5.3712,-5.1571,-4.8945,-4.5134,0.0,-4.4909,-4.3407,-4.4116,-4.5539,-4.7333,0.0,-5.055,-5.4635,-5.5848,-5.717,-5.9488,-6.0484,-6.0701,-5.9995,-6.0557,-6.0683,-5.9977,-5.9072,-5.8818,-5.9416,-5.8112,-5.7623,-5.822,-5.7474,-5.6837,-5.6311,-5.5705,-5.5385,-5.5367,-5.3112,-5.2024,-5.185,-4.9641,-4.8498,-4.8276,-4.8227,-4.7732,-4.6989,-4.7587,-4.6974,-4.5649,-4.5649,-4.5202,-4.4473,-4.383,-4.3598,-4.3482,-4.2754,-4.2489,-4.2258,-4.0845,-4.0409,-4.026,-3.9514,-3.9299,-3.9148,-3.8367,-3.8124,-3.7793,-3.6306,-3.5802,-3.5529,-3.4883,-3.4582,-3.4448,-3.4448,-3.4414,-3.4414,-3.4414,-3.4922,-3.4995,-3.3698,-3.461,-3.4738,-3.2478,-3.2645,-3.2645,-3.1671,-3.0662,-3.0005,-3.0005,-2.949,-2.9113,-2.9113,-2.8574,-2.8009,-2.7532,-2.7726,-2.7543,-2.6868,-2.7176,-2.7209,-2.6935,-2.6526,-2.6274,-2.6214,-2.6214,-2.5937,-2.5432,-2.5877,-2.5817,-5.5779,-5.7281,-5.8276,-5.8933,-5.6943,-5.454,-5.3449,-4.9753,0.0,0.0,-4.3613,-4.3407,-4.2399,-4.3878,-4.6112,-4.8827,-4.9823,-5.1774,-5.6187,-5.7478,-5.8637,0.0,-6.129,-6.1725,-6.158,-6.1706,0.0,0.0,-6.0231,-5.9162,-5.8637,-5.8347,-5.7949,-5.7424,-5.6804,-5.6393,-5.6311,-5.5705,-5.5385,-5.5367,-5.3626,-5.2573,-5.208,-5.0249,-4.9148,-4.8675,-4.8324,0.0,-4.7147,-4.7104,-4.6212,-4.487,-4.487,-4.444,-4.3764,-4.3648,-4.3598,-4.3482,-4.2754,-4.2489,-4.2258,-4.0845,-4.0409,-4.026,-3.9514,-3.9299,-3.9148,-3.8463,-3.8266,-3.7937,-3.6508,-3.6133,-3.5879,-3.5067,-3.4835,-3.4769,-3.4664,-3.4515,-3.4414,-3.4414,-3.4922,-3.5328,-3.5059,-3.6079,-3.6407,-3.4841,-3.4511,-3.3977,-3.2619,-3.1694,-3.111,-3.111,-3.0633,-3.0319,-3.0319,-2.9339,-2.8712,-2.8612,-2.8261,-2.7913,-2.7618,-2.7927,-2.7824,-2.7136,-2.7336,-2.7186,-2.6753,-2.6753,-2.6502,-2.5961,-2.6057,-2.5817,-5.6455,-5.7788,-5.8727,-5.8689,-5.6211,-5.3339,-5.1649,0.0,0.0,0.0,-4.2693,-4.29,-4.1623,-4.3534,0.0,-4.7175,-4.8088,-5.0261,-5.4932,-5.5801,0.0,-6.043,-6.1154,-6.1525,0.0,-6.1996,-6.1815,-6.1426,-6.0665,-5.9868,-5.9072,-5.8239,-5.7605,-5.7206,-5.6915,-5.6785,-5.6785,-5.6474,-5.6152,-5.5678,-5.4233,-5.3172,-5.2473,-5.0893,-4.9993,-4.9669,-4.9487,0.0,-4.7066,-4.7328,-4.6149,-4.4175,-4.4539,-4.4257,-4.3598,-4.3598,-4.3598,-4.3549,-4.3184,-4.2804,-4.2324,-4.1259,-4.0663,-4.026,-3.9514,-3.9299,-3.9245,-3.8898,-3.8799,-3.8562,-3.7576,-3.6981,-3.6477,-3.5752,-3.5216,-3.4868,-3.4731,-3.4631,-3.4617,-3.4869,-3.5415,-3.5851,-3.5851,-3.6925,-3.7275,-3.5822,-3.5375,-3.4821,-3.375,-3.2823,-3.1938,-3.1085,-3.0758,-3.0507,-3.0218,-2.9691,-2.9252,-2.8913,-2.8963,-2.8762,-2.8226,-2.8531,-2.8499,-2.8037,-2.7794,-2.7558,-2.7306,-2.7306,-2.6911,-2.6105,-2.6394,-2.6093,-5.6868,-5.8201,-5.9102,-5.8314,-5.5498,-5.2322,-5.0016,-4.6621,0.0,-4.1473,-4.2093,-4.2675,-4.1548,-4.3409,-4.5221,0.0,-4.6261,-4.8395,-5.2952,-5.3695,-5.5396,0.0,-6.0448,0.0,-6.1652,-6.158,0.0,-6.0593,-6.0394,0.0,-5.9379,-5.7985,-5.7188,-5.7188,-5.7188,-5.7188,-5.7188,-5.7025,-5.6627,-5.5975,-5.4601,-5.3558,-5.2779,-5.1484,-5.0751,-5.0552,-5.0322,0.0,0.0,-4.7471,-4.6089,-4.3835,-4.4178,-4.4006,-4.3582,-4.3416,-4.3449,-4.3582,-4.3416,-4.287,-4.217,-4.1425,-4.0829,-4.026,-3.9514,-3.9299,-3.9299,-3.9299,-3.9299,-3.9148,-3.8463,-3.7822,-3.7191,-3.643,-3.5606,-3.4979,-3.4993,-3.4852,-3.4917,-3.552,-3.6038,-3.6395,-3.6504,-3.7462,-3.7803,-3.6632,-3.6133,-3.5588,-3.4744,-3.3894,-3.2739,-3.111,-3.0859,-3.0557,-3.0018,-2.9867,-2.9603,-2.9101,-2.9541,-2.9501,-2.8886,-2.9052,-2.9079,-2.891,-2.8285,-2.7924,-2.7924,-2.7885,-2.7332,-2.6286,-2.6693,-2.6321,-5.7545,-5.8633,-5.9102,-5.8314,-5.5047,-5.1574,-4.9884,0.0,-4.2173,-4.1948,-4.2004,-4.2305,-4.2956,-4.3886,-4.4967,-4.6182,0.0,-4.779,-5.1404,-5.3164,-5.5197,-5.8246,0.0,0.0,-6.0846,-6.0267,0.0,-5.9724,-5.9035,0.0,-5.851,-5.7677,-5.7188,-5.7188,-5.7188,-5.7188,-5.7188,-5.6482,-5.6066,-5.5975,-5.446,-5.3398,-5.2761,-5.1907,-5.1209,-5.0618,-4.9773,0.0,0.0,-4.6715,-4.5529,-4.4423,-4.3382,-4.3232,-4.3515,-4.2837,-4.3019,-4.3499,-4.282,-4.2109,-4.1409,-4.0696,-4.0459,-4.026,-3.9514,-3.9299,-3.9299,-3.9299,-3.9299,-3.9148,-3.8463,-3.8266,-3.7879,-3.6662,-3.5767,-3.5344,-3.5937,-3.5429,-3.5203,-3.6277,-3.6535,-3.6697,-3.715,-3.7767,-3.8136,-3.8003,-3.7295,-3.6478,-3.5588,-3.4772,-3.372,-3.221,-3.1625,-3.111,-3.0583,-3.008,-2.9767,-2.9716,-2.9767,-2.9767,-2.9678,-2.9496,-2.938,-2.9341,-2.89,-2.8691,-2.8691,-2.8505,-2.7897,-2.6825,-2.6873,-2.6321,-5.5908,-5.792,-5.8858,-5.7038,-5.424,-5.1349,-4.9189,0.0,-4.2155,-4.2675,-4.2361,-4.1967,-4.1811,-4.3294,-4.4341,-4.3872,-4.411,0.0,-4.8827,-4.9285,-5.1069,-5.5908,-5.677,0.0,0.0,0.0,-5.9416,-5.8909,0.0,0.0,-5.7677,-5.7369,-5.7188,-5.7188,-5.6717,-5.6482,-5.6482,-5.5721,-5.5088,-5.4617,-5.3983,-5.3303,-5.2606,-5.2282,-5.2024,-5.1739,-5.0878,0.0,0.0,-4.759,-4.6213,-4.4722,-4.413,-4.3853,-4.368,-4.2829,-4.2688,-4.2886,-4.2589,-4.1756,-4.0812,-4.0961,-4.0415,-3.968,-3.9398,-3.9299,-3.9299,-3.9299,-3.9299,-3.9245,-3.8969,-3.859,-3.8078,-3.7204,-3.676,-3.6464,-3.6253,-3.6249,-3.6364,-3.6547,-3.6921,-3.7353,-3.7775,-3.8043,-3.8202,-3.8202,-3.7453,-3.6766,-3.6439,-3.5223,-3.4051,-3.3083,-3.2028,-3.1185,-3.0658,-3.0118,-2.9792,-2.9792,-2.9792,-2.9792,-2.9792,-2.956,-2.9419,-2.9419,-2.9118,-2.8922,-2.8791,-2.8409,-2.776,-2.6898,-2.6898,-2.6477,-5.3426,-5.5967,-5.7375,-5.5385,-5.3038,-5.0598,0.0,0.0,-4.2248,-4.3125,-4.2618,-4.1986,-4.1905,-4.3318,-4.4106,-4.2924,0.0,-4.4296,-4.6969,-4.6895,0.0,0.0,0.0,-5.4989,0.0,-5.867,-5.8655,0.0,0.0,0.0,-5.7188,-5.6971,-5.6844,-5.6844,-5.6084,-5.5667,-5.5667,-5.4925,-5.4255,-5.3693,-5.3458,-5.3041,-5.248,-5.2245,-5.2136,-5.2082,-5.1031,0.0,0.0,-4.8003,-4.6755,-4.5329,-4.446,-4.3999,-4.3731,-4.2409,-4.2095,-4.2232,-4.2204,-4.1392,-4.0492,-4.0945,-4.0282,-3.9299,-3.9299,-3.9299,-3.9299,-3.9299,-3.9299,-3.9348,-3.9564,-3.9127,-3.8579,-3.837,-3.801,-3.7606,-3.7273,-3.724,-3.7278,-3.7346,-3.7518,-3.7791,-3.8213,-3.824,-3.8202,-3.8202,-3.7682,-3.7169,-3.6936,-3.587,-3.4806,-3.3966,-3.2625,-3.1455,-3.0658,-3.0118,-2.9792,-2.9792,-2.9792,-2.9792,-2.9792,-2.9611,-2.9509,-2.9509,-2.9314,-2.9118,-2.8988,-2.8543,-2.7892,-2.7085,-2.7167,-2.6816,-5.0356,-5.255,-5.424,-5.343,-5.1349,-4.9077,0.0,0.0,-4.2248,-4.3125,-4.2618,-4.2492,-4.4163,-4.4482,-4.4482,-4.4482,-4.4482,0.0,-4.6313,-4.7194,0.0,0.0,0.0,-5.1798,-5.4953,-5.6437,0.0,0.0,0.0,0.0,-5.7188,-5.6446,-5.6011,-5.6011,-5.5305,-5.4907,-5.4907,-5.411,-5.3711,-5.3693,-5.2878,-5.2498,-5.2462,-5.1665,-5.1303,-5.1212,0.0,0.0,0.0,-4.7447,-4.6817,-4.643,-4.3898,-4.3289,-4.3541,-4.1406,-4.1072,-4.166,-4.147,-4.0961,-4.0409,-4.0426,-3.9912,-3.9299,-3.9299,-3.9299,-3.9299,-3.9299,-3.9299,-3.9481,-4.021,-3.9881,-3.957,-4.0299,-3.9439,-3.8664,-3.9342,-3.8368,-3.7724,-3.8873,-3.8375,-3.7958,-3.8399,-3.8329,-3.8202,-3.8202,-3.8202,-3.7886,-3.7014,-3.6897,-3.6295,-3.4841,-3.3502,-3.2109,-3.0738,-3.0118,-2.9792,-2.9792,-2.9792,-2.9792,-2.9792,-2.9792,-2.9792,-2.9792,-2.9509,-2.9419,-2.938,-2.9197,-2.8539,-2.7496,-2.7822,-2.7304,-4.6812,-4.9194,-5.0832,-4.9348,-4.8363,-4.7218,-4.4984,-4.32,-4.2248,-4.3125,-4.2618,-4.2342,-4.3463,-4.4139,-4.4313,-4.3764,-4.4139,0.0,0.0,0.0,0.0,0.0,0.0,0.0,0.0,0.0,0.0,0.0,0.0,0.0,-5.5685,-5.5395,-5.5486,-5.5975,-5.4744,-5.4092,-5.4092,-5.3277,-5.2878,-5.286,-5.2063,-5.1665,-5.1647,-5.0854,-5.0492,0.0,0.0,0.0,0.0,-4.7836,-4.6891,-4.5922,-4.5017,-4.4229,-4.345,-4.2152,-4.1656,-4.1619,-4.196,-4.106,-4.0003,-4.1387,-4.1028,-4.0144,-4.0597,-4.0415,-4.0061,-4.0061,-4.0365,-4.068,-4.0475,-4.0573,-4.0828,-4.1119,-4.0855,-4.0341,-3.965,-3.9492,-3.9282,-3.8543,-3.8557,-3.8634,-3.8523,-3.8575,-3.8538,-3.824,-3.8315,-3.824,-3.7848,-3.7246,-3.6735,-3.6228,-3.4123,-3.2332,-3.1448,-3.0392,-2.9792,-2.9792,-2.9792,-2.9792,-2.9792,-2.9792,-2.9792,-2.9792,-2.9702,-2.956,-2.9419,-2.902,-2.8297,-2.7285,-2.7418,-2.6965,0.0,-4.5917,-4.7581,-4.6463,-4.5881,0.0,0.0,-4.2393,-4.1779,-4.2637,-4.2136,-4.1924,-4.3069,-4.3707,-4.3876,-4.3369,-4.3989,0.0,0.0,0.0,0.0,0.0,0.0,0.0,0.0,0.0,0.0,0.0,0.0,0.0,-5.4961,-5.4617,-5.4653,-5.5124,-5.3911,-5.3241,-5.3241,-5.2752,-5.2498,-5.248,-5.1665,-5.1285,-5.1249,-5.0144,-4.9655,0.0,0.0,0.0,0.0,-4.779,-4.7042,-4.5968,-4.5713,-4.5101,-4.4249,-4.3156,-4.2586,-4.2356,-4.2484,-4.1696,-4.0795,-4.1871,-4.1564,-4.0912,-4.1607,-4.1342,-4.0763,-4.0763,-4.1077,-4.1375,-4.1226,-4.1508,-4.189,-4.2215,-4.1874,-4.1263,-4.0419,-4.0185,-3.9793,-3.8799,-3.8873,-3.9031,-3.8775,-3.876,-3.8671,-3.8352,-3.8404,-3.8354,-3.7935,-3.739,-3.6935,-3.6694,-3.4851,-3.3239,-3.2294,-3.0714,-2.9792,-2.9792,-2.9792,-2.9792,-2.9792,-2.9792,-2.9792,-2.9792,-2.9792,-2.9702,-2.956,-2.9011,-2.8524,-2.8022,-2.7751,-2.7211,0.0,-4.2713,-4.4409,-4.4442,0.0,0.0,0.0,-4.1886,0.0,-4.176,-4.1323,-4.1304,-4.2994,-4.3238,-4.3238,-4.3369,-4.397,0.0,0.0,-4.5443,0.0,0.0,0.0,0.0,0.0,0.0,0.0,0.0,0.0,0.0,-5.4744,-5.4074,-5.3657,-5.353,-5.2806,-5.2408,-5.2408,-5.2353,-5.2317,-5.2317,-5.1502,-5.1122,-5.1067,-4.9528,-4.88,0.0,0.0,0.0,0.0,-4.7391,-4.7228,-4.6445,-4.5957,-4.5752,-4.5596,-4.4218,-4.374,-4.3675,-4.307,-4.2698,-4.2464,-4.1937,-4.1699,-4.1707,-4.2357,-4.2042,-4.1491,-4.1491,-4.1524,-4.1678,-4.2324,-4.2522,-4.2738,-4.3433,-4.26,-4.1624,-4.1525,-4.0478,-3.9517,-3.9409,-3.9265,-3.9104,-3.9104,-3.8943,-3.876,-3.8516,-3.8516,-3.8237,-3.7484,-3.7375,-3.7114,-3.6446,-3.5666,-3.4622,-3.3209,-3.1161,-2.9907,-2.9792,-2.9792,-2.9792,-2.9792,-2.9792,-2.9792,-2.9792,-2.9792,-2.9792,-2.9792,-2.9252,-2.9113,-2.9305,-2.863,-2.7911,-3.7758,0.0,-4.0605,-4.0954,-4.1332,-4.1409,0.0,0.0,0.0,0.0,0.0,0.0,0.0,-4.2769,-4.2718,-4.4013,0.0,0.0,-4.4074,0.0,0.0,-5.1448,-5.3875,-5.4788,0.0,0.0,0.0,0.0,0.0,-5.4363,-5.3132,-5.3476,-5.3132,-5.19,-5.1665,-5.1574,-5.1574,-5.0981,-5.0651,-5.0655,-4.9854,-4.9474,-4.9438,-4.8442,-4.7968,0.0,0.0,0.0,-4.7446,-4.7606,-4.7228,-4.6429,-4.5696,-4.542,-4.5292,-4.4358,-4.4181,-4.4378,-4.4275,-4.3585,-4.2783,-4.2596,-4.287,-4.3311,-4.3343,-4.282,-4.2224,-4.2224,-4.2638,-4.2986,-4.2589,-4.292,-4.3383,-4.3549,-4.3372,-4.2803,-4.1722,-4.1227,-4.0703,-3.961,-3.9337,-3.9265,-3.9141,-3.9177,-3.9083,-3.859,-3.8612,-3.8554,-3.8051,-3.7984,-3.7752,-3.7143,-3.5937,-3.4843,-3.4008,-3.2375,-3.0933,-2.9855,-2.9792,-2.9792,-2.9792,-2.9792,-2.9792,-2.9792,-2.9792,-2.9792,-2.9792,-2.9654,-2.9351,-2.886,-2.847,-2.7911,-3.6806,-3.8035,-3.9261,-3.9526,-4.0077,-4.0408,-3.9849,0.0,0.0,0.0,0.0,0.0,0.0,0.0,0.0,0.0,-4.3313,0.0,0.0,0.0,0.0,0.0,0.0,0.0,0.0,0.0,0.0,0.0,0.0,-5.3094,-5.2221,-5.2082,-5.1647,-5.0782,-5.0379,-5.0379,-5.0764,-5.0329,-5.0112,-5.0093,-4.9293,-4.8891,-4.8873,-4.8079,-4.7717,0.0,0.0,0.0,-4.7192,-4.7554,-4.7228,-4.6504,-4.6432,-4.6413,-4.6359,-4.5906,-4.5872,-4.5939,-4.5361,-4.4363,-4.3314,-4.3009,-4.3339,-4.3868,-4.3763,-4.3376,-4.2986,-4.2986,-4.3284,-4.3499,-4.3102,-4.33,-4.3598,-4.3598,-4.3372,-4.2943,-4.219,-4.1754,-4.1194,-4.0111,-3.9915,-3.9773,-3.9322,-3.9337,-3.9265,-3.8848,-3.8885,-3.873,-3.8157,-3.7966,-3.7682,-3.7034,-3.6216,-3.5309,-3.4275,-3.3441,-3.2217,-3.0419,-3.0011,-2.9792,-2.9792,-2.9792,-2.9792,-2.9792,-2.9792,-2.9792,-2.9792,-2.9792,-2.959,-2.9225,-2.8919,-2.847,-3.6535,-3.7855,-3.9061,-3.9173,-3.9602,-3.9988,-3.9924,0.0,0.0,0.0,0.0,0.0,0.0,-4.0797,0.0,0.0,0.0,0.0,0.0,0.0,0.0,0.0,0.0,0.0,0.0,0.0,0.0,0.0,0.0,-5.1802,-5.1674,-5.0717,-5.0105,-4.9978,-4.9278,-4.9166,-4.9749,-4.9749,-4.9749,-4.9709,-4.8931,-4.8529,-4.8511,-4.7844,-4.7518,-4.7515,0.0,0.0,-4.6739,-4.7428,-4.7301,-4.6739,-4.7301,-4.7591,-4.7699,-4.7572,-4.7588,-4.7545,-4.6314,-4.5093,-4.3966,-4.3494,-4.3664,-4.4068,-4.3956,-4.3793,-4.3658,-4.3658,-4.3628,-4.3598,-4.3598,-4.3598,-4.3598,-4.3598,-4.3174,-4.271,-4.2617,-4.2126,-4.1459,-4.0771,-4.0581,-4.032,-3.9681,-3.9481,-3.9337,-3.9141,-3.9104,-3.8839,-3.8125,-3.7783,-3.7396,-3.6819,-3.6393,-3.569,-3.449,-3.417,-3.3251,-3.1368,-3.0457,-2.9934,-2.9792,-2.9792,-2.9792,-2.9792,-2.9792,-2.9792,-2.9792,-2.9792,-2.9792,-2.9792,-2.9509,-2.9183,-3.5839,-3.7098,-3.8479,-3.9068,-3.9807,-4.0321,-3.9969,0.0,0.0,0.0,0.0,0.0,0.0,-4.0797,-4.1304,0.0,0.0,-4.6448,0.0,0.0,0.0,0.0,0.0,0.0,0.0,0.0,0.0,0.0,0.0,-5.1851,-5.1168,-5.0703,-5.0133,-4.9439,-4.9077,-4.8619,-4.8079,-4.8079,-4.8079,-4.8061,-4.7265,-4.6866,-4.6866,-4.6739,-4.6685,-4.6721,0.0,-4.7645,-4.7536,-4.7663,-4.7645,-4.7464,-4.6902,-4.7102,-4.7606,-4.6939,-4.712,-4.7597,-4.6941,-4.5858,-4.4753,-4.4766,-4.4834,-4.4801,-4.4253,-4.3969,-4.3868,-4.3868,-4.3734,-4.3598,-4.3598,-4.3598,-4.3598,-4.3598,-4.3522,-4.3295,-4.271,-4.2522,-4.2221,-4.1492,-4.0873,-4.0443,-4.0339,-3.9824,-3.9337,-3.9141,-3.9104,-3.8987,-3.8701,-3.8047,-3.7572,-3.7469,-3.6297,-3.5459,-3.5218,-3.4079,-3.322,-3.2861,-3.1526,-3.0444,-2.983,-2.9792,-2.9792,-2.9792,-2.9792,-2.9792,-2.9792,-2.9792,-2.9792,-2.9792,-2.9509,-2.9369,-3.5711,-3.695,-3.8326,-3.8582,-3.9526,-4.0302,-3.9969,0.0,0.0,0.0,0.0,0.0,0.0,0.0,-4.1986,-4.3688,0.0,-4.7594,0.0,0.0,0.0,0.0,0.0,0.0,0.0,0.0,0.0,0.0,0.0,0.0,-5.0744,-5.0082,-4.9196,-4.8138,-4.8023,-4.7499,-4.6513,-4.6434,-4.6848,-4.7678,-4.6884,-4.6504,-4.6486,-4.6051,-4.5852,-4.5906,0.0,-4.7065,-4.7102,-4.7515,-4.7717,-4.7663,-4.7301,-4.712,-4.7011,-4.6649,-4.6739,-4.6985,-4.6484,-4.5881,-4.5247,-4.4758,-4.4818,-4.4974,-4.4293,-4.3998,-4.3868,-4.3763,-4.3658,-4.3598,-4.3598,-4.3598,-4.3598,-4.3598,-4.3598,-4.3539,-4.3204,-4.3143,-4.2803,-4.1722,-4.126,-4.0805,-4.0056,-3.961,-3.9373,-3.9265,-3.8937,-3.8698,-3.8591,-3.8087,-3.743,-3.6761,-3.6187,-3.5604,-3.4907,-3.4238,-3.3485,-3.2648,-3.1549,-3.0758,-3.0419,-2.9998,-2.9792,-2.9792,-2.9792,-2.9792,-2.9792,-2.9792,-2.9792,-2.9792,-2.965,-2.9611,-3.5698,-3.6822,-3.7978,-3.7862,-3.9134,-4.0397,-4.0328,-4.0214,0.0,0.0,0.0,0.0,0.0,-4.1105,0.0,-4.4814,-4.6901,0.0,0.0,0.0,0.0,0.0,0.0,0.0,0.0,0.0,0.0,0.0,0.0,0.0,-5.0366,-4.919,-4.8166,-4.7385,-4.7163,-4.658,-4.5622,-4.5508,-4.6118,-4.7428,-4.6413,-4.6051,-4.6196,-4.5399,-4.5019,-4.5055,-4.587,-4.6341,-4.6558,-4.7174,-4.7536,-4.7681,-4.75,-4.7047,-4.6522,-4.6721,-4.6667,-4.6481,-4.6291,-4.6108,-4.5771,-4.5047,-4.5069,-4.5197,-4.4569,-4.4184,-4.391,-4.3747,-4.3658,-4.3598,-4.3598,-4.3598,-4.3598,-4.3598,-4.3598,-4.3598,-4.3598,-4.3598,-4.3265,-4.2205,-4.1722,-4.116,-4.0076,-3.961,-3.9364,-3.92,-3.8871,-3.8512,-3.8197,-3.802,-3.7452,-3.6315,-3.616,-3.5668,-3.4501,-3.4414,-3.3908,-3.2698,-3.1709,-3.1119,-3.0932,-3.0203,-2.9792,-2.9792,-2.9792,-2.9792,-2.9792,-2.9792,-2.9792,-2.9792,-2.9792,-2.9792,-3.5704,-3.6382,-3.7049,-3.6864,-3.88,-4.0887,-4.1368,-4.147,0.0,-4.2101,0.0,0.0,0.0,-4.1697,-4.3253,-4.6471,0.0,0.0,0.0,0.0,0.0,0.0,0.0,0.0,0.0,0.0,0.0,0.0,0.0,0.0,-4.9947,-4.8103,-4.7375,-4.8093,-4.7096,-4.6364,-4.597,-4.5882,-4.6101,-4.6576,-4.5001,-4.4657,-4.5363,-4.4548,-4.4186,-4.4222,-4.5037,-4.5816,-4.6504,-4.6558,-4.7029,-4.7645,-4.6884,-4.6558,-4.6595,-4.7355,-4.7156,-4.6613,-4.7313,-4.7057,-4.6467,-4.6655,-4.6418,-4.5943,-4.5381,-4.468,-4.4068,-4.4068,-4.3835,-4.3598,-4.3598,-4.3598,-4.3598,-4.3598,-4.3598,-4.3598,-4.3598,-4.3598,-4.3568,-4.3462,-4.238,-4.1459,-4.136,-4.0285,-3.92,-3.8556,-3.896,-3.8886,-3.7644,-3.7893,-3.7857,-3.7089,-3.6251,-3.5375,-3.4472,-3.4414,-3.4346,-3.423,-3.284,-3.1673,-3.0932,-3.0203,-2.9792,-2.9792,-2.9792,-2.9792,-2.9792,-2.9792,-2.9792,-2.9792,-2.9792,-2.9792,-3.5615,-3.6411,-3.7036,-3.6927,-3.8893,-4.0831,-4.0696,-4.1542,-4.2221,-4.1762,-4.289,0.0,0.0,0.0,-4.4461,-4.6221,0.0,0.0,0.0,0.0,0.0,0.0,0.0,0.0,0.0,0.0,0.0,0.0,0.0,0.0,-4.8511,-4.7833,-4.7245,-4.6783,-4.6384,-4.5781,-4.4948,-4.4835,-4.5115,-4.5744,-4.4618,-4.4258,-4.453,-4.3715,-4.3335,-4.3389,-4.4186,-4.4729,-4.5037,-4.5544,-4.5924,-4.6124,-4.5327,-4.5617,-4.6486,-4.6287,-4.6341,-4.6631,-4.7428,-4.7174,-4.653,-4.6816,-4.6753,-4.643,-4.5459,-4.4947,-4.4625,-4.4224,-4.3939,-4.3763,-4.3628,-4.3598,-4.3598,-4.3598,-4.3598,-4.3598,-4.3598,-4.3598,-4.3462,-4.3066,-4.2554,-4.2061,-4.1591,-4.0362,-3.9512,-3.9699,-3.8827,-3.8138,-3.8033,-3.8082,-3.7723,-3.6669,-3.5682,-3.5054,-3.5029,-3.4646,-3.4414,-3.4414,-3.3381,-3.2648,-3.2349,-3.1613,-3.0996,-3.0482,-3.0482,-3.0279,-2.9792,-2.9792,-2.9792,-2.9792,-2.9792,-2.9792,-3.4919,-3.5622,-3.6254,-3.6207,-3.8346,0.0,-4.0236,-4.1589,-4.2813,-4.2544,-4.362,-4.4501,-4.4151,0.0,0.0,0.0,0.0,0.0,0.0,0.0,0.0,0.0,0.0,0.0,0.0,0.0,0.0,0.0,0.0,0.0,0.0,-4.7258,-4.6733,-4.6108,-4.588,-4.5344,-4.4471,-4.435,-4.4514,-4.4976,-4.4385,-4.4181,-4.4326,-4.3339,-4.2919,-4.2993,-4.3499,-4.386,-4.4132,-4.4693,-4.491,-4.4892,-4.4584,-4.5001,-4.5707,-4.5417,-4.5653,-4.6196,-4.6757,-4.6576,-4.6189,-4.6629,-4.6664,-4.641,-4.583,-4.5407,-4.5001,-4.4558,-4.4212,-4.391,-4.3747,-4.3658,-4.3598,-4.3598,-4.3598,-4.3598,-4.3598,-4.3598,-4.3462,-4.3005,-4.2741,-4.2443,-4.1917,-4.0901,-4.0132,-4.0192,-3.8964,-3.8008,-3.7813,-3.7868,-3.7431,-3.6312,-3.5333,-3.4873,-3.5175,-3.4695,-3.4414,-3.4414,-3.3894,-3.3451,-3.3213,-3.2506,-3.1856,-3.1304,-3.1267,-3.102,-3.0545,-3.0545,-3.0394,-3.0139,-3.0139,-3.0037,-3.3526,-3.3895,-3.4501,-3.4444,0.0,0.0,-4.0265,-4.1813,-4.3541,-4.4995,-4.4609,-4.4223,-4.4954,-4.5103,0.0,-4.7334,0.0,0.0,0.0,0.0,0.0,0.0,0.0,0.0,0.0,0.0,0.0,0.0,0.0,0.0,0.0,-4.6194,-4.564,-4.6462,-4.5698,-4.5132,-4.48,-4.4745,-4.4559,-4.4303,-4.418,-4.4364,-4.4858,-4.3506,-4.2994,-4.3104,-4.2957,-4.3354,-4.4077,-4.4077,-4.4077,-4.4168,-4.4965,-4.4784,-4.4186,-4.4983,-4.5291,-4.5291,-4.5291,-4.5291,-4.5417,-4.6232,-4.6118,-4.5833,-4.6641,-4.6032,-4.5091,-4.5091,-4.4625,-4.4068,-4.3939,-4.3763,-4.3598,-4.3598,-4.3598,-4.3598,-4.3598,-4.3598,-4.3598,-4.3598,-4.3066,-4.2617,-4.2617,-4.1981,-4.1058,-3.9738,-3.9511,-3.8766,-3.6772,-3.703,-3.7097,-3.6301,-3.5433,-3.4835,-3.4712,-3.4515,-3.4414,-3.4414,-3.4414,-3.4045,-3.3248,-3.2506,-3.211,-3.211,-3.211,-3.211,-3.211,-3.211,-3.1673,-3.0932,-3.0932,-3.052,-3.421,-3.4736,-3.5481,-3.6012,0.0,0.0,0.0,-4.2709,0.0,0.0,-4.5158,-4.4789,-4.4404,0.0,0.0,0.0,0.0,0.0,0.0,0.0,0.0,0.0,0.0,0.0,0.0,0.0,0.0,0.0,0.0,0.0,0.0,-4.436,-4.4484,-4.4732,-4.5105,-4.5246,-4.5143,-4.5121,-4.5076,-4.5007,-4.4676,-4.4449,-4.4324,-4.3718,-4.3475,-4.3511,-4.3232,-4.3214,-4.3393,-4.33,-4.3263,-4.3262,-4.3516,-4.3806,-4.4132,-4.4367,-4.4458,-4.453,-4.5091,-4.4928,-4.4584,-4.5399,-4.5554,-4.5387,-4.5243,-4.5088,-4.4873,-4.4492,-4.431,-4.4078,-4.3432,-4.3556,-4.3763,-4.3628,-4.3598,-4.3598,-4.3598,-4.3598,-4.3598,-4.3598,-4.3432,-4.3295,-4.3295,-4.2335,-4.161,-4.1678,-4.0423,-3.9271,-3.8632,-3.7509,-3.6963,-3.7486,-3.6081,-3.5226,-3.5516,-3.498,-3.4597,-3.4597,-3.4481,-3.4298,-3.4045,-3.3825,-3.3465,-3.2861,-3.2861,-3.2613,-3.211,-3.211,-3.1965,-3.1746,-3.1746,-3.1649,-3.3397,-3.4226,0.0,-3.6498,-3.8933,-4.1331,-4.2433,0.0,0.0,0.0,-4.5359,-4.5144,-4.4609,-4.5602,0.0,0.0,0.0,0.0,0.0,0.0,0.0,0.0,0.0,0.0,0.0,0.0,0.0,0.0,0.0,0.0,0.0,-4.3911,-4.4006,-4.4006,-4.4208,-4.4456,-4.4781,-4.4781,-4.4953,-4.5297,-4.5045,-4.4807,-4.4553,-4.3974,-4.3644,-4.3563,-4.3286,-4.3142,-4.3086,-4.2975,-4.2901,-4.2901,-4.2901,-4.3209,-4.3607,-4.3607,-4.3607,-4.3679,-4.4168,-4.4023,-4.3751,-4.4548,-4.482,-4.4834,-4.4821,-4.4769,-4.4624,-4.4122,-4.3881,-4.3681,-4.3205,-4.3299,-4.3477,-4.321,-4.3383,-4.3598,-4.3598,-4.3598,-4.3598,-4.3598,-4.3598,-4.3598,-4.3598,-4.2933,-4.2339,-4.221,-4.0165,-3.8549,-3.8302,-3.6985,-3.6354,-3.7009,-3.596,-3.5311,-3.5596,-3.5052,-3.4698,-3.4698,-3.4515,-3.4414,-3.4414,-3.4414,-3.4147,-3.3707,-3.3673,-3.3451,-3.303,-3.303,-3.284,-3.2541,-3.2541,-3.2362,-3.1851,-3.3034,-3.4706,-3.6308,-3.929,0.0,-4.3922,-4.4824,-4.5288,-4.5203,0.0,-4.5354,-4.5201,-4.5908,0.0,0.0,0.0,0.0,0.0,0.0,0.0,0.0,0.0,0.0,0.0,0.0,0.0,0.0,0.0,0.0,0.0,-4.4169,-4.3777,-4.3777,-4.3138,-4.3157,-4.3873,-4.3892,-4.4303,-4.5078,-4.5078,-4.5067,-4.4995,-4.4152,-4.3629,-4.3412,-4.3215,-4.3123,-4.3123,-4.2975,-4.292,-4.2919,-4.2919,-4.2901,-4.2901,-4.2901,-4.2901,-4.2901,-4.2901,-4.2901,-4.3028,-4.3751,-4.3987,-4.4132,-4.4856,-4.4749,-4.4337,-4.3943,-4.3537,-4.3193,-4.3261,-4.3222,-4.3071,-4.2567,-4.3048,-4.3598,-4.3598,-4.3598,-4.3598,-4.3598,-4.3549,-4.3499,-4.3499,-4.3433,-4.296,-4.1689,-3.9266,-3.7396,-3.6827,-3.6082,-3.5584,-3.5594,-3.5356,-3.5213,-3.5213,-3.4916,-3.4731,-3.4731,-3.4563,-3.4414,-3.4414,-3.4414,-3.4414,-3.4414,-3.4414,-3.4414,-3.4414,-3.4414,-3.4031,-3.3297,-3.3297,-3.2946,-3.2817,-3.394,0.0,-3.721,-4.0112,-4.3005,-4.4679,-4.5194,-4.5147,-4.4566,-4.5398,-4.5851,-4.4522,-4.5507,0.0,0.0,0.0,0.0,0.0,0.0,0.0,0.0,0.0,0.0,0.0,0.0,0.0,0.0,0.0,0.0,-4.1399,-4.18,-4.203,-4.203,-4.2526,-4.2889,-4.3061,-4.3061,-4.3157,0.0,-4.3348,-4.3198,-4.2963,-4.385,-4.3962,-4.348,-4.3376,-4.3341,-4.3323,-4.3196,-4.3105,-4.3049,-4.3049,-4.2994,-4.2901,-4.2901,-4.2901,-4.2901,-4.2901,-4.2901,-4.2937,-4.31,-4.3173,-4.3191,-4.3372,-4.3472,-4.3668,-4.4205,-4.4424,-4.4408,-4.3924,-4.4236,-4.4218,-4.2462,-4.2829,-4.3598,-4.3598,-4.3598,-4.3598,-4.3598,-4.3118,-4.2738,-4.2738,-4.2258,-4.1791,-4.1543,-4.0077,-3.8945,-3.8859,-3.7298,-3.6219,-3.6274,-3.5786,-3.5439,-3.5439,-3.5082,-3.4902,-3.5082,-3.4798,-3.4631,-3.4631,-3.4481,-3.4414,-3.4414,-3.4414,-3.4414,-3.4414,-3.4414,-3.4298,-3.4147,-3.4147,-3.4045,-3.2417,0.0,0.0,-3.901,0.0,-4.3023,-4.3902,-4.4093,-4.398,-4.3618,-4.4488,-4.5038,-4.4159,0.0,0.0,0.0,0.0,0.0,0.0,0.0,0.0,0.0,0.0,0.0,0.0,0.0,0.0,0.0,0.0,-4.1094,-4.1476,-4.1495,-4.1495,-4.1495,-4.1571,-4.18,-4.2163,-4.2183,-4.2393,-4.2794,-4.2374,-4.2023,-4.1753,-4.2742,-4.3177,-4.3107,-4.3045,-4.3166,-4.3394,-4.3251,-4.3178,-4.3142,-4.3123,-4.3049,-4.2994,-4.2919,-4.2901,-4.2901,-4.2901,-4.2901,-4.2901,-4.2901,-4.2901,-4.2901,-4.2901,-4.3,-4.314,-4.3346,-4.3788,-4.4059,-4.3478,-4.3672,-4.376,-4.2589,-4.3105,-4.3735,-4.3281,-4.3468,-4.3617,-4.3164,-4.2754,-4.2373,-4.2026,-4.1645,-4.1296,-4.1024,-4.0089,-3.9315,-3.9014,-3.7748,-3.677,-3.6476,-3.6139,-3.5829,-3.5537,-3.5213,-3.5082,-3.518,-3.4949,-3.4783,-3.4783,-3.4716,-3.4568,-3.4414,-3.4414,-3.4414,-3.4414,-3.4414,-3.4414,-3.4414,-3.4414,-3.4254,-3.1638,0.0,-3.7141,-4.029,-4.1724,0.0,-4.2737,-4.2794,-4.2794,-4.2794,-4.3329,-4.3739,0.0,0.0,0.0,0.0,0.0,0.0,0.0,0.0,0.0,0.0,0.0,0.0,0.0,0.0,0.0,0.0,0.0,-4.0692,-4.2068,-4.1457,-4.1074,-4.1074,-4.0578,-4.0559,-4.1055,-4.1208,-4.1648,-4.2354,-4.1648,-4.1186,-4.0975,-4.1429,-4.205,-4.2768,-4.265,-4.2943,-4.3498,-4.3322,-4.3232,-4.3233,-4.316,-4.3141,-4.3105,-4.2994,-4.2957,-4.2938,-4.2938,-4.2919,-4.2901,-4.2901,-4.2901,-4.2901,-4.2901,-4.2901,-4.2861,-4.26,-4.3107,-4.359,-4.2964,-4.303,-4.3149,-4.2638,-4.3159,-4.3573,-4.2722,-4.3177,-4.3452,-4.2543,-4.2237,-4.1905,-4.1177,-4.1044,-4.0908,-4.0473,-3.9829,-3.9176,-3.8624,-3.7902,-3.7131,-3.6461,-3.6305,-3.6053,-3.5537,-3.5326,-3.5213,-3.5261,-3.5082,-3.4935,-3.4935,-3.4935,-3.4802,-3.4481,-3.4448,-3.4414,-3.4414,-3.4414,-3.4414,-3.4414,-3.4414,-3.4124,-3.1584,0.0,-3.6167,0.0,-3.9986,-4.1008,0.0,0.0,-4.2794,0.0,-4.2889,0.0,0.0,0.0,0.0,0.0,0.0,0.0,0.0,0.0,0.0,0.0,0.0,0.0,0.0,0.0,0.0,0.0,-3.9298,-3.9279,-3.9508,-3.9393,-3.9336,-3.9336,-3.9957,-3.9976,-3.9336,-4.0081,-4.0511,-4.0626,-4.0511,-4.0444,-4.0406,-4.0472,-4.1454,-4.3034,-4.2798,-4.3163,-4.3894,-4.3582,-4.3428,-4.3358,-4.3376,-4.3287,-4.3178,-4.3178,-4.3123,-4.3068,-4.3068,-4.2994,-4.2901,-4.2901,-4.2901,-4.2901,-4.2901,-4.2901,-4.3027,-4.3675,-4.4433,-4.4847,-4.3888,-4.4167,-4.4147,-4.1938,-4.1982,-4.2439,-4.2082,-4.25,-4.2715,-4.1943,-4.1194,-4.0459,-3.9713,-3.958,-3.9785,-4.0332,-3.9759,-3.9303,-3.9253,-3.8182,-3.7131,-3.6461,-3.5941,-3.5587,-3.5504,-3.5326,-3.5261,-3.5439,-3.5261,-3.5148,-3.5148,-3.5148,-3.5049,-3.4835,-3.4716,-3.4563,-3.4414,-3.4414,-3.4414,-3.4414,-3.4414,-3.437,-3.2826,-3.3544,-3.4537,0.0,-3.8228,-3.9049,-3.9775,0.0,-4.1266,-4.0769,0.0,0.0,0.0,0.0,0.0,0.0,0.0,0.0,0.0,0.0,0.0,0.0,0.0,0.0,0.0,0.0,0.0,0.0,-3.7846,-3.8009,-3.8954,-3.9011,-3.9011,-3.9011,-3.9374,-3.9393,-3.9011,-3.9374,-3.9565,-3.9584,-4.0072,-4.0034,-3.9603,-4.0072,-4.0904,-4.197,-4.1844,-4.22,-4.2799,-4.2505,-4.2366,-4.2357,-4.262,-4.2682,-4.2702,-4.3068,-4.316,-4.3104,-4.3104,-4.3012,-4.2901,-4.2901,-4.2901,-4.2901,-4.2901,-4.2901,-4.2973,-4.3317,-4.4005,-4.4433,-4.3524,-4.3714,-4.3623,-4.1788,-4.1724,-4.1861,-4.1075,-4.1624,-4.2033,-4.115,-4.032,-3.968,-3.9365,-3.9647,-3.9895,-3.9812,-3.9862,-3.977,-3.9391,-3.883,-3.8197,-3.7531,-3.692,-3.6399,-3.6022,-3.5604,-3.5407,-3.5504,-3.5439,-3.5359,-3.5359,-3.5359,-3.5261,-3.5082,-3.4831,-3.4664,-3.4563,-3.4448,-3.4414,-3.4414,-3.4414,-3.4225,0.0,0.0,-3.3307,-3.5109,-3.634,-3.7162,0.0,0.0,-3.9221,0.0,0.0,0.0,0.0,0.0,0.0,0.0,0.0,0.0,0.0,0.0,0.0,0.0,0.0,0.0,0.0,0.0,0.0,0.0,-3.6509,-3.6806,-3.8285,-3.8362,-3.8362,-3.8362,-3.8553,-3.8667,-3.8667,-3.9107,-3.9336,-3.9336,-3.9995,-3.9957,-3.9355,-3.9995,-4.0519,-4.0894,-4.1037,-4.1439,-4.1982,-4.1698,-4.1603,-4.1634,-4.1899,-4.2156,-4.2378,-4.281,-4.3032,-4.3141,-4.3141,-4.3031,-4.2901,-4.2901,-4.2901,-4.2901,-4.2901,-4.2901,-4.2901,-4.2901,-4.3462,-4.3895,-4.2967,-4.305,-4.3074,-4.1807,-4.1649,-4.1526,-4.0535,-4.0867,-4.1103,-4.0309,-3.9707,-3.9299,-3.9299,-3.9763,-3.9928,-3.9381,-3.9779,-3.9928,-3.9381,-3.9148,-3.8843,-3.8351,-3.7764,-3.7191,-3.6692,-3.6227,-3.591,-3.5733,-3.5733,-3.5651,-3.5504,-3.5504,-3.5439,-3.5294,-3.4997,-3.4798,-3.475,-3.4563,-3.4481,-3.4481,-3.4414,-3.4167,0.0,-3.1903,0.0,-3.3019,-3.4278,0.0,0.0,0.0,0.0,0.0,0.0,0.0,0.0,0.0,0.0,0.0,0.0,0.0,0.0,0.0,0.0,0.0,0.0,0.0,0.0,0.0,0.0,0.0,-3.5286,-3.566,-3.6576,-3.6634,-3.6634,-3.6634,-3.7368,-3.7769,-3.7769,-3.9412,-4.0225,-4.0225,-4.0282,-4.0282,-4.0225,-4.0282,-4.032,-4.0368,-4.0886,-4.1544,-4.226,-4.1995,-4.1876,-4.1868,-4.163,-4.2013,-4.2653,-4.2423,-4.2699,-4.3178,-4.3178,-4.3068,-4.2901,-4.2901,-4.2901,-4.2901,-4.2901,-4.2901,-4.2901,-4.2901,-4.3462,-4.3818,-4.2555,-4.2825,-4.3074,-4.1807,-4.1516,-4.1429,-4.1044,-4.0361,-3.9768,-3.9578,-3.9412,-3.9299,-3.9299,-3.9332,-3.9348,-3.9315,-3.9332,-3.9348,-3.9299,-3.8745,-3.8351,-3.8306,-3.7764,-3.7399,-3.734,-3.731,-3.7041,-3.6399,-3.6337,-3.6116,-3.5537,-3.5504,-3.5504,-3.5472,-3.5294,-3.5082,-3.4902,-3.475,-3.4664,-3.4664,-3.4481,-3.4385,0.0,0.0,0.0,-3.2058,-3.2976,-3.3859,-3.4133,-3.4986,0.0,0.0,0.0,0.0,0.0,0.0,0.0,0.0,0.0,0.0,0.0,0.0,0.0,0.0,0.0,0.0,0.0,0.0,0.0,0.0,0.0,-3.5144,-3.6492,-3.7094,-3.7357,-3.7273,-3.754,-3.7445,-3.692,-3.8056,-3.8629,-3.8629,-3.8629,-3.8629,-3.8629,-3.8629,-3.8935,-3.948,-3.9662,-4.0223,-4.1013,-4.0719,-4.0615,-4.0618,-4.0714,-4.1208,-4.1961,-4.22,-4.2733,-4.3323,-4.3323,-4.3196,-4.303,-4.303,-4.2975,-4.2901,-4.2901,-4.2901,-4.2901,-4.2901,-4.3118,-4.3225,-4.2764,-4.2869,-4.2897,-4.2127,-4.1717,-4.1373,-4.0954,-4.0315,-3.9755,-3.9537,-3.9475,-3.9405,-3.9299,-3.9299,-3.9299,-3.9299,-3.9299,-3.9299,-3.9299,-3.9077,-3.8925,-3.8925,-3.8367,-3.7966,-3.7966,-3.7618,-3.731,-3.7041,-3.7041,-3.6753,-3.6116,-3.6085,-3.591,-3.5504,-3.5439,-3.5294,-3.5082,-3.4902,-3.4629,-3.4265,-3.4185,-3.3835,-3.0678,0.0,0.0,0.0,0.0,-3.2622,-3.2873,0.0,0.0,0.0,0.0,0.0,0.0,0.0,0.0,0.0,0.0,0.0,0.0,0.0,0.0,0.0,0.0,0.0,0.0,0.0,0.0,0.0,0.0,0.0,-3.6159,-3.7051,-3.7487,-3.7368,-3.7318,-3.7043,-3.6519,-3.7597,-3.8132,-3.8132,-3.8132,-3.8132,-3.8132,-3.7827,-3.8018,-3.8572,-3.8877,-3.9489,-4.0291,-4.0108,-4.0027,-4.0024,-4.002,-4.0523,-4.1291,-4.1733,-4.2347,-4.3028,-4.3303,-4.3269,-4.3123,-4.3123,-4.3068,-4.2994,-4.2975,-4.2975,-4.2957,-4.2901,-4.2901,-4.2901,-4.2901,-4.2901,-4.2825,-4.2498,-4.2095,-4.1609,-4.1139,-4.0563,-4.002,-3.9642,-3.9511,-3.9475,-3.9325,-3.9299,-3.9299,-3.9299,-3.9299,-3.9299,-3.9299,-3.9299,-3.9299,-3.9299,-3.8898,-3.8645,-3.8645,-3.8282,-3.7953,-3.7722,-3.7706,-3.7413,-3.6753,-3.6753,-3.6554,-3.6148,-3.5714,-3.5403,-3.526,-3.4857,-3.4472,-3.4058,-3.3773,-3.3321,0.0,0.0,0.0,0.0,0.0,0.0,-3.2807,0.0,0.0,0.0,0.0,0.0,0.0,0.0,0.0,0.0,0.0,0.0,0.0,0.0,0.0,0.0,0.0,0.0,0.0,0.0,0.0,0.0,-3.3695,-3.455,-3.5424,-3.6331,-3.6826,-3.6786,-3.6621,-3.6528,-3.6509,-3.8113,-3.8916,-3.8897,-3.8897,-3.8897,-3.8858,-3.8018,-3.7655,-3.775,-3.8591,-3.947,-4.0301,-4.0301,-4.0301,-4.0244,-3.9717,-3.999,-4.0744,-4.1018,-4.1576,-4.2332,-4.3137,-4.3323,-4.3214,-4.3214,-4.3196,-4.3196,-4.3105,-4.3104,-4.3068,-4.2938,-4.2901,-4.2901,-4.2901,-4.2901,-4.2901,-4.2901,-4.2537,-4.2095,-4.1613,-4.1053,-4.0473,-3.9816,-3.9616,-3.9475,-3.9325,-3.9299,-3.9299,-3.9299,-3.9299,-3.9299,-3.9299,-3.9299,-3.9299,-3.9299,-3.9299,-3.9299,-3.9299,-3.9299,-3.9023,-3.8379,-3.8351,-3.8051,-3.7458,-3.7429,-3.7429,-3.7399,-3.6114,-3.5444,-3.5428,-3.4585,-3.4159,-3.4129,-3.3334,-3.2851,-3.0808,0.0,0.0,0.0,0.0,0.0,0.0,0.0,0.0,0.0,0.0,0.0,0.0,0.0,0.0,0.0,0.0,0.0,0.0,0.0,0.0,0.0,0.0,0.0,0.0,0.0,0.0,0.0,-3.2745,-3.3893,-3.4662,-3.663,-3.7996,-3.8567,-3.7893,-3.7229,-3.6642,-3.7018,-3.6882,-3.626,-3.626,-3.626,-3.6241,-3.6012,-3.6547,-3.7712,-3.7941,-3.8916,-4.0301,-4.0301,-4.0301,-4.0282,-3.9914,-4.0272,-4.1021,-4.1277,-4.189,-4.2657,-4.3255,-4.3429,-4.334,-4.334,-4.3269,-4.3196,-4.3178,-4.3142,-4.3086,-4.3067,-4.2975,-4.2901,-4.2901,-4.2901,-4.2901,-4.2901,-4.2806,-4.2595,-4.2115,-4.1867,-4.137,-4.0079,-3.9824,-3.9746,-3.9599,-3.9511,-3.9432,-3.9432,-3.9352,-3.9299,-3.9299,-3.9299,-3.9299,-3.9299,-3.9299,-3.9299,-3.9299,-3.9299,-3.9202,-3.905,-3.9023,-3.8717,-3.808,-3.8051,-3.7867,-3.7399,-3.6515,-3.6052,-3.6052,-3.444,-3.3453,-3.2945,-3.2139,-3.1693,0.0,0.0,0.0,0.0,0.0,0.0,-3.1863,-3.1252,0.0,0.0,0.0,0.0,0.0,0.0,0.0,0.0,0.0,0.0,0.0,0.0,0.0,0.0,0.0,0.0,0.0,-3.1001,-3.0801,-3.0801,-3.2344,-3.4131,-3.6017,-3.7075,-3.8186,-3.9392,-3.8511,-3.7604,-3.6753,-3.7002,-3.6485,-3.5258,-3.5602,-3.5594,-3.5234,-3.5231,-3.5758,-3.668,-3.705,-3.7978,-3.924,-3.9623,-3.9957,-4.0263,-4.0007,-4.0195,-4.064,-4.1017,-4.1675,-4.2447,-4.2982,-4.3389,-4.3617,-4.3498,-4.3393,-4.3304,-4.3233,-4.316,-4.3123,-4.3049,-4.2957,-4.2901,-4.2901,-4.2901,-4.2901,-4.2901,-4.2901,-4.2768,-4.23,-4.2198,-4.1803,-4.0441,-4.0204,-4.0079,-3.9755,-3.9642,-3.959,-3.959,-3.9511,-3.9458,-3.9379,-3.9379,-3.9352,-3.9299,-3.9299,-3.9299,-3.9299,-3.9299,-3.9183,-3.8858,-3.8825,-3.8543,-3.7834,-3.779,-3.7628,-3.7282,-3.6313,-3.5526,-3.5003,-3.4202,-3.3443,-3.2782,-3.2004,-3.161,0.0,0.0,0.0,0.0,0.0,0.0,-3.2087,-3.1398,-3.0734,0.0,0.0,0.0,0.0,0.0,0.0,0.0,0.0,0.0,0.0,0.0,0.0,0.0,0.0,0.0,-3.1872,-3.125,-3.0808,-3.0808,-3.2367,-3.4742,-3.8032,-3.7559,-3.7922,-3.9564,-3.8883,-3.8044,-3.7119,-3.7803,-3.7294,-3.5606,-3.6282,-3.6193,-3.5446,-3.5343,-3.5319,-3.54,-3.6149,-3.6971,-3.7769,-3.8648,-3.9508,-4.0282,-4.0027,-3.9935,-3.9998,-4.0552,-4.1198,-4.1886,-4.2429,-4.3125,-4.3726,-4.3422,-4.3289,-4.3256,-4.3175,-4.3122,-4.3069,-4.2939,-4.2901,-4.2901,-4.2901,-4.2901,-4.2901,-4.2901,-4.2901,-4.2787,-4.2378,-4.2297,-4.1973,-4.0961,-4.0744,-4.0521,-3.9927,-3.9816,-3.9764,-3.9729,-3.9703,-3.9668,-3.9537,-3.9528,-3.9432,-3.9325,-3.9299,-3.9299,-3.9299,-3.9299,-3.9,-3.8261,-3.8186,-3.788,-3.7135,-3.7102,-3.7102,-3.7102,-3.5845,-3.4594,-3.3381,-3.3857,-3.3787,-3.3182,-3.2528,-3.2213,0.0,0.0,0.0,0.0,0.0,0.0,-3.3108,-3.2423,-3.1787,0.0,0.0,0.0,0.0,0.0,0.0,0.0,0.0,0.0,0.0,0.0,0.0,0.0,0.0,0.0,-3.1031,-3.0891,-3.0792,-3.0792,-3.2399,-3.4272,-3.6295,-3.7553,-3.866,-3.9653,-4.0128,-3.9954,-3.9062,-3.9056,-3.8517,-3.7475,-3.6879,-3.6508,-3.6315,-3.5626,-3.5651,-3.6252,-3.6432,-3.6956,-3.7769,-3.8648,-3.9508,-4.0301,-4.0244,-4.0225,-4.03,-4.0809,-4.1116,-4.1326,-4.1879,-4.2164,-4.2295,-4.2226,-4.2073,-4.1992,-4.2609,-4.2607,-4.2501,-4.2941,-4.2975,-4.2901,-4.2901,-4.2901,-4.2901,-4.2901,-4.2901,-4.2863,-4.2769,-4.275,-4.2595,-4.1994,-4.1569,-4.1185,-4.0683,-4.0514,-4.0294,-3.991,-3.9755,-3.9677,-3.9651,-3.9563,-3.9501,-3.9458,-3.9352,-3.9299,-3.9299,-3.9299,-3.9,-3.8261,-3.8186,-3.788,-3.7135,-3.7102,-3.7102,-3.7102,-3.6257,-3.5416,-3.4578,-3.3784,-3.3324,-3.3182,-3.305,-3.2933,0.0,0.0,0.0,-3.4042,0.0,0.0,0.0,-3.2028,-3.151,-3.1868,-3.1251,-3.0775,-3.1167,0.0,0.0,0.0,0.0,0.0,0.0,0.0,0.0,0.0,0.0,0.0,-3.08,-3.08,-3.0976,-3.1426,-3.1867,-3.3223,-3.5808,-3.6374,-3.7388,-3.9106,-3.9925,-3.9919,-3.9013,-3.9328,-3.8597,-3.6797,-3.6768,-3.6264,-3.5361,-3.5388,-3.5576,-3.5897,-3.594,-3.6383,-3.7135,-3.7575,-3.8246,-3.9088,-3.9957,-4.0301,-4.033,-4.0594,-4.0952,-4.132,-4.1458,-4.1769,-4.2077,-4.1942,-4.1814,-4.1735,-4.1935,-4.1758,-4.1718,-4.2832,-4.2795,-4.2486,-4.2903,-4.2938,-4.2901,-4.2901,-4.2592,-4.2303,-4.2303,-4.2303,-4.2228,-4.1999,-4.1767,-4.1428,-4.0897,-4.0538,-4.0262,-4.0037,-3.9935,-3.9884,-3.9807,-3.9746,-3.9642,-3.9511,-3.9448,-3.9219,-3.8775,-3.8742,-3.8278,-3.7168,-3.7102,-3.6771,-3.6025,-3.6009,-3.6009,-3.6009,-3.5644,-3.5263,-3.4899,-3.4341,-3.4036,-3.4036,-3.3758,-3.362,0.0,0.0,0.0,0.0,0.0,-3.3664,0.0,0.0,0.0,-3.1834,-3.1258,-3.085,0.0,0.0,0.0,0.0,0.0,0.0,0.0,0.0,0.0,0.0,0.0,0.0,0.0,-3.0898,-3.1094,-3.1797,-3.1348,-3.2284,-3.5094,-3.5057,-3.5916,-3.8025,-3.9214,-3.9435,-3.8678,-3.9527,-3.8847,-3.6649,-3.7166,-3.6621,-3.5168,-3.5733,-3.5846,-3.559,-3.5628,-3.586,-3.6285,-3.6457,-3.6892,-3.7634,-3.9374,-4.0053,-4.0072,-4.0244,-4.0711,-4.1237,-4.1024,-4.1377,-4.1886,-4.1662,-4.1625,-4.1611,-4.1208,-4.0972,-4.1098,-4.2393,-4.234,-4.2068,-4.2723,-4.2922,-4.2938,-4.2938,-4.2285,-4.1705,-4.1705,-4.1578,-4.1469,-4.1469,-4.1396,-4.1232,-4.0882,-4.041,-3.9983,-3.9804,-3.978,-3.9773,-3.9741,-3.959,-3.9454,-3.9373,-3.922,-3.8826,-3.814,-3.8065,-3.7484,-3.6116,-3.6033,-3.5702,-3.4932,-3.4899,-3.4899,-3.4899,-3.4899,-3.4899,-3.4899,-3.4899,-3.4899,-3.4899,-3.4448,-3.425,0.0,0.0,0.0,0.0,-3.5778,0.0,0.0,0.0,-3.2903,-3.2218,0.0,-3.081,-3.0908,0.0,0.0,0.0,0.0,0.0,0.0,0.0,0.0,0.0,0.0,0.0,0.0,-3.125,-3.0839,-3.0937,-3.1563,-3.2129,-3.2519,-3.4647,-3.5992,-3.6285,-3.857,-3.9759,-3.9639,-4.0454,-4.0695,-4.0386,-3.9637,-3.9156,-3.8864,-3.8141,-3.7372,-3.662,-3.6503,-3.6063,-3.5492,-3.6266,-3.6607,-3.6796,-3.8494,-3.9145,-3.924,-4.0014,-4.0358,-4.0435,-4.0406,-4.0454,-4.0511,-4.0482,-4.0643,-4.0782,-4.0509,-4.064,-4.0926,-4.1109,-4.1553,-4.2012,-4.2103,-4.2596,-4.3086,-4.3086,-4.2377,-4.1705,-4.1705,-4.1144,-4.0637,-4.0637,-4.0308,-4.0217,-4.0862,-4.0337,-3.957,-3.8801,-3.8683,-3.8785,-3.9071,-3.8426,-3.8176,-3.8824,-3.8196,-3.7703,-3.7594,-3.7577,-3.7177,-3.6246,-3.618,-3.5799,-3.4932,-3.4899,-3.4899,-3.4899,-3.4899,-3.4899,-3.4899,-3.4899,-3.4899,-3.4899,-3.4851,-3.4804,0.0,0.0,0.0,0.0,0.0,0.0,-3.4769,0.0,-3.3435,0.0,0.0,0.0,0.0,0.0,0.0,0.0,-3.089,0.0,0.0,0.0,0.0,0.0,0.0,0.0,0.0,0.0,0.0,0.0,-3.1133,-3.1797,-3.2792,-3.3904,-3.4958,-3.5973,-3.8024,-3.9099,-3.9099,-4.0409,-4.0777,-4.024,-3.9844,-3.9354,-3.879,-3.8399,-3.7718,-3.6847,-3.6806,-3.6234,-3.5383,-3.5748,-3.586,-3.5917,-3.7146,-3.8176,-3.9107,-3.9976,-3.9976,-3.9623,-4.011,-3.9957,-3.9642,-4.0129,-4.0275,-4.0297,-4.0666,-4.044,-4.0243,-4.1031,-4.1088,-4.096,-4.1224,-4.1849,-4.2268,-4.1724,-4.1289,-4.089,-4.0456,-4.0111,-3.9858,-3.9858,-3.9698,-3.9679,-4.0003,-3.9694,-3.9265,-3.8903,-3.8451,-3.83,-3.8642,-3.7979,-3.7664,-3.8108,-3.7833,-3.7407,-3.6891,-3.6785,-3.6402,-3.5604,-3.5483,-3.5278,-3.4916,-3.4899,-3.4899,-3.4899,-3.4899,-3.4899,-3.4899,-3.4899,-3.4899,-3.4899,-3.4899,-3.4899,-3.5806,0.0,0.0,0.0,0.0,0.0,0.0,0.0,0.0,0.0,0.0,0.0,0.0,0.0,-3.0938,0.0,0.0,-3.0938,0.0,0.0,0.0,0.0,0.0,0.0,0.0,0.0,0.0,0.0,0.0,-3.1464,-3.2967,-3.3279,-3.4099,-3.5602,-3.7321,-3.8357,-3.8591,-4.0036,-4.0512,-4.0072,-4.0072,-3.9722,-3.9071,-3.905,-3.8523,-3.7626,-3.7343,-3.6677,-3.5746,-3.5516,-3.5398,-3.54,-3.6289,-3.7335,-3.8473,-3.9563,-3.9707,-3.945,-4.008,-3.9899,-3.947,-4.0091,-4.0118,-4.0017,-4.0601,-4.0184,-3.9708,-4.0682,-4.0626,-4.0329,-4.0575,-4.1199,-4.1536,-4.0761,-4.04,-4.0075,-3.9531,-3.9224,-3.9078,-3.9078,-3.9078,-3.9078,-3.9078,-3.8954,-3.881,-3.8672,-3.8176,-3.7945,-3.8309,-3.769,-3.7344,-3.7752,-3.7505,-3.7066,-3.6432,-3.6172,-3.5813,-3.5255,-3.5088,-3.4911,-3.4712,-3.4712,-3.4595,-3.4379,-3.4373,-3.4449,-3.4648,-3.4625,-3.47,-3.4899,-3.4899,-3.4899,0.0,0.0,0.0,-3.5791,0.0,0.0,0.0,0.0,-3.4587,0.0,0.0,0.0,-3.2138,-3.1411,-3.0548,0.0,0.0,0.0,0.0,0.0,0.0,0.0,0.0,0.0,0.0,0.0,0.0,0.0,0.0,0.0,-3.2091,-3.2949,-3.3806,-3.4705,-3.6423,-3.775,-3.8591,-3.9429,-4.0249,-4.1069,-4.1069,-4.1049,-4.1007,-4.0939,-4.0408,-3.9465,-3.8473,-3.7533,-3.6596,-3.5827,-3.546,-3.5482,-3.6373,-3.6696,-3.6888,-3.8536,-3.9614,-4.0269,-4.0288,-4.0271,-4.0263,-4.0282,-4.0118,-3.9903,-3.9922,-3.9735,-3.9502,-3.9558,-4.0096,-4.0606,-4.0384,-4.0819,-4.1227,-4.0857,-4.0157,-3.9509,-3.9423,-3.879,-3.8245,-3.8245,-3.8245,-3.8245,-3.8245,-3.8229,-3.8075,-3.7631,-3.7541,-3.7623,-3.797,-3.7369,-3.7193,-3.7907,-3.6998,-3.6331,-3.6314,-3.5883,-3.5566,-3.5492,-3.5377,-3.4967,-3.4264,-3.4208,-3.3863,-3.3071,-3.2995,-3.3317,-3.4049,-3.3885,-3.4203,-3.4899,-3.4899,-3.4899,0.0,0.0,-3.5736,-3.5726,0.0,0.0,0.0,0.0,0.0,0.0,0.0,0.0,0.0,0.0,0.0,0.0,0.0,0.0,0.0,0.0,0.0,0.0,0.0,0.0,0.0,0.0,0.0,0.0,-3.0976,0.0,-3.2052,-3.2929,-3.3806,-3.4666,-3.6384,-3.7711,-3.8591,-3.939,-4.0249,-4.1109,-4.1109,-4.1109,-4.1109,-4.1076,-4.0557,-3.9623,-3.87,-3.7749,-3.6779,-3.5917,-3.5522,-3.5498,-3.5794,-3.6229,-3.6803,-3.7901,-3.8107,-3.7937,-3.8459,-3.899,-3.9527,-4.011,-4.0244,-4.0166,-4.0166,-4.0098,-3.9986,-3.9807,-3.9959,-4.0097,-3.9718,-4.0077,-4.034,-3.9642,-3.9516,-3.941,-3.88,-3.8457,-3.8241,-3.8209,-3.8209,-3.8209,-3.8209,-3.8209,-3.814,-3.8003,-3.7517,-3.7289,-3.7624,-3.6982,-3.6711,-3.7218,-3.6919,-3.6698,-3.6698,-3.646,-3.5958,-3.5091,-3.4992,-3.4496,-3.3444,-3.3411,-3.3294,-3.3009,-3.2934,-3.3267,-3.3999,-3.3875,-3.3922,-3.417,-3.417,-3.4419,-3.5704,-3.5704,0.0,-3.5697,-3.5696,0.0,-3.5752,0.0,0.0,0.0,0.0,0.0,0.0,0.0,0.0,0.0,0.0,0.0,0.0,-3.0798,0.0,0.0,0.0,0.0,0.0,0.0,0.0,-3.125,-3.0976,-3.1172,0.0,0.0,-3.3806,-3.4666,-3.6091,-3.7262,-3.8123,-3.8961,-3.98,-4.0639,-4.0953,-4.1109,-4.1109,-4.1109,-4.0758,-4.0103,-3.8915,-3.8015,-3.7312,-3.6115,-3.5604,-3.5564,-3.554,-3.5849,-3.6395,-3.7194,-3.7302,-3.7191,-3.7975,-3.8404,-3.877,-3.9908,-4.009,-3.99,-4.0205,-4.0301,-4.0206,-3.9707,-3.981,-3.9899,-3.922,-3.9539,-3.9856,-3.9138,-3.925,-3.9298,-3.8619,-3.8478,-3.8433,-3.8274,-3.8242,-3.8242,-3.8209,-3.8209,-3.8209,-3.8209,-3.7756,-3.751,-3.772,-3.729,-3.7077,-3.7323,-3.7208,-3.7055,-3.6919,-3.6701,-3.6087,-3.5015,-3.4793,-3.41,-3.2807,-3.2752,-3.2752,-3.2752,-3.2412,-3.2732,-3.3695,-3.3339,-3.3272,-3.3493,-3.3759,-3.4101]},{"header":{"parameterUnit":"m.s-1","parameterCategory":1,"la1":30.6,"la2":29.2853,"lo1":-89.7004,"lo2":-87.6739,"dy":0.0162,"dx":0.0183,"nx":112,"ny":82,"refTime":"2023-05-27T06:00:00:Z","depth":0,"parameterNumber":3,"parameterNumberName":"V-component_of_WINDS"},"data":[0.0,0.0,0.0,0.0,0.0,0.0,0.0,0.0,0.0,0.0,0.0,0.0,0.0,0.0,0.0,0.0,0.0,0.0,0.0,0.0,0.0,0.0,0.0,0.0,0.0,0.0,0.0,0.0,0.0,0.0,0.0,0.0,0.0,0.0,0.0,0.0,0.0,0.0,0.0,0.0,0.0,0.0,0.0,0.0,0.0,0.0,0.0,0.0,0.0,0.0,0.0,0.0,0.0,0.0,0.0,0.0,0.0,0.0,0.0,0.0,0.0,0.0,0.0,0.0,0.0,0.0,0.0,0.0,0.0,0.0,0.0,0.0,0.0,0.0,0.0,0.0,0.0,0.0,0.0,0.0,0.0,0.0,0.0,0.0,0.0,0.0,0.0,0.0,0.0,0.0,-3.1231,-3.5251,-4.0198,-4.2446,-4.0657,-4.0608,-3.7786,-3.1059,0.0,0.0,0.0,0.0,0.0,0.0,0.0,0.0,0.0,0.0,0.0,0.0,0.0,0.0,0.0,0.0,0.0,0.0,0.0,0.0,0.0,0.0,0.0,0.0,0.0,0.0,0.0,0.0,0.0,0.0,0.0,0.0,0.0,0.0,0.0,0.0,0.0,0.0,0.0,0.0,0.0,0.0,0.0,0.0,0.0,0.0,0.0,0.0,0.0,0.0,0.0,0.0,0.0,0.0,0.0,0.0,0.0,0.0,0.0,0.0,0.0,0.0,0.0,0.0,0.0,0.0,0.0,0.0,0.0,0.0,0.0,0.0,0.0,0.0,0.0,0.0,0.0,0.0,0.0,0.0,0.0,0.0,0.0,0.0,0.0,0.0,0.0,0.0,0.0,0.0,0.0,0.0,0.0,0.0,0.0,0.0,0.0,0.0,0.0,0.0,0.0,0.0,0.0,0.0,-3.3332,-3.939,-4.1402,-4.1911,-4.0988,-3.8756,-3.562,-3.1451,0.0,0.0,0.0,0.0,0.0,0.0,0.0,0.0,0.0,0.0,0.0,0.0,0.0,0.0,0.0,0.0,0.0,0.0,0.0,0.0,0.0,0.0,0.0,0.0,0.0,0.0,0.0,0.0,0.0,0.0,0.0,0.0,0.0,0.0,0.0,0.0,0.0,0.0,0.0,0.0,0.0,0.0,0.0,0.0,0.0,0.0,0.0,0.0,0.0,0.0,0.0,0.0,0.0,0.0,0.0,0.0,0.0,0.0,0.0,0.0,0.0,0.0,0.0,0.0,0.0,0.0,0.0,0.0,0.0,0.0,0.0,0.0,0.0,0.0,0.0,0.0,0.0,0.0,0.0,0.0,0.0,0.0,0.0,0.0,0.0,0.0,0.0,0.0,0.0,0.0,0.0,0.0,0.0,0.0,0.0,0.0,0.0,0.0,0.0,0.0,0.0,0.0,0.0,-3.1661,-3.484,-3.987,-4.1664,-4.1795,-3.9968,-3.8592,-3.5791,-3.1008,-3.1101,0.0,0.0,0.0,0.0,0.0,0.0,0.0,0.0,0.0,0.0,0.0,0.0,0.0,0.0,0.0,0.0,0.0,0.0,0.0,0.0,0.0,0.0,0.0,0.0,0.0,0.0,0.0,0.0,0.0,0.0,0.0,0.0,0.0,0.0,0.0,0.0,0.0,0.0,0.0,0.0,0.0,0.0,0.0,0.0,0.0,0.0,0.0,0.0,0.0,0.0,0.0,0.0,0.0,0.0,0.0,0.0,0.0,0.0,0.0,0.0,0.0,0.0,0.0,0.0,0.0,0.0,0.0,0.0,0.0,0.0,0.0,0.0,0.0,0.0,0.0,0.0,0.0,0.0,0.0,0.0,0.0,0.0,0.0,0.0,0.0,0.0,0.0,0.0,0.0,0.0,0.0,0.0,0.0,0.0,0.0,0.0,0.0,0.0,0.0,0.0,0.0,0.0,-3.3893,-3.631,-3.9691,-4.1431,-4.1352,-3.8907,-3.8074,-3.5535,-3.0451,-2.9814,0.0,0.0,0.0,0.0,0.0,0.0,0.0,0.0,0.0,0.0,0.0,0.0,0.0,0.0,0.0,0.0,0.0,0.0,0.0,0.0,0.0,0.0,0.0,0.0,0.0,0.0,0.0,0.0,0.0,0.0,0.0,0.0,0.0,0.0,0.0,0.0,0.0,0.0,0.0,0.0,0.0,0.0,0.0,0.0,0.0,0.0,0.0,0.0,0.0,0.0,0.0,0.0,0.0,0.0,0.0,0.0,0.0,0.0,0.0,0.0,0.0,0.0,0.0,0.0,0.0,0.0,0.0,0.0,0.0,0.0,0.0,0.0,0.0,0.0,0.0,0.0,0.0,0.0,0.0,0.0,0.0,0.0,0.0,0.0,0.0,0.0,0.0,0.0,0.0,0.0,0.0,0.0,0.0,0.0,0.0,0.0,0.0,0.0,0.0,0.0,0.0,0.0,-3.4991,-3.7954,-4.0218,-4.0575,-4.0056,-3.8549,-3.5957,-3.3145,-3.0097,-2.8616,0.0,0.0,0.0,0.0,0.0,0.0,0.0,0.0,0.0,0.0,0.0,0.0,0.0,0.0,0.0,0.0,0.0,0.0,0.0,0.0,0.0,0.0,0.0,0.0,0.0,0.0,0.0,0.0,0.0,0.0,0.0,0.0,0.0,0.0,0.0,0.0,0.0,0.0,0.0,0.0,0.0,0.0,0.0,0.0,0.0,0.0,0.0,0.0,0.0,0.0,0.0,0.0,0.0,0.0,0.0,0.0,0.0,0.0,0.0,0.0,0.0,0.0,0.0,0.0,0.0,0.0,0.0,0.0,0.0,0.0,0.0,0.0,0.0,0.0,0.0,0.0,0.0,0.0,0.0,0.0,0.0,0.0,0.0,0.0,0.0,0.0,0.0,0.0,0.0,0.0,0.0,0.0,0.0,0.0,0.0,0.0,0.0,0.0,0.0,0.0,0.0,0.0,-3.4052,-3.6805,0.0,-3.9978,-3.9735,-3.789,-3.6351,-3.3874,-3.0123,0.0,0.0,0.0,0.0,0.0,0.0,0.0,0.0,0.0,0.0,0.0,0.0,0.0,0.0,0.0,0.0,0.0,0.0,0.0,0.0,0.0,0.0,0.0,0.0,0.0,0.0,0.0,0.0,0.0,0.0,0.0,0.0,0.0,0.0,0.0,0.0,0.0,0.0,0.0,0.0,0.0,0.0,0.0,0.0,0.0,0.0,0.0,0.0,0.0,0.0,0.0,0.0,0.0,0.0,0.0,0.0,0.0,0.0,0.0,0.0,0.0,0.0,0.0,0.0,0.0,0.0,0.0,0.0,0.0,0.0,0.0,0.0,0.0,0.0,0.0,0.0,0.0,0.0,0.0,0.0,0.0,0.0,0.0,0.0,0.0,0.0,0.0,0.0,0.0,0.0,0.0,0.0,0.0,0.0,0.0,0.0,0.0,0.0,0.0,0.0,0.0,0.0,-3.0661,-3.3631,-3.627,0.0,-3.925,-3.9153,-3.7425,-3.5629,-3.3259,-3.0091,0.0,0.0,0.0,0.0,0.0,0.0,0.0,0.0,0.0,0.0,0.0,0.0,0.0,0.0,0.0,0.0,0.0,0.0,0.0,0.0,0.0,0.0,0.0,0.0,0.0,0.0,0.0,0.0,0.0,0.0,0.0,0.0,0.0,0.0,0.0,0.0,0.0,0.0,0.0,0.0,0.0,0.0,0.0,0.0,0.0,0.0,0.0,0.0,0.0,0.0,0.0,0.0,0.0,0.0,0.0,0.0,0.0,0.0,0.0,0.0,0.0,0.0,0.0,0.0,0.0,0.0,0.0,0.0,0.0,0.0,0.0,0.0,0.0,0.0,0.0,0.0,0.0,0.0,0.0,0.0,0.0,0.0,0.0,0.0,0.0,0.0,0.0,0.0,0.0,0.0,0.0,0.0,0.0,0.0,0.0,0.0,0.0,0.0,0.0,0.0,0.0,0.0,-3.071,-3.4027,-3.6821,-3.823,-3.8375,-3.8084,-3.7344,-3.3364,-3.0613,0.0,0.0,0.0,0.0,0.0,0.0,0.0,0.0,0.0,0.0,0.0,0.0,0.0,0.0,0.0,0.0,0.0,0.0,0.0,0.0,0.0,0.0,0.0,0.0,0.0,0.0,0.0,0.0,0.0,0.0,0.0,0.0,0.0,0.0,0.0,0.0,0.0,0.0,0.0,0.0,0.0,0.0,0.0,0.0,0.0,0.0,0.0,0.0,0.0,0.0,0.0,0.0,0.0,0.0,0.0,0.0,0.0,0.0,0.0,0.0,0.0,0.0,0.0,0.0,0.0,0.0,0.0,0.0,0.0,0.0,0.0,0.0,0.0,0.0,0.0,0.0,0.0,0.0,0.0,0.0,0.0,0.0,0.0,0.0,0.0,0.0,0.0,0.0,0.0,0.0,0.0,0.0,0.0,0.0,0.0,0.0,0.0,0.0,0.0,0.0,0.0,0.0,0.0,-3.0053,-3.2854,-3.5315,-3.6772,-3.6918,-3.6837,-3.6627,-3.3558,-3.117,-2.9983,0.0,0.0,0.0,0.0,0.0,0.0,0.0,0.0,0.0,0.0,0.0,0.0,0.0,0.0,0.0,0.0,0.0,0.0,0.0,0.0,0.0,0.0,0.0,0.0,0.0,0.0,0.0,0.0,0.0,0.0,0.0,0.0,0.0,0.0,0.0,0.0,0.0,0.0,0.0,0.0,0.0,0.0,0.0,0.0,0.0,0.0,0.0,0.0,0.0,0.0,0.0,0.0,0.0,0.0,0.0,0.0,0.0,0.0,0.0,0.0,0.0,0.0,0.0,0.0,0.0,0.0,0.0,0.0,0.0,0.0,0.0,0.0,0.0,0.0,0.0,0.0,0.0,0.0,0.0,0.0,0.0,0.0,0.0,0.0,0.0,0.0,0.0,0.0,0.0,0.0,0.0,0.0,0.0,0.0,0.0,0.0,0.0,0.0,0.0,0.0,0.0,0.0,-2.9767,-3.2133,-3.4262,-3.5704,-3.5849,-3.5849,-3.5849,-3.3226,-3.1089,-2.9961,0.0,0.0,0.0,0.0,0.0,0.0,0.0,0.0,0.0,0.0,0.0,0.0,0.0,0.0,0.0,0.0,0.0,0.0,0.0,0.0,0.0,0.0,0.0,0.0,0.0,0.0,0.0,0.0,0.0,0.0,0.0,0.0,0.0,0.0,0.0,0.0,0.0,0.0,0.0,0.0,0.0,0.0,0.0,0.0,0.0,0.0,0.0,0.0,0.0,0.0,0.0,0.0,0.0,0.0,0.0,0.0,0.0,0.0,0.0,0.0,0.0,0.0,0.0,0.0,0.0,0.0,0.0,0.0,0.0,0.0,0.0,0.0,0.0,0.0,0.0,0.0,0.0,0.0,0.0,0.0,0.0,0.0,0.0,0.0,0.0,0.0,0.0,0.0,0.0,0.0,0.0,0.0,0.0,0.0,0.0,0.0,0.0,0.0,0.0,0.0,0.0,0.0,-2.9718,-3.1711,-3.355,-3.5049,-3.5146,-3.513,-3.5195,-3.2562,-3.0597,-2.9907,0.0,0.0,0.0,0.0,0.0,0.0,0.0,0.0,0.0,0.0,0.0,0.0,0.0,0.0,0.0,0.0,0.0,0.0,0.0,0.0,0.0,0.0,0.0,0.0,0.0,0.0,0.0,0.0,0.0,0.0,0.0,0.0,0.0,0.0,0.0,0.0,0.0,0.0,0.0,0.0,0.0,0.0,0.0,0.0,0.0,0.0,0.0,0.0,0.0,0.0,0.0,0.0,0.0,0.0,0.0,0.0,0.0,0.0,0.0,0.0,-1.7748,0.0,0.0,0.0,0.0,0.0,0.0,0.0,0.0,0.0,0.0,0.0,0.0,0.0,0.0,0.0,0.0,0.0,0.0,0.0,0.0,0.0,0.0,0.0,0.0,0.0,0.0,0.0,0.0,0.0,0.0,0.0,0.0,0.0,0.0,0.0,0.0,0.0,0.0,0.0,0.0,0.0,-2.9783,-3.1267,-3.3,-3.5001,-3.4667,-3.4554,-3.5163,-3.2562,-3.0513,-2.963,-2.757,0.0,0.0,0.0,0.0,0.0,0.0,0.0,0.0,0.0,0.0,0.0,0.0,0.0,0.0,0.0,0.0,0.0,0.0,0.0,0.0,0.0,0.0,0.0,0.0,0.0,0.0,0.0,0.0,0.0,0.0,0.0,0.0,0.0,0.0,0.0,0.0,0.0,0.0,0.0,0.0,0.0,0.0,0.0,0.0,0.0,0.0,0.0,0.0,0.0,0.0,0.0,0.0,0.0,0.0,0.0,0.0,0.0,0.0,0.0,0.0,-1.8713,0.0,0.0,0.0,0.0,0.0,0.0,0.0,0.0,0.0,0.0,0.0,0.0,0.0,0.0,0.0,0.0,0.0,0.0,0.0,0.0,0.0,0.0,0.0,0.0,0.0,0.0,0.0,0.0,0.0,0.0,0.0,0.0,0.0,0.0,0.0,0.0,0.0,0.0,0.0,0.0,-2.9861,-3.106,-3.2433,-3.4114,-3.4047,-3.4008,-3.4274,-3.2606,-3.1031,-2.9869,-2.8112,0.0,0.0,0.0,0.0,0.0,0.0,0.0,0.0,0.0,0.0,0.0,0.0,0.0,0.0,0.0,0.0,0.0,0.0,0.0,0.0,0.0,0.0,0.0,0.0,0.0,0.0,0.0,0.0,0.0,0.0,0.0,0.0,0.0,0.0,0.0,0.0,0.0,0.0,0.0,0.0,0.0,0.0,0.0,0.0,0.0,0.0,0.0,0.0,0.0,0.0,0.0,0.0,0.0,-2.2051,-2.276,-2.3412,-2.3029,-2.2853,-2.276,-2.1203,-2.0332,-2.0,-1.9533,0.0,0.0,0.0,0.0,0.0,0.0,0.0,0.0,0.0,0.0,0.0,0.0,0.0,0.0,0.0,0.0,0.0,0.0,0.0,0.0,0.0,0.0,0.0,0.0,-2.8931,-2.8926,0.0,0.0,0.0,0.0,0.0,0.0,0.0,0.0,0.0,0.0,0.0,0.0,-2.9935,-3.1054,-3.2121,-3.3193,-3.3503,-3.3555,-3.3372,-3.2661,-3.1647,-3.037,-2.9002,-2.7924,0.0,0.0,0.0,0.0,0.0,0.0,0.0,0.0,0.0,0.0,0.0,0.0,0.0,0.0,0.0,0.0,0.0,0.0,0.0,0.0,0.0,0.0,0.0,0.0,0.0,0.0,0.0,0.0,0.0,0.0,0.0,0.0,-1.2171,-1.1847,0.0,0.0,0.0,0.0,0.0,0.0,0.0,0.0,0.0,0.0,0.0,0.0,0.0,-1.792,-1.9465,-2.0804,-2.191,-2.277,-2.4086,-2.459,-2.4321,-2.4259,-2.4228,-2.4197,-2.3608,0.0,-2.0897,-2.0431,0.0,0.0,0.0,0.0,0.0,0.0,0.0,0.0,0.0,0.0,0.0,0.0,0.0,0.0,0.0,0.0,0.0,0.0,0.0,0.0,0.0,0.0,-2.7089,-2.8265,-2.8817,-2.9191,0.0,-2.9469,-2.9356,-2.9279,-2.8913,0.0,0.0,0.0,0.0,0.0,0.0,0.0,-3.0061,-3.1286,-3.2408,-3.323,-3.3319,-3.3424,-3.3617,-3.2748,-3.1877,-3.1105,-2.9901,-2.8725,-2.7676,-2.7413,0.0,0.0,0.0,0.0,0.0,0.0,0.0,0.0,0.0,0.0,0.0,0.0,0.0,0.0,0.0,0.0,0.0,0.0,0.0,0.0,0.0,0.0,0.0,0.0,0.0,0.0,0.0,0.0,0.0,-1.2923,-1.2997,-1.2792,-1.3085,-1.3272,0.0,0.0,0.0,0.0,0.0,0.0,0.0,0.0,0.0,-1.7532,-1.8715,-2.0088,-2.1637,-2.2511,-2.3764,-2.5435,-2.6084,-2.6527,-2.6827,-2.6512,-2.631,-2.6051,-2.5585,-2.4498,-2.2926,-2.1994,-2.1166,-2.0472,0.0,0.0,0.0,0.0,-2.1843,-2.1929,-2.4217,-2.4825,0.0,-2.553,0.0,0.0,0.0,0.0,0.0,0.0,0.0,0.0,0.0,0.0,-2.8775,-2.9772,-3.0673,-3.1308,-3.1369,-3.1226,-3.0874,0.0,-2.971,-2.9437,-2.9135,0.0,0.0,0.0,0.0,-2.9828,-3.0217,-3.1263,-3.2191,-3.2745,-3.2947,-3.3043,-3.2969,-3.2569,-3.2048,-3.1358,-3.0107,-2.9239,-2.8892,-2.8045,-2.7551,0.0,0.0,0.0,0.0,0.0,0.0,0.0,0.0,0.0,0.0,0.0,0.0,0.0,0.0,0.0,0.0,0.0,0.0,0.0,0.0,0.0,0.0,0.0,0.0,0.0,0.0,0.0,0.0,-1.3558,-1.377,-1.3521,-1.4077,-1.4253,0.0,0.0,0.0,0.0,0.0,0.0,-1.6423,-1.7874,-1.8909,-1.9369,-2.0844,-2.2328,-2.3709,-2.444,-2.5856,-2.7828,-2.7828,-2.8204,-2.8949,-2.8483,-2.8028,-2.7631,-2.7164,-2.6206,-2.49,-2.3463,-2.2304,-2.1424,-2.0959,-2.0576,-2.0494,-2.2083,-2.2433,-2.2445,-2.4615,-2.5401,-2.5496,-2.6071,0.0,-2.562,-2.5476,0.0,0.0,0.0,0.0,-2.7464,-2.8016,-2.9022,-3.0179,-3.1246,-3.2249,-3.3013,-3.308,-3.3003,-3.2475,0.0,-3.0509,-3.0233,-2.9725,0.0,0.0,0.0,0.0,-3.0104,-3.0586,-3.1429,-3.2086,-3.2364,-3.2621,-3.2718,-3.2551,-3.2453,-3.2133,-3.1535,-3.0443,-2.9767,-2.9611,-2.8475,-2.7822,-2.7772,0.0,0.0,0.0,0.0,0.0,0.0,0.0,0.0,0.0,0.0,0.0,0.0,0.0,0.0,0.0,0.0,0.0,0.0,0.0,0.0,0.0,0.0,0.0,0.0,0.0,0.0,0.0,0.0,0.0,-1.3601,-1.4867,0.0,0.0,0.0,0.0,-1.5316,-1.6478,-1.7337,-1.77,-1.8875,-1.9898,-2.0697,-2.2689,-2.4289,-2.5446,-2.7092,-2.8327,-2.9197,-2.9197,-2.9456,-2.9911,-2.9446,-2.899,-2.8524,-2.8059,-2.7324,-2.6376,-2.4583,-2.3267,-2.2387,-2.1921,-2.1725,-2.1855,-2.3139,-2.3593,-2.3868,-2.5781,-2.6464,-2.662,-2.7211,-2.7387,-2.7268,-2.6752,-2.6974,0.0,0.0,-2.7274,-2.7966,-2.8091,-2.898,-3.0308,-3.1936,-3.2696,-3.327,-3.4208,-3.4398,-3.3796,0.0,-3.0843,-3.0386,-3.0356,0.0,-3.0294,-3.0294,-3.0874,-3.1316,-3.1362,-3.1963,-3.2379,-3.2398,-3.2425,-3.2551,-3.2843,-3.2578,-3.2214,-3.1815,-3.1297,-3.0423,-2.9099,-2.8533,-2.7935,-2.716,-2.7629,0.0,0.0,0.0,0.0,0.0,0.0,0.0,0.0,0.0,0.0,0.0,0.0,0.0,0.0,0.0,0.0,0.0,0.0,0.0,0.0,0.0,0.0,0.0,0.0,0.0,0.0,0.0,0.0,-1.5357,-1.6411,0.0,-1.6199,-1.6448,-1.6695,-1.6952,-1.7749,-1.869,-1.9641,-2.0826,-2.1889,-2.283,-2.4437,-2.5951,-2.7182,-2.8354,-2.9527,-3.0636,-3.0336,-3.0284,-3.0419,-2.9953,-2.9497,-2.9032,-2.8566,-2.7852,-2.6988,-2.6044,-2.4902,-2.3722,-2.3318,-2.2956,-2.2806,-2.3491,-2.3946,-2.4408,-2.6093,-2.6895,-2.7265,-2.787,-2.807,-2.7968,-2.7392,-2.7628,-2.8033,-2.7857,-2.8567,-2.9408,-2.9688,-3.0381,-3.1324,-3.2676,-3.3427,-3.3968,-3.436,-3.482,-3.4813,-3.3627,-3.2459,-3.169,-3.169,-3.0955,-3.0402,-3.0402,-3.0966,-3.1409,-3.1409,-3.1982,-3.2398,-3.2398,-3.2398,-3.2268,-3.1975,-3.1832,-3.1343,-3.0325,-3.0369,-2.984,-2.8489,-2.8811,-2.8668,-2.7945,-2.8822,-2.8924,0.0,0.0,0.0,0.0,0.0,0.0,0.0,0.0,0.0,0.0,0.0,0.0,0.0,0.0,0.0,0.0,0.0,0.0,0.0,0.0,0.0,0.0,0.0,0.0,0.0,0.0,-1.666,-1.6587,-1.7874,-1.8496,-1.7728,-1.8152,-1.8562,-1.8782,-1.9613,-2.0533,-2.1574,-2.2597,-2.3577,-2.4441,-2.6136,-2.7372,-2.8083,-2.953,-3.0577,-3.1143,-3.0998,-3.0833,-3.0677,-3.0367,-2.9891,-2.929,-2.898,-2.8328,-2.7458,-2.7148,-2.632,-2.5181,-2.4726,-2.4364,-2.4158,-2.4418,-2.4766,-2.5374,-2.7029,-2.7663,-2.7866,-2.8689,-2.8974,-2.8895,-2.8495,-2.8804,-2.9297,-2.9297,-2.9823,-3.0461,-3.0742,-3.1203,-3.1909,-3.308,-3.3851,-3.443,-3.491,-3.5446,-3.5722,-3.5275,-3.4073,-3.309,-3.309,-3.2167,-3.1493,-3.1751,-3.1751,-3.1813,-3.2044,-3.2259,-3.2398,-3.2398,-3.2398,-3.2121,-3.147,-3.1769,-3.1254,-2.952,-3.0078,-2.9848,-2.8487,-2.9124,-2.9407,-2.9108,-2.9513,-2.96,-2.9382,0.0,0.0,0.0,0.0,0.0,0.0,0.0,0.0,0.0,0.0,0.0,0.0,0.0,0.0,0.0,0.0,0.0,0.0,0.0,0.0,0.0,0.0,0.0,-1.5039,-1.6952,-1.8028,-1.716,-1.925,-2.0179,-1.8606,-1.9879,-2.0794,-2.0794,-2.1905,-2.2896,-2.3528,-2.4096,-2.4707,-2.5444,-2.7644,-2.8593,-2.8067,-3.0731,-3.164,-3.077,-3.1215,-3.1174,-3.0729,-3.0708,-3.0212,-2.9342,-2.9332,-2.8804,-2.7945,-2.7935,-2.7396,-2.6594,-2.6127,-2.5941,-2.5934,-2.5918,-2.6206,-2.6862,-2.8494,-2.8723,-2.8484,-2.9709,-3.0127,-3.0127,-3.0127,-3.0555,-3.0986,-3.0986,-3.0986,-3.0986,-3.0986,-3.1272,-3.1909,-3.3157,-3.3871,-3.4614,-3.5864,-3.632,-3.6492,-3.6492,-3.543,-3.4551,-3.4536,-3.3906,-3.366,-3.4366,-3.329,0.0,-3.329,-3.2798,-3.2398,-3.2398,-3.2398,-3.2105,-3.1439,-3.2441,-3.2034,-2.9498,-3.0463,-3.0504,-2.9074,-2.9534,-3.0011,-3.0477,-2.9544,-2.9396,-3.0104,0.0,0.0,0.0,0.0,0.0,0.0,0.0,0.0,0.0,0.0,0.0,0.0,0.0,0.0,0.0,0.0,0.0,0.0,0.0,0.0,0.0,0.0,-1.7128,-1.704,-1.8577,-1.9864,-2.0311,-2.1598,-2.2279,-2.1832,-2.2191,-2.2454,-2.2454,-2.2958,-2.3586,-2.4259,-2.4384,-2.5007,-2.6253,-2.7935,-2.9129,-2.9886,-3.1948,-3.2882,-3.2633,-3.2447,-3.2116,-3.1661,-3.1329,-3.0864,-3.0294,-2.9953,-2.928,-2.84,-2.8059,-2.7593,-2.7071,-2.6604,-2.6428,-2.6366,-2.6045,-2.6701,-2.7888,-2.8291,-2.9161,-3.0069,-3.0025,-3.0364,-3.0751,-3.0751,-3.0869,-3.0986,-3.0986,-3.0986,-3.0986,-3.0986,-3.1099,-3.1371,-3.2268,-3.3108,-3.3939,-3.4861,-3.5623,-3.6147,-3.6147,-3.592,-3.5631,-3.5276,-3.4659,-3.406,-3.3752,-3.3367,0.0,-3.2705,-3.2505,-3.2398,-3.2398,-3.2398,-3.1936,-3.0755,-3.0974,-3.0242,-2.8088,-2.9038,-2.8888,-2.7124,-2.8828,-2.9859,-2.9989,-3.0055,-3.0199,0.0,0.0,0.0,0.0,0.0,0.0,0.0,0.0,0.0,0.0,0.0,0.0,0.0,0.0,0.0,0.0,0.0,0.0,0.0,0.0,0.0,0.0,-1.7794,-1.8869,-1.955,-2.0457,-2.1357,-2.2191,-2.3135,-2.372,-2.372,-2.3969,-2.4123,-2.4123,-2.4174,-2.4465,-2.4927,-2.4665,-2.5031,-2.6128,-2.8128,-2.9343,-2.9826,-3.2203,-3.3182,-3.282,-3.2758,-3.2432,-3.1977,-3.1774,-3.1412,-3.0967,-3.0688,-3.016,-2.9435,-2.8773,-2.8349,0.0,0.0,0.0,0.0,0.0,-2.6776,-2.7658,-2.8133,-2.9096,-3.0104,-3.0343,-3.0672,-3.0986,-3.0986,-3.0986,-3.0986,-3.0986,-3.0986,-3.0986,-3.0986,-3.0986,-3.1198,-3.1905,-3.2577,-3.3318,-3.438,-3.5073,-3.5623,-3.5941,-3.6068,0.0,-3.5753,-3.5277,-3.489,-3.4722,-3.4214,-3.3706,-3.3349,-3.2998,-3.2705,-3.2428,-3.2398,-3.1967,-3.092,-3.1021,0.0,0.0,0.0,-2.906,-2.7976,-2.9438,0.0,0.0,0.0,-3.0601,-3.0781,0.0,0.0,0.0,-3.004,-2.9809,0.0,0.0,0.0,0.0,0.0,0.0,0.0,0.0,0.0,0.0,0.0,0.0,0.0,0.0,0.0,0.0,-1.9184,-2.0659,-2.2228,-2.2454,-2.2674,-2.3259,-2.413,-2.4693,-2.473,-2.5249,-2.5571,-2.5535,-2.5271,-2.522,-2.5461,0.0,0.0,0.0,0.0,-2.9449,-2.9028,-3.1988,-3.3052,-3.2215,-3.2576,-3.2504,-3.206,-3.206,-3.1878,-3.1454,-3.1454,-3.1102,-3.047,-2.9642,-2.9239,-2.9032,-2.781,-2.7351,-2.7253,-2.6855,-2.6709,-2.6919,-2.7906,0.0,0.0,-3.0406,-3.0823,-3.0911,-3.0986,-3.0986,-3.0986,-3.0986,-3.0986,-3.0986,-3.0986,-3.0986,-3.1161,-3.1809,-3.2196,-3.2755,-3.4143,-3.4629,-3.5041,-3.5814,-3.5973,-3.5973,-3.5973,-3.5737,-3.5768,-3.6261,-3.5353,-3.4597,-3.452,-3.3844,-3.3167,-3.2567,0.0,0.0,-3.147,-3.1779,-3.1236,-2.9514,-2.9772,-2.9998,-2.9998,-3.0459,-3.0884,-3.1353,-3.0818,-3.0734,-3.115,-3.0549,-3.0574,-3.1173,-3.0531,-2.9499,0.0,0.0,0.0,0.0,0.0,0.0,0.0,0.0,0.0,0.0,0.0,0.0,0.0,0.0,0.0,-1.9439,-2.0867,-2.2279,-2.3881,-2.4108,-2.4247,-2.4701,-2.5074,-2.5447,-2.571,-2.5849,-2.5813,-2.5549,-2.5476,-2.5352,-2.5162,-2.5271,-2.5679,-2.636,-2.8793,-3.0333,-3.0779,-3.2988,-3.3848,-3.3315,0.0,0.0,-3.2545,-3.2545,-3.2344,-3.1853,-3.1853,-3.1019,-2.9559,-2.9373,-2.8866,-2.8162,-2.7893,-2.7572,-2.7289,-2.7207,-2.7399,-2.7697,-2.7513,-2.8092,-2.9015,-2.9347,-2.9793,-3.0305,-3.0823,-3.0986,0.0,-3.0986,-3.0986,-3.0986,-3.0986,-3.0986,-3.1061,-3.1198,-3.1713,-3.2398,-3.3283,-3.3973,-3.4629,-3.5442,-3.5686,-3.5752,-3.5752,-3.5931,-3.5937,-3.5523,-3.5385,-3.5121,-3.4582,-3.3844,-3.3352,-3.3229,-3.2721,-3.2121,-3.147,-3.101,-3.0361,-2.9473,-2.8987,-2.875,-2.875,-2.9202,-2.9571,-2.9835,-3.0436,-3.0786,-3.0875,-3.1099,-3.1211,-3.119,-3.1055,-3.0857,0.0,0.0,0.0,0.0,0.0,0.0,0.0,0.0,0.0,0.0,0.0,-1.6036,0.0,0.0,-1.9133,-2.0918,-2.2023,-2.3098,-2.4386,-2.4708,-2.4993,-2.5476,-2.5681,-2.59,-2.623,-2.6405,-2.6435,-2.6274,-2.6113,-2.5952,-2.5791,-2.5622,-2.5665,-2.607,-2.7787,-2.9145,-3.0116,-3.1788,-3.2804,-3.3156,-3.3103,-3.2944,-3.2669,-3.2669,-3.2545,-3.2318,-3.2081,-3.1461,-3.0626,-2.9932,-2.9104,-2.8266,-2.8266,-2.7986,-2.7541,-2.7133,-2.7094,-2.7297,-2.7348,-2.7733,-2.8355,-2.9246,-2.9755,-3.0114,-3.0785,-3.0986,-3.0986,-3.0986,-3.0986,-3.0986,-3.0986,-3.0986,-3.0986,-3.0986,-3.1296,-3.1736,-3.2484,-3.3234,-3.3973,-3.4758,-3.5282,-3.5589,-3.5589,-3.5799,-3.5868,-3.5643,-3.5691,-3.5523,-3.485,-3.4497,-3.4051,-3.3376,-3.3049,-3.2628,-3.1951,-3.1289,-3.0628,-2.994,-2.9587,-2.9387,-2.9387,-2.9645,-2.9909,-3.0236,-3.0982,-3.1472,-3.17,-3.2204,-3.24,-3.2307,-3.2307,-3.1904,0.0,0.0,0.0,0.0,0.0,0.0,0.0,0.0,-1.5898,-1.6626,-1.6919,-1.7487,-1.9026,-1.9509,-2.023,-2.1986,-2.2849,-2.3574,-2.4364,-2.4877,-2.5295,-2.5681,-2.5849,-2.6076,-2.6464,-2.6742,-2.6896,-2.6896,-2.6654,-2.6449,-2.6318,-2.5879,-2.5564,-2.5447,-2.6561,-2.7698,-2.8841,-3.0162,-3.1397,-3.2621,-3.2653,-3.2669,-3.2669,-3.2669,-3.2669,-3.2638,-3.1998,-3.1723,-3.1492,-3.0263,-2.9239,-2.8483,-2.8483,-2.8245,-2.7782,-2.7107,-2.6808,-2.6768,-2.7171,-2.7307,-2.7574,-2.9028,-2.951,-2.9678,-3.0545,-3.0798,-3.0823,-3.0949,-3.0986,-3.0986,-3.0986,-3.0986,-3.0986,-3.0986,-3.0986,-3.1185,-3.1942,-3.2684,-3.3422,-3.4177,-3.4938,-3.5504,-3.5504,-3.5604,-3.5735,-3.5894,-3.5973,-3.5808,-3.5276,-3.5171,-3.4713,-3.3521,-3.3376,-3.3047,-3.2259,-3.1705,-3.1105,-3.0432,-3.0402,-3.0402,-3.0402,-3.049,-3.0726,-3.1149,-3.1678,-3.218,-3.2659,-3.299,-3.3314,-3.3609,-3.3503,-3.2816,-1.0804,-1.1717,-1.3063,-1.3648,-1.4942,-1.6314,0.0,0.0,-1.8252,-1.8822,-1.9132,-1.9477,-1.9988,-2.0552,-2.1342,-2.2403,-2.3362,-2.4013,-2.4123,-2.4664,-2.5039,-2.4759,-2.5235,-2.5827,-2.6442,-2.6537,-2.6559,-2.6559,-2.6522,-2.6252,-2.5666,-2.5842,-2.5703,-2.5125,-2.6411,-2.763,-2.8605,-2.9628,-3.0871,-3.242,-3.2384,-3.2487,-3.2669,-3.2669,-3.2669,-3.2607,-3.1391,-3.0605,-3.0149,-2.9166,-2.8462,-2.7997,-2.7997,-2.7966,-2.7914,-2.781,-2.7505,-2.7112,-2.6779,-2.6715,-2.6836,-2.7545,-2.7787,-2.8068,-2.9639,-3.0114,-3.0241,-3.0823,-3.0986,-3.0986,-3.0986,-3.0986,-3.0986,-3.0986,-3.0986,-3.1185,-3.1942,-3.2684,-3.3422,-3.4177,-3.4938,-3.5504,-3.5504,-3.5504,-3.5587,-3.5703,-3.5894,-3.5975,-3.5914,-3.5382,-3.4775,-3.4163,-3.358,-3.2765,-3.1613,-3.1455,-3.1105,-3.0432,-3.0402,-3.0402,-3.0402,-3.0801,-3.1133,-3.1365,-3.1846,-3.2338,-3.2862,-3.2446,-3.2982,-3.437,-3.3896,-3.3484,-1.0912,-1.2073,-1.3311,-1.2952,-1.4446,-1.6191,-1.6777,-1.758,-1.863,-2.0069,-2.0324,-2.059,-2.1631,-2.1817,-2.2081,0.0,-2.3691,-2.4086,-2.4086,-2.4481,-2.451,-2.3801,-2.4291,-2.4942,-2.56,-2.5996,-2.6222,-2.6222,-2.6222,-2.6105,-2.5827,-2.5761,-2.5527,-2.5141,-2.527,-2.6237,-2.814,-2.8402,-2.9814,-3.235,-3.2282,-3.2287,-3.2277,-3.2602,-3.2437,-3.1899,-3.105,-3.0274,-2.9528,-2.8597,-2.8255,-2.8297,-2.8028,-2.7924,-2.7893,-2.7634,-2.7269,-2.6861,-2.6946,-2.6619,-2.639,-2.7542,-2.772,-2.7827,-2.9471,-2.9999,-3.0152,-3.0823,-3.0986,-3.0986,-3.0986,-3.0986,-3.0986,-3.0986,-3.0986,-3.1086,-3.1394,-3.2028,-3.2648,-3.2953,-3.3973,-3.4791,-3.4791,-3.5198,-3.5537,-3.5572,-3.5651,-3.5716,-3.5716,-3.554,-3.5076,-3.4181,-3.3539,-3.2831,-3.1922,-3.1955,-3.1859,-3.1582,-3.1567,-3.1567,-3.1567,-3.1765,-3.1916,-3.1967,-3.2473,-3.2833,-3.3064,-3.3157,-3.3558,-3.4211,-3.4299,-3.4313,-1.1268,-1.2409,-1.3422,-1.277,-1.4433,-1.6312,-1.6504,-1.7919,-1.9555,-2.0927,-2.1289,-2.1654,-2.2708,-2.2453,-2.233,-2.3186,-2.3757,-2.402,-2.3837,-2.4174,-2.4071,-2.3091,-2.3471,-2.3998,-2.4474,-2.5264,-2.5791,-2.5879,-2.5886,-2.5886,-2.5886,-2.5491,-2.5162,-2.4995,-2.4291,-2.5207,-2.7728,-2.7488,-2.8911,-3.2018,-3.2018,-3.2027,-3.2127,-3.2514,-3.224,-3.135,-3.0884,-3.016,-2.9239,-2.8307,-2.8121,-2.839,-2.8059,-2.7924,-2.7834,-2.7562,-2.7206,-2.6838,-2.698,-2.6549,-2.6062,-2.7205,-2.7232,-2.718,-2.8991,-2.9549,-2.9755,-3.0748,-3.0986,-3.0986,-3.0986,-3.0986,-3.0986,-3.0986,-3.0986,-3.0986,-3.0986,-3.1566,-3.211,-3.211,-3.329,-3.4312,-3.4312,-3.4986,-3.5504,-3.5504,-3.5504,-3.5504,-3.5504,-3.5471,-3.5101,-3.4273,-3.3573,-3.2959,-3.2455,-3.2366,-3.2342,-3.2342,-3.237,-3.2398,-3.2398,-3.2398,-3.2398,-3.2398,-3.2761,-3.3039,-3.3182,-3.3588,-3.3919,-3.4235,-3.4625,-3.488,-1.1735,-1.2583,-1.3444,-1.401,-1.5621,-1.7184,-1.7572,-2.0012,-2.2027,-2.1499,-2.2274,-2.2931,-2.2682,-2.2118,-2.192,-2.255,-2.3457,-2.3866,-2.323,-2.3691,-2.3735,-2.2754,-2.2937,-2.3142,0.0,-2.4327,-2.5213,-2.552,-2.5549,-2.5549,-2.5549,-2.4942,-2.4591,-2.465,-2.3954,-2.4841,-2.7482,-2.7193,-2.8453,-3.1325,-3.1325,-3.1662,-3.2295,-3.2545,-3.224,-3.135,-3.0884,-3.016,-2.9239,-2.8307,-2.7935,-2.7945,-2.7935,-2.7924,-2.7924,-2.7903,-2.7624,-2.7226,-2.677,-2.6304,-2.5917,-2.5964,-2.5669,-2.5684,-2.7815,-2.8466,-2.8821,-3.0508,-3.0986,-3.0986,-3.0986,-3.0986,-3.0986,-3.0986,-3.0986,-3.0986,-3.0986,-3.1566,-3.211,-3.211,-3.329,-3.4312,-3.4312,-3.4986,-3.5504,-3.5504,-3.5504,-3.5504,-3.5504,-3.5063,-3.4737,-3.4692,-3.3698,-3.3012,-3.2997,-3.2488,-3.2219,-3.2219,-3.2315,-3.2398,-3.2398,-3.2398,-3.2398,-3.2398,-3.2425,-3.2668,-3.3182,-3.3224,-3.3751,-3.4785,-3.4793,-3.5068,-1.195,-1.299,-1.4039,-1.4544,-1.5522,-1.6696,-1.7827,-1.874,-1.9403,-1.9757,-1.9825,-1.9743,-1.954,-1.9926,-2.0499,-2.1113,-2.2436,-2.3362,-2.3142,-2.3676,-2.3486,-2.1876,-2.2718,0.0,0.0,0.0,0.0,-2.4547,-2.4569,-2.4664,-2.4883,-2.4481,-2.4247,-2.4247,-2.3823,-2.4725,-2.714,-2.7056,-2.8435,-3.1325,-3.1199,-3.1402,-3.1845,-3.1605,-3.132,-3.0895,-3.0429,-2.988,-2.9259,-2.8638,-2.838,-2.8349,-2.8038,-2.7924,-2.7883,-2.7593,-2.7434,-2.7237,-2.6781,-2.6314,-2.5892,-2.5886,-2.5583,-2.5485,-2.6894,-2.7735,-2.8454,-2.9614,-3.0343,-3.0849,-3.0986,-3.0986,-3.0986,-3.0986,-3.0986,-3.0986,-3.0986,-3.1185,-3.1371,-3.1371,-3.216,-3.2989,-3.3492,-3.4192,-3.4872,-3.5424,-3.5504,-3.5504,-3.5504,-3.5342,-3.506,-3.4626,-3.3894,-3.3276,-3.2823,-3.2361,-3.2122,-3.2191,-3.2247,-3.233,-3.2398,-3.2398,-3.2398,-3.2398,-3.2398,-3.2492,-3.2668,-3.2668,-3.2841,-3.3224,-3.3944,-3.4382,-1.2513,-1.3603,-1.454,-1.5149,-1.5806,-1.6486,-1.7472,-1.7948,-1.8234,-1.8435,-1.8351,-1.8151,-1.7917,-1.8516,-1.9299,-1.9908,-2.1337,-2.2513,-2.2747,-2.3142,-2.2981,-2.1847,-2.2623,-2.2842,0.0,0.0,0.0,-2.3881,-2.391,-2.4101,-2.4613,-2.4035,-2.3896,-2.4247,-2.3713,-2.461,-2.7149,-2.7064,-2.8376,-3.116,-3.1107,-3.1146,-3.1152,-3.1089,-3.0856,-3.0419,-3.0129,-2.9735,-2.927,-2.8804,-2.8711,-2.8814,-2.8349,-2.8173,-2.811,-2.7665,-2.7396,-2.7237,-2.6781,-2.6314,-2.5892,-2.5711,-2.5335,-2.5147,-2.6224,-2.6953,-2.7683,-2.9005,-2.9781,-3.0355,-3.0874,-3.0986,-3.0986,-3.0986,-3.0986,-3.0986,-3.0986,-3.0986,-3.0986,-3.0986,-3.1603,-3.2254,-3.272,-3.365,-3.4562,-3.5392,-3.5504,-3.5504,-3.5504,-3.5504,-3.5325,-3.4891,-3.4116,-3.3457,-3.3036,-3.234,-3.1968,-3.2038,-3.215,-3.2247,-3.2315,-3.237,-3.2398,-3.2398,-3.2398,-3.2398,-3.2398,-3.2586,-3.2695,-3.2722,-3.3588,-3.4011,-1.3485,-1.4366,-1.5052,-1.5812,-1.6385,-1.6725,-1.6709,-1.7659,-1.8358,-1.7473,-1.7712,-1.7983,-1.7659,-1.7816,-1.8234,-1.8913,-2.0287,-2.1474,-2.2162,-2.2271,-2.2374,0.0,0.0,0.0,0.0,0.0,0.0,-2.3596,0.0,-2.3845,-2.4481,-2.3625,-2.3545,-2.4488,-2.3603,-2.4541,-2.7456,-2.7306,-2.8471,-3.0889,-3.0993,-3.0826,-3.0394,-3.1011,-3.0853,-2.9994,-2.9994,-2.9746,-2.9301,-2.8866,-2.8928,-2.9259,-2.8794,-2.8597,-2.8524,-2.8059,-2.7624,-2.7237,-2.6781,-2.6314,-2.5802,-2.5303,-2.4859,-2.47,-2.5724,-2.6058,-2.6513,-2.8691,-2.933,-2.9614,-3.0697,-3.0986,-3.0986,-3.0986,-3.0986,-3.0986,-3.0986,-3.0986,-3.0986,-3.0986,-3.1603,-3.211,-3.211,-3.3332,-3.4539,-3.5326,-3.5469,-3.5469,-3.5504,-3.5504,-3.5504,-3.5504,-3.4322,-3.3544,-3.3544,-3.251,-3.1845,-3.1845,-3.2068,-3.2191,-3.2191,-3.2361,-3.2428,-3.2398,-3.2428,-3.2428,-3.2398,-3.2922,-3.3172,-3.3156,-3.3716,-3.396,-1.4022,-1.5008,-1.585,-1.6396,-1.6634,-1.6682,-1.6441,-1.6238,-1.5889,-1.4952,-1.4726,-1.4527,-1.3941,-1.55,-1.72,-1.8049,-2.0124,0.0,-2.3076,-2.3442,0.0,-2.3032,0.0,-2.3786,-2.3054,-2.3501,0.0,0.0,-2.3508,-2.3413,-2.3823,-2.3376,-2.3332,-2.383,-2.3362,-2.4371,-2.7089,-2.8993,-3.0225,-3.0889,-3.0592,-3.032,-3.0127,-3.0182,-2.9998,-2.9711,-2.9931,-2.9922,-2.9808,-2.9694,-2.9508,-2.9259,-2.8794,-2.84,-2.8048,-2.7593,-2.7403,-2.7237,-2.6781,-2.6314,-2.5751,-2.4931,-2.459,-2.454,-2.4818,-2.5379,-2.6193,-2.7585,-2.8438,-2.9223,-3.0457,-3.0773,-3.0811,-3.0949,-3.0986,-3.0986,-3.0986,-3.0986,-3.0986,-3.0986,-3.1603,-3.211,-3.211,-3.3237,-3.4262,-3.4582,-3.5,-3.5331,-3.5499,-3.5504,-3.5504,-3.5504,-3.4741,-3.4264,-3.4264,-3.3051,-3.2346,-3.2463,-3.2127,-3.1996,-3.2191,-3.2721,-3.2808,-3.2398,-3.289,-3.2906,-3.2398,-3.2547,-3.2586,-3.2629,-3.3145,-3.3391,-1.4722,-1.5639,-1.6385,-1.6661,-1.6587,-1.6393,-1.5951,-1.5317,-1.4582,-1.3572,-1.3335,-1.313,-1.2527,-1.4429,-1.633,0.0,0.0,0.0,-2.2776,-2.3245,-2.3464,0.0,-2.4145,0.0,-2.3603,-2.3998,-2.424,0.0,-2.361,-2.3464,-2.3793,-2.3362,-2.3259,-2.3581,-2.3281,-2.4092,-2.6164,-2.8164,-2.9194,-2.9185,-2.9278,-2.9268,-2.9186,-2.9406,-2.9533,-2.9606,0.0,-2.9766,-2.9704,-2.9911,-2.9601,-2.898,-2.8711,-2.8328,-2.7872,-2.7475,-2.7309,-2.7237,-2.6781,-2.6449,-2.603,-2.5096,-2.4797,-2.4766,-2.4559,-2.4818,-2.5463,-2.6565,-2.7232,-2.7999,-2.9561,-3.0037,-3.0241,-3.0761,-3.0949,-3.0986,-3.0986,-3.0986,-3.0986,-3.0986,-3.1532,-3.2008,-3.2092,-3.3124,-3.4156,-3.4649,-3.525,-3.5813,-3.6272,-3.5848,-3.5504,-3.5504,-3.4891,-3.4503,-3.4503,-3.3529,-3.2841,-3.2631,-3.2615,-3.2624,-3.2536,-3.3247,-3.3546,-3.3349,-3.3367,-3.3213,-3.2844,-3.2844,-3.269,-3.2425,-3.3006,-3.3123,-1.5499,-1.6167,-1.6736,-1.67,-1.6463,-1.6048,-1.5338,-1.4727,-1.4035,-1.2942,0.0,-1.2877,-1.2447,-1.4016,-1.5625,-1.6472,0.0,-2.0296,-2.2074,-2.2564,-2.3098,-2.4035,-2.4437,-2.4525,-2.424,-2.4466,-2.4518,-2.4232,-2.3866,-2.3764,-2.4005,-2.3479,-2.3281,-2.3523,-2.344,-2.3907,-2.5071,-2.6346,-2.7013,-2.7004,-2.7575,-2.788,-2.8079,-2.8588,-2.9069,-2.9511,-2.9554,-2.9465,-2.9291,-2.9735,-2.9352,-2.8524,-2.8524,-2.8245,-2.779,-2.7455,-2.7309,-2.7237,-2.6781,-2.6615,-2.647,-2.5523,-2.5189,-2.5096,-2.4631,-2.4497,-2.47,-2.5757,-2.608,-2.6524,-2.8557,-2.9186,-2.9549,-3.0457,-3.0798,-3.0949,-3.0949,-3.0986,-3.0986,-3.0986,-3.1444,-3.1857,-3.2048,-3.2987,-3.4063,-3.4982,-3.5704,-3.6416,-3.7164,-3.638,-3.5759,-3.5759,-3.5145,-3.4773,-3.4773,-3.4053,-3.338,-3.2811,-3.3336,-3.3487,-3.3106,-3.3861,-3.436,-3.4475,-3.3952,-3.3629,-3.3552,-3.3552,-3.3198,-3.2552,-3.3121,-3.3044,-1.5994,-1.6425,-1.671,-1.6899,-1.6328,-1.5639,-1.5263,-1.4266,0.0,0.0,-1.2506,-1.2447,-1.2208,-1.3467,-1.5206,-1.7051,-1.8381,-2.0069,-2.2559,-2.3223,-2.3691,0.0,-2.4841,-2.5017,-2.4958,-2.5009,0.0,0.0,-2.4335,-2.3903,-2.3691,-2.3574,-2.3413,-2.3201,-2.4185,-2.4887,-2.5071,-2.6346,-2.7013,-2.7004,-2.6518,-2.6787,-2.7691,-2.7425,-2.7877,-2.8887,-2.9396,0.0,-2.8962,-2.9291,-2.8876,-2.8038,-2.8038,-2.7769,-2.7413,-2.734,-2.7309,-2.7237,-2.6781,-2.6615,-2.647,-2.5523,-2.5189,-2.5096,-2.4631,-2.4497,-2.47,-2.5579,-2.5872,-2.6318,-2.8331,-2.887,-2.9184,-3.0216,-3.0482,-3.0558,-3.0736,-3.0874,-3.0986,-3.0986,-3.1444,-3.181,-3.1845,-3.2843,-3.3728,-3.4014,-3.5119,-3.604,-3.6387,-3.6783,-3.7075,-3.7075,-3.6507,-3.6133,-3.6133,-3.5043,-3.4294,-3.4174,-3.3755,-3.3562,-3.3578,-3.441,-3.4668,-3.4268,-3.4831,-3.4874,-3.432,-3.432,-3.3921,-3.3229,-3.3352,-3.3044,-1.6188,-1.6571,-1.684,-1.6829,-1.6118,-1.5295,-1.481,0.0,0.0,0.0,-1.2242,-1.2301,-1.1935,-1.3258,0.0,-1.5785,-1.7265,-1.9105,-2.1431,-2.2262,0.0,-2.4415,-2.4708,-2.4936,0.0,-2.5127,-2.5053,-2.4818,-2.451,-2.4188,-2.3866,-2.353,-2.3274,-2.3113,-2.372,-2.4031,-2.4031,-2.4702,-2.4854,-2.4717,-2.4787,-2.5078,-2.5451,-2.5652,-2.6164,-2.6898,-2.7149,0.0,-2.7655,-2.8018,-2.7935,-2.7603,-2.7831,-2.7655,-2.7309,-2.7309,-2.7309,-2.7278,-2.705,-2.6812,-2.6511,-2.5782,-2.5409,-2.5096,-2.4631,-2.4497,-2.4583,-2.502,-2.5137,-2.5463,-2.6864,-2.7678,-2.8371,-2.9341,-3.0011,-3.0444,-3.066,-3.0773,-3.0965,-3.1327,-3.1888,-3.228,-3.228,-3.3247,-3.4082,-3.4292,-3.5529,-3.6613,-3.7155,-3.7925,-3.8063,-3.7045,-3.6656,-3.6357,-3.6013,-3.5385,-3.4861,-3.4533,-3.4517,-3.443,-3.4241,-3.5076,-3.5429,-3.5248,-3.5415,-3.5352,-3.5028,-3.5028,-3.4445,-3.3413,-3.3783,-3.3398,-1.6307,-1.6689,-1.6947,-1.6721,-1.5914,-1.4941,-1.4342,-1.3424,0.0,-1.1892,-1.207,-1.2237,-1.1914,-1.3064,-1.415,0.0,-1.5985,-1.7794,-1.9996,-2.0948,-2.2171,0.0,-2.4423,0.0,-2.4987,-2.4958,0.0,-2.4481,-2.4401,0.0,-2.3991,-2.3427,-2.3106,-2.3106,-2.3106,-2.3106,-2.3106,-2.304,-2.2879,-2.2615,-2.3177,-2.3427,-2.3499,-2.4076,-2.4616,-2.5067,-2.509,0.0,0.0,-2.6517,-2.6811,-2.6928,-2.7338,-2.7431,-2.7299,-2.7195,-2.7216,-2.7299,-2.7195,-2.6853,-2.6351,-2.5885,-2.5513,-2.5096,-2.4631,-2.4497,-2.4497,-2.4497,-2.4497,-2.47,-2.5579,-2.6483,-2.7395,-2.8462,-2.9548,-3.0407,-3.0688,-3.07,-3.0892,-3.1772,-3.2306,-3.2698,-3.2868,-3.3731,-3.4489,-3.4687,-3.5819,-3.6933,-3.7834,-3.8649,-3.8588,-3.7075,-3.6776,-3.6417,-3.5774,-3.5594,-3.528,-3.4758,-3.5205,-3.5314,-3.4886,-3.5558,-3.599,-3.6101,-3.5799,-3.5661,-3.5661,-3.5691,-3.4983,-3.3644,-3.4243,-3.3765,-1.6569,-1.6813,-1.6947,-1.6721,-1.5785,-1.4789,-1.4304,0.0,-1.2143,-1.2078,-1.2094,-1.2181,-1.2318,-1.2688,-1.3373,-1.4672,0.0,-1.6223,-1.9283,-2.0208,-2.1396,-2.3459,0.0,0.0,-2.4583,-2.4349,0.0,-2.413,-2.3852,0.0,-2.364,-2.3303,-2.3106,-2.3106,-2.3106,-2.3106,-2.3106,-2.282,-2.2652,-2.2615,-2.2142,-2.246,-2.3491,-2.3246,-2.3743,-2.4756,-2.4748,0.0,0.0,-2.5298,-2.5628,-2.5518,-2.6131,-2.6753,-2.7258,-2.6832,-2.6946,-2.7247,-2.6822,-2.6376,-2.5875,-2.543,-2.522,-2.5096,-2.4631,-2.4497,-2.4497,-2.4497,-2.4497,-2.47,-2.5579,-2.5872,-2.64,-2.8131,-2.9353,-3.0253,-3.0761,-3.0663,-3.0804,-3.2096,-3.2394,-3.2682,-3.3377,-3.4005,-3.4413,-3.4444,-3.5237,-3.6082,-3.6933,-3.7782,-3.8282,-3.8217,-3.7689,-3.7075,-3.6447,-3.5848,-3.5474,-3.5415,-3.5474,-3.5474,-3.5447,-3.5623,-3.572,-3.5752,-3.6009,-3.615,-3.615,-3.6322,-3.5707,-3.4412,-3.4474,-3.3765,-1.5899,-1.6608,-1.6877,-1.6423,-1.5553,-1.4724,-1.4105,0.0,-1.2137,-1.2237,-1.2197,-1.2083,-1.1989,-1.2414,-1.2872,-1.3152,-1.3644,0.0,-1.6753,-1.7513,-1.884,-2.1671,-2.2148,0.0,0.0,0.0,-2.4005,-2.3801,0.0,0.0,-2.3303,-2.3179,-2.3106,-2.3106,-2.2915,-2.282,-2.282,-2.2513,-2.2257,-2.2067,-2.1811,-2.1875,-2.2127,-2.1991,-2.215,-2.2564,-2.2387,0.0,0.0,-2.3211,-2.3993,-2.511,-2.5478,-2.622,-2.703,-2.6698,-2.6739,-2.6864,-2.6677,-2.6092,-2.5502,-2.5595,-2.5254,-2.4735,-2.4559,-2.4497,-2.4497,-2.4497,-2.4497,-2.4583,-2.4946,-2.5421,-2.6354,-2.8483,-2.9306,-2.9858,-3.0691,-3.1028,-3.1403,-3.2263,-3.2665,-3.312,-3.3938,-3.4254,-3.4397,-3.4397,-3.5155,-3.5816,-3.6122,-3.7362,-3.8067,-3.7724,-3.75,-3.7165,-3.6537,-3.5893,-3.5504,-3.5504,-3.5504,-3.5504,-3.5504,-3.5621,-3.5688,-3.5688,-3.5958,-3.6116,-3.6196,-3.5875,-3.5293,-3.4505,-3.4505,-3.3966,-1.5131,-1.6048,-1.6452,-1.5881,-1.5208,-1.4509,0.0,0.0,-1.2164,-1.2366,-1.2221,-1.2089,-1.2016,-1.2472,-1.2699,-1.2359,0.0,-1.3701,-1.5035,-1.5577,0.0,0.0,0.0,-2.1177,0.0,-2.3556,-2.3698,0.0,0.0,0.0,-2.3106,-2.3018,-2.2967,-2.2967,-2.2659,-2.2491,-2.2491,-2.2191,-2.192,-2.1693,-2.1598,-2.143,-2.1203,-2.1108,-2.1064,-2.1042,-2.0618,0.0,0.0,-2.1498,-2.2426,-2.3912,-2.4455,-2.5275,-2.6082,-2.6115,-2.6176,-2.6326,-2.6372,-2.5865,-2.5241,-2.5585,-2.5171,-2.4497,-2.4497,-2.4497,-2.4497,-2.4497,-2.4497,-2.4528,-2.4662,-2.5349,-2.6453,-2.8263,-2.9101,-2.9779,-3.0658,-3.1248,-3.1838,-3.2536,-3.2903,-3.3361,-3.4181,-3.4356,-3.4397,-3.4397,-3.4909,-3.5426,-3.5669,-3.6741,-3.7325,-3.6905,-3.6957,-3.6911,-3.6537,-3.5893,-3.5504,-3.5504,-3.5504,-3.5504,-3.5504,-3.5604,-3.5638,-3.5638,-3.5799,-3.5958,-3.6038,-3.5644,-3.5064,-3.4358,-3.4616,-3.4246,-1.4143,-1.5068,-1.5553,-1.5258,-1.4724,-1.4073,0.0,0.0,-1.2164,-1.2366,-1.2221,-1.2235,-1.2716,-1.2807,-1.2807,-1.2807,-1.2807,0.0,-1.4713,-1.5164,0.0,0.0,0.0,-1.9624,-2.0888,-2.2302,0.0,0.0,0.0,0.0,-2.3106,-2.2806,-2.263,-2.263,-2.2345,-2.2184,-2.2184,-2.1862,-2.1701,-2.1693,-2.1364,-2.1211,-2.1196,-2.0874,-2.0728,-2.0691,0.0,0.0,0.0,-2.0631,-2.1089,-2.1466,-2.273,-2.3626,-2.426,-2.4756,-2.5231,-2.5655,-2.585,-2.5595,-2.5189,-2.5199,-2.4879,-2.4497,-2.4497,-2.4497,-2.4497,-2.4497,-2.4497,-2.4611,-2.5065,-2.5837,-2.6628,-2.7118,-2.8654,-3.014,-3.0668,-3.1139,-3.1795,-3.3128,-3.3139,-3.3142,-3.3972,-3.4285,-3.4397,-3.4397,-3.4397,-3.4716,-3.5588,-3.5709,-3.5823,-3.6079,-3.6163,-3.6292,-3.647,-3.5893,-3.5504,-3.5504,-3.5504,-3.5504,-3.5504,-3.5504,-3.5504,-3.5504,-3.5638,-3.5688,-3.572,-3.5894,-3.5321,-3.403,-3.482,-3.4558,-1.2817,-1.3585,-1.3739,-1.3976,-1.3868,-1.354,-1.2899,-1.2388,-1.2164,-1.2366,-1.2221,-1.2191,-1.2463,-1.2657,-1.2759,-1.2549,-1.2657,0.0,0.0,0.0,0.0,0.0,0.0,0.0,0.0,0.0,0.0,0.0,0.0,0.0,-2.2498,-2.2381,-2.2418,-2.2615,-2.2118,-2.1854,-2.1854,-2.1525,-2.1364,-2.1357,-2.1035,-2.0874,-2.0867,-2.0482,-2.0336,0.0,0.0,0.0,0.0,-1.9814,-2.0146,-2.0746,-2.1352,-2.1991,-2.2618,-2.2649,-2.315,-2.3968,-2.447,-2.4611,-2.4695,-2.5799,-2.5637,-2.5024,-2.5368,-2.5254,-2.4972,-2.4972,-2.5223,-2.542,-2.523,-2.5662,-2.6388,-2.7475,-2.821,-2.9041,-3.0493,-3.1203,-3.181,-3.2702,-3.3077,-3.3436,-3.4008,-3.3979,-3.4021,-3.4356,-3.4272,-3.4356,-3.4758,-3.5345,-3.5708,-3.5835,-3.6037,-3.6067,-3.5703,-3.5585,-3.5504,-3.5504,-3.5504,-3.5504,-3.5504,-3.5504,-3.5504,-3.5504,-3.5554,-3.5621,-3.5688,-3.5282,-3.4788,-3.4149,-3.4393,-3.4129,0.0,-1.1928,-1.2361,-1.2613,-1.2886,0.0,0.0,-1.2156,-1.2029,-1.2226,-1.2132,-1.2021,-1.235,-1.2533,-1.2581,-1.2436,-1.2614,0.0,0.0,0.0,0.0,0.0,0.0,0.0,0.0,0.0,0.0,0.0,0.0,0.0,-2.2206,-2.2067,-2.2081,-2.2271,-2.1781,-2.1511,-2.1511,-2.1313,-2.1211,-2.1203,-2.0874,-2.072,-2.0706,-2.0259,-2.0062,0.0,0.0,0.0,0.0,-1.9308,-1.9485,-1.9868,-2.0353,-2.0851,-2.1284,-2.1517,-2.1992,-2.264,-2.3549,-2.3952,-2.4331,-2.5722,-2.5846,-2.5564,-2.5999,-2.5834,-2.5471,-2.5471,-2.5668,-2.5854,-2.5761,-2.5937,-2.6431,-2.748,-2.8311,-2.9162,-3.032,-3.1396,-3.2296,-3.2701,-3.3128,-3.3484,-3.3781,-3.3768,-3.3839,-3.423,-3.4202,-3.4082,-3.4082,-3.4563,-3.4821,-3.4594,-3.5003,-3.518,-3.4859,-3.5255,-3.5504,-3.5504,-3.5504,-3.5504,-3.5504,-3.5504,-3.5504,-3.5504,-3.5504,-3.5554,-3.5621,-3.496,-3.4679,-3.4759,-3.4577,-3.4208,0.0,-0.991,-1.1124,-1.1235,0.0,0.0,0.0,-1.2011,0.0,-1.2024,-1.1849,-1.1844,-1.2328,-1.2398,-1.2398,-1.2436,-1.2608,0.0,0.0,-1.3623,0.0,0.0,0.0,0.0,0.0,0.0,0.0,0.0,0.0,0.0,-2.2118,-2.1847,-2.1679,-2.1628,-2.1335,-2.1174,-2.1174,-2.1152,-2.1137,-2.1137,-2.0808,-2.0655,-2.0633,-2.0011,-1.9779,0.0,0.0,0.0,0.0,-1.9147,-1.9081,-1.8883,-1.9745,-2.0072,-2.0182,-2.1032,-2.1393,-2.1657,-2.2961,-2.3607,-2.4025,-2.5199,-2.5741,-2.6061,-2.6532,-2.6335,-2.5927,-2.5927,-2.5947,-2.6107,-2.6511,-2.6635,-2.677,-2.7206,-2.8667,-3.0034,-3.017,-3.1625,-3.2939,-3.3068,-3.324,-3.3398,-3.3398,-3.3556,-3.3768,-3.4076,-3.4076,-3.3978,-3.3677,-3.3652,-3.3417,-3.2816,-3.3405,-3.3875,-3.4016,-3.4913,-3.5484,-3.5504,-3.5504,-3.5504,-3.5504,-3.5504,-3.5504,-3.5504,-3.5504,-3.5504,-3.5504,-3.4861,-3.4926,-3.5629,-3.5198,-3.4699,-0.5938,0.0,-0.84,-0.9879,-1.0545,-1.095,0.0,0.0,0.0,0.0,0.0,0.0,0.0,-1.2264,-1.23,-1.2672,0.0,0.0,-1.2951,0.0,0.0,-1.7778,-1.8946,-1.9874,0.0,0.0,0.0,0.0,0.0,-2.1964,-2.1467,-2.1606,-2.1467,-2.0969,-2.0874,-2.0837,-2.0837,-2.0533,-2.0464,-2.0402,-2.0142,-1.9989,-1.9974,-1.9572,-1.9441,0.0,0.0,0.0,-1.9169,-1.9294,-1.9081,-1.8818,-1.8753,-1.8756,-1.876,-1.8715,-1.9325,-2.0459,-2.2075,-2.2992,-2.3654,-2.5468,-2.6335,-2.6736,-2.7018,-2.6822,-2.6449,-2.6449,-2.6708,-2.6926,-2.6677,-2.6884,-2.7175,-2.7278,-2.7631,-2.8398,-2.9897,-3.0576,-3.1303,-3.2797,-3.3154,-3.324,-3.3356,-3.3313,-3.3454,-3.3992,-3.3937,-3.3885,-3.4186,-3.4201,-3.3992,-3.3443,-3.3659,-3.3647,-3.3274,-3.4491,-3.535,-3.5502,-3.5504,-3.5504,-3.5504,-3.5504,-3.5504,-3.5504,-3.5504,-3.5504,-3.5504,-3.534,-3.5135,-3.4933,-3.5001,-3.4699,-0.5173,-0.6067,-0.7232,-0.8311,-0.9345,-1.0215,-1.0584,0.0,0.0,0.0,0.0,0.0,0.0,0.0,0.0,0.0,-1.242,0.0,0.0,0.0,0.0,0.0,0.0,0.0,0.0,0.0,0.0,0.0,0.0,-2.0714,-2.0373,-2.0779,-2.0867,-2.0453,-2.0355,-2.0355,-2.0446,-2.027,-2.0183,-2.0176,-1.9916,-1.9815,-1.9808,-1.9425,-1.9279,0.0,0.0,0.0,-1.9067,-1.9213,-1.9081,-1.8789,-1.876,-1.8752,-1.873,-1.8547,-1.8942,-1.9737,-2.1032,-2.2421,-2.3824,-2.5461,-2.6428,-2.6948,-2.7081,-2.7039,-2.6926,-2.6926,-2.7112,-2.7247,-2.6998,-2.7123,-2.7309,-2.7309,-2.7631,-2.8222,-2.9268,-2.9852,-3.0621,-3.212,-3.2394,-3.2568,-3.3142,-3.3154,-3.324,-3.3696,-3.3654,-3.3594,-3.3685,-3.3812,-3.3632,-3.3126,-3.3186,-3.3215,-3.3027,-3.3734,-3.4398,-3.4916,-3.5294,-3.5504,-3.5504,-3.5504,-3.5504,-3.5504,-3.5504,-3.5504,-3.5504,-3.5504,-3.5342,-3.5061,-3.5238,-3.5001,-0.5135,-0.5953,-0.68,-0.6951,-0.8237,-0.9554,-0.9816,0.0,0.0,0.0,0.0,0.0,0.0,-1.1698,0.0,0.0,0.0,0.0,0.0,0.0,0.0,0.0,0.0,0.0,0.0,0.0,0.0,0.0,0.0,-1.9111,-1.9063,-1.9659,-1.999,-1.9939,-1.9847,-1.9864,-2.0037,-2.0037,-2.0037,-2.0084,-1.9769,-1.9669,-1.9661,-1.933,-1.9199,-1.9258,0.0,0.0,-1.8884,-1.9162,-1.9111,-1.8884,-1.9111,-1.9228,-1.9272,-1.922,-1.9287,-1.9391,-2.0198,-2.1872,-2.3934,-2.5174,-2.6042,-2.6544,-2.6805,-2.7034,-2.7214,-2.7214,-2.7262,-2.7309,-2.7309,-2.7309,-2.7309,-2.7309,-2.7904,-2.8538,-2.8678,-2.936,-3.026,-3.1214,-3.1492,-3.1857,-3.2711,-3.2982,-3.3154,-3.3356,-3.3398,-3.3318,-3.3069,-3.3135,-3.3013,-3.2574,-3.2553,-3.2632,-3.2802,-3.2854,-3.3178,-3.3934,-3.4806,-3.5359,-3.5504,-3.5504,-3.5504,-3.5504,-3.5504,-3.5504,-3.5504,-3.5504,-3.5504,-3.5504,-3.5638,-3.5401,-0.5037,-0.5338,-0.588,-0.6757,-0.7288,-0.7929,-0.955,0.0,0.0,0.0,0.0,0.0,0.0,-1.1698,-1.1844,0.0,0.0,-1.3319,0.0,0.0,0.0,0.0,0.0,0.0,0.0,0.0,0.0,0.0,0.0,-1.8107,-1.7931,-1.8705,-1.9056,-1.8793,-1.9456,-1.9705,-1.9425,-1.9425,-1.9425,-1.9418,-1.9096,-1.8935,-1.8935,-1.8884,-1.8862,-1.8877,0.0,-1.925,-1.9206,-1.9257,-1.925,-1.9177,-1.895,-1.903,-1.9294,-1.8964,-1.9038,-1.9472,-2.0471,-2.1445,-2.2558,-2.418,-2.4788,-2.5089,-2.6197,-2.6747,-2.6948,-2.6948,-2.7129,-2.7309,-2.7309,-2.7309,-2.7309,-2.7309,-2.7394,-2.7715,-2.8538,-2.8817,-2.9222,-3.0215,-3.108,-3.1669,-3.1801,-3.2537,-3.3154,-3.3356,-3.3398,-3.3445,-3.3568,-3.3366,-3.3168,-3.3077,-3.2397,-3.1927,-3.199,-3.2128,-3.2291,-3.2434,-3.3734,-3.4791,-3.5472,-3.5504,-3.5504,-3.5504,-3.5504,-3.5504,-3.5504,-3.5504,-3.5504,-3.5504,-3.5638,-3.5627,-0.482,-0.4988,-0.5301,-0.5852,-0.6747,-0.7925,-0.955,0.0,0.0,0.0,0.0,0.0,0.0,0.0,-1.2089,-1.2527,0.0,-1.3647,0.0,0.0,0.0,0.0,0.0,0.0,0.0,0.0,0.0,0.0,0.0,0.0,-1.6182,-1.6575,-1.712,-1.7699,-1.7955,-1.8233,-1.8557,-1.8702,-1.8928,-1.9324,-1.8942,-1.8789,-1.8782,-1.8606,-1.8525,-1.8547,0.0,-1.9016,-1.903,-1.9258,-1.9279,-1.9257,-1.9111,-1.9038,-1.8994,-1.8847,-1.8884,-1.9162,-2.0152,-2.0788,-2.146,-2.3362,-2.4207,-2.4737,-2.6091,-2.6699,-2.6948,-2.7081,-2.7214,-2.7309,-2.7309,-2.7309,-2.7309,-2.7309,-2.7309,-2.7404,-2.7857,-2.7951,-2.8398,-2.9897,-3.0531,-3.1169,-3.222,-3.2797,-3.3111,-3.324,-3.2962,-3.276,-3.2887,-3.2963,-3.2826,-3.2167,-3.2227,-3.2058,-3.1431,-3.1442,-3.1846,-3.2648,-3.3685,-3.4461,-3.4839,-3.5279,-3.5504,-3.5504,-3.5504,-3.5504,-3.5504,-3.5504,-3.5504,-3.5504,-3.5572,-3.5604,-0.4621,-0.4766,-0.4958,-0.5237,-0.6242,-0.7533,-0.9125,-0.9701,0.0,0.0,0.0,0.0,0.0,-1.1544,0.0,-1.2639,-1.3227,0.0,0.0,0.0,0.0,0.0,0.0,0.0,0.0,0.0,0.0,0.0,0.0,0.0,-1.4323,-1.4454,-1.5071,-1.62,-1.6125,-1.6552,-1.7456,-1.7697,-1.8283,-1.9162,-1.8752,-1.8606,-1.8664,-1.8343,-1.8189,-1.8203,-1.8533,-1.8723,-1.8811,-1.906,-1.9206,-1.9264,-1.9191,-1.9008,-1.8796,-1.8877,-1.8855,-1.8898,-1.9709,-1.9988,-2.0319,-2.2276,-2.3399,-2.4285,-2.5538,-2.6352,-2.6842,-2.7071,-2.7214,-2.7309,-2.7309,-2.7309,-2.7309,-2.7309,-2.7309,-2.7309,-2.7309,-2.7309,-2.7762,-2.9211,-2.9897,-3.0666,-3.2164,-3.2797,-3.3031,-3.2893,-3.2616,-3.2315,-3.2051,-3.2472,-3.2414,-3.143,-3.1992,-3.2045,-3.1065,-3.0986,-3.1482,-3.2627,-3.3561,-3.4109,-3.4279,-3.5052,-3.5504,-3.5504,-3.5504,-3.5504,-3.5504,-3.5504,-3.5504,-3.5504,-3.5504,-3.5504,-0.4423,-0.4507,-0.4836,-0.5715,-0.5582,-0.5746,-0.7761,-0.8061,0.0,-1.0205,0.0,0.0,0.0,-1.0929,-1.1691,-1.2506,0.0,0.0,0.0,0.0,0.0,0.0,0.0,0.0,0.0,0.0,0.0,0.0,0.0,0.0,-1.2569,-1.3058,-1.3417,-1.3677,-1.423,-1.5065,-1.611,-1.6417,-1.7294,-1.8818,-1.8182,-1.8043,-1.8328,-1.7999,-1.7852,-1.7867,-1.8196,-1.8511,-1.8789,-1.8811,-1.9001,-1.925,-1.8942,-1.8811,-1.8825,-1.9133,-1.9052,-1.8833,-1.9236,-1.9192,-1.9188,-2.0589,-2.1769,-2.2844,-2.3939,-2.5343,-2.6544,-2.6544,-2.6928,-2.7309,-2.7309,-2.7309,-2.7309,-2.7309,-2.7309,-2.7309,-2.7309,-2.7309,-2.7357,-2.7489,-2.8991,-3.026,-3.0396,-3.1901,-3.2893,-3.2353,-3.2692,-3.2629,-3.1587,-3.2079,-3.2333,-3.1818,-3.1652,-3.1435,-3.1039,-3.0986,-3.1061,-3.1161,-3.2484,-3.3596,-3.4279,-3.5052,-3.5504,-3.5504,-3.5504,-3.5504,-3.5504,-3.5504,-3.5504,-3.5504,-3.5504,-3.5504,-0.4176,-0.4269,-0.4465,-0.4862,-0.4732,-0.5285,-0.8049,-0.8499,-0.8686,-1.0026,-1.0594,0.0,0.0,0.0,-1.1395,-1.1846,0.0,0.0,0.0,0.0,0.0,0.0,0.0,0.0,0.0,0.0,0.0,0.0,0.0,0.0,-1.1535,-1.1429,-1.1779,-1.27,-1.2754,-1.3236,-1.4172,-1.446,-1.4986,-1.5807,-1.7183,-1.7882,-1.7991,-1.7662,-1.7508,-1.753,-1.7852,-1.8072,-1.8196,-1.8401,-1.8555,-1.8635,-1.8313,-1.843,-1.8782,-1.8701,-1.8723,-1.884,-1.9162,-1.906,-1.9036,-2.0417,-2.1183,-2.1836,-2.3791,-2.4786,-2.5441,-2.6245,-2.6794,-2.7081,-2.7262,-2.7309,-2.7309,-2.7309,-2.7309,-2.7309,-2.7309,-2.7309,-2.7489,-2.8034,-2.8771,-2.9452,-3.0079,-3.1041,-3.1712,-3.1791,-3.1935,-3.2001,-3.1913,-3.231,-3.2219,-3.1318,-3.1086,-3.115,-3.1471,-3.1196,-3.0986,-3.0986,-3.1955,-3.2648,-3.2918,-3.3679,-3.4274,-3.4758,-3.4758,-3.4986,-3.5504,-3.5504,-3.5504,-3.5504,-3.5504,-3.5504,-0.3901,-0.3941,-0.4091,-0.4325,-0.4538,0.0,-0.7958,-0.8367,-0.8516,-0.9773,-1.0321,-1.0581,-1.0702,0.0,0.0,0.0,0.0,0.0,0.0,0.0,0.0,0.0,0.0,0.0,0.0,0.0,0.0,0.0,0.0,0.0,0.0,-1.0261,-1.0467,-1.1496,-1.128,-1.1569,-1.249,-1.277,-1.3186,-1.3751,-1.5554,-1.6684,-1.7071,-1.7236,-1.7286,-1.7207,-1.752,-1.7721,-1.783,-1.8057,-1.8145,-1.8138,-1.8013,-1.8182,-1.8467,-1.835,-1.8445,-1.8664,-1.8891,-1.8818,-1.8838,-1.9913,-2.0472,-2.1089,-2.285,-2.389,-2.4688,-2.5596,-2.6304,-2.6842,-2.7071,-2.7214,-2.7309,-2.7309,-2.7309,-2.7309,-2.7309,-2.7309,-2.7489,-2.8128,-2.8491,-2.8899,-2.9624,-3.0196,-3.0795,-3.1261,-3.1272,-3.1332,-3.1659,-3.1987,-3.1899,-3.1014,-3.0714,-3.0853,-3.1395,-3.1171,-3.0986,-3.0986,-3.1468,-3.1882,-3.2074,-3.2791,-3.3422,-3.3939,-3.3973,-3.4225,-3.4754,-3.4754,-3.4887,-3.5133,-3.5133,-3.5246,-0.3524,-0.3563,-0.3778,-0.442,0.0,0.0,-0.7281,-0.7279,-0.7482,-0.9257,-0.9482,-0.9602,-1.0275,-1.0413,0.0,-1.0819,0.0,0.0,0.0,0.0,0.0,0.0,0.0,0.0,0.0,0.0,0.0,0.0,0.0,0.0,0.0,-0.9819,-0.9701,-0.9876,-0.9713,-1.0109,-1.117,-1.1468,-1.2096,-1.3071,-1.3349,-1.4201,-1.5501,-1.6755,-1.7153,-1.6979,-1.7192,-1.7461,-1.7808,-1.7808,-1.7808,-1.7845,-1.8167,-1.8094,-1.7852,-1.8174,-1.8299,-1.8299,-1.8299,-1.8299,-1.835,-1.8679,-1.9517,-2.0466,-2.0766,-2.2576,-2.4482,-2.4482,-2.5441,-2.6544,-2.6794,-2.7081,-2.7309,-2.7309,-2.7309,-2.7309,-2.7309,-2.7309,-2.7309,-2.7309,-2.8034,-2.8678,-2.8678,-2.9532,-3.0312,-3.0699,-3.08,-3.0767,-3.0651,-3.1072,-3.1266,-3.0936,-3.0598,-3.0482,-3.0711,-3.0874,-3.0986,-3.0986,-3.0986,-3.1334,-3.2037,-3.2791,-3.3178,-3.3178,-3.3178,-3.3178,-3.3178,-3.3178,-3.3596,-3.4279,-3.4279,-3.4725,-0.3558,-0.3958,-0.4474,-0.4781,0.0,0.0,0.0,-0.7483,0.0,0.0,-0.9239,-0.9571,-0.9692,0.0,0.0,0.0,0.0,0.0,0.0,0.0,0.0,0.0,0.0,0.0,0.0,0.0,0.0,0.0,0.0,0.0,0.0,-0.9429,-0.9506,-0.9559,-0.9587,-0.9772,-1.006,-1.0158,-1.0355,-1.065,-1.1658,-1.2851,-1.4135,-1.5213,-1.5663,-1.5622,-1.6433,-1.6968,-1.7257,-1.7385,-1.7425,-1.7479,-1.7582,-1.7699,-1.783,-1.7925,-1.7962,-1.7991,-1.8218,-1.8152,-1.8013,-1.8343,-1.8637,-1.909,-1.9966,-2.1385,-2.2926,-2.3657,-2.5006,-2.6224,-2.6161,-2.6561,-2.7081,-2.7262,-2.7309,-2.7309,-2.7309,-2.7309,-2.7309,-2.7309,-2.7536,-2.7715,-2.7715,-2.8221,-2.8732,-2.9251,-3.0185,-3.1168,-3.2201,-3.1474,-3.1153,-3.2016,-3.0953,-3.042,-3.101,-3.088,-3.0811,-3.0811,-3.0911,-3.1086,-3.1334,-3.1542,-3.1896,-3.2434,-3.2434,-3.2684,-3.3178,-3.3178,-3.3318,-3.3526,-3.3526,-3.3644,-0.4138,-0.4582,0.0,-0.5658,-0.6384,-0.7195,-0.7912,0.0,0.0,0.0,-0.9331,-0.9596,-0.9482,-0.9693,0.0,0.0,0.0,0.0,0.0,0.0,0.0,0.0,0.0,0.0,0.0,0.0,0.0,0.0,0.0,0.0,0.0,-0.9384,-0.9404,-0.9404,-0.9397,-0.9449,-0.9518,-0.9518,-0.9555,-0.9628,-1.04,-1.1224,-1.2042,-1.4076,-1.5188,-1.5534,-1.64,-1.6831,-1.7026,-1.72,-1.7279,-1.7279,-1.7279,-1.7403,-1.7618,-1.7618,-1.7618,-1.7647,-1.7845,-1.7786,-1.7677,-1.7999,-1.8108,-1.8228,-1.9025,-2.0167,-2.1404,-2.2421,-2.3763,-2.4966,-2.5513,-2.6081,-2.6578,-2.6935,-2.7175,-2.7309,-2.7309,-2.7309,-2.7309,-2.7309,-2.7309,-2.7309,-2.7309,-2.7483,-2.7825,-2.8337,-2.945,-3.0664,-3.1926,-3.1035,-3.0572,-3.14,-3.0645,-3.0292,-3.0739,-3.0739,-3.0698,-3.0698,-3.0874,-3.0986,-3.0986,-3.0986,-3.1222,-3.164,-3.1676,-3.1882,-3.2318,-3.2318,-3.2484,-3.2755,-3.2755,-3.2932,-0.4902,-0.5306,-0.5847,-0.677,-0.7504,0.0,-0.8339,-0.9018,-0.9575,-0.9505,0.0,-0.964,-0.9608,-0.9758,0.0,0.0,0.0,0.0,0.0,0.0,0.0,0.0,0.0,0.0,0.0,0.0,0.0,0.0,0.0,0.0,0.0,-0.9388,-0.9355,-0.9355,-0.9169,-0.9173,-0.9375,-0.938,-0.9417,-0.953,-0.953,-0.9579,-0.9821,-1.3236,-1.5289,-1.6177,-1.6697,-1.6932,-1.6932,-1.7145,-1.7232,-1.7286,-1.7286,-1.7279,-1.7279,-1.7279,-1.7279,-1.7279,-1.7279,-1.7279,-1.733,-1.7677,-1.7772,-1.783,-1.8123,-1.8995,-2.0031,-2.1018,-2.2064,-2.3269,-2.4914,-2.5523,-2.5816,-2.6341,-2.69,-2.7309,-2.7309,-2.7309,-2.7309,-2.7309,-2.7278,-2.7247,-2.7247,-2.7206,-2.7369,-2.7922,-2.8594,-2.9414,-3.0493,-3.0075,-2.9727,-2.9867,-2.9997,-3.0075,-3.0075,-3.0419,-3.066,-3.066,-3.0849,-3.0986,-3.0986,-3.0986,-3.0986,-3.0986,-3.0986,-3.0986,-3.0986,-3.0986,-3.132,-3.2015,-3.2015,-3.2376,-0.4503,-0.5451,0.0,-0.6938,-0.7979,-0.8945,-0.9242,-0.9452,-0.9391,-0.8713,-0.9236,-0.9746,-0.9514,-0.9673,0.0,0.0,0.0,0.0,0.0,0.0,0.0,0.0,0.0,0.0,0.0,0.0,0.0,0.0,0.0,0.0,-0.88,-0.8885,-0.8934,-0.8934,-0.9039,-0.9116,-0.9153,-0.9153,-0.9173,0.0,-0.9214,-0.9626,-1.0463,-1.2315,-1.4178,-1.5879,-1.6218,-1.6366,-1.6414,-1.6636,-1.6871,-1.7066,-1.7066,-1.7153,-1.7279,-1.7279,-1.7279,-1.7279,-1.7279,-1.7279,-1.7293,-1.7359,-1.7388,-1.7395,-1.7468,-1.8453,-1.9614,-2.0087,-2.1189,-2.2505,-2.3849,-2.4457,-2.489,-2.5388,-2.6439,-2.7309,-2.7309,-2.7309,-2.7309,-2.7309,-2.7009,-2.677,-2.677,-2.647,-2.6624,-2.7824,-2.748,-2.7972,-3.0429,-2.9602,-2.9199,-3.0303,-3.0094,-2.9869,-2.9869,-3.0228,-3.0406,-3.0228,-3.0584,-3.0773,-3.0773,-3.0911,-3.0986,-3.0986,-3.0986,-3.0986,-3.0986,-3.0986,-3.1086,-3.1222,-3.1222,-3.1334,-0.4953,0.0,0.0,-0.7715,0.0,-0.9145,-0.9332,-0.9372,-0.9248,-0.8775,-0.9203,-0.9624,-0.9437,0.0,0.0,0.0,0.0,0.0,0.0,0.0,0.0,0.0,0.0,0.0,0.0,0.0,0.0,0.0,0.0,-0.8735,-0.8816,-0.882,-0.882,-0.882,-0.8836,-0.8885,-0.8962,-0.8966,-0.9011,-0.9096,-0.9007,-0.9509,-1.0555,-1.1853,-1.3355,-1.4948,-1.5243,-1.5658,-1.6224,-1.6494,-1.6683,-1.6831,-1.6932,-1.7066,-1.7153,-1.7286,-1.7279,-1.7279,-1.7279,-1.7279,-1.7279,-1.7279,-1.7279,-1.7279,-1.7279,-1.7811,-1.8534,-1.9186,-2.0013,-2.0956,-2.2093,-2.316,-2.3945,-2.428,-2.5644,-2.6867,-2.6783,-2.6964,-2.7057,-2.6972,-2.6781,-2.6542,-2.6324,-2.6086,-2.6309,-2.7476,-2.6977,-2.721,-2.9199,-2.851,-2.8279,-2.9472,-2.933,-2.9339,-2.9753,-3.0075,-3.0228,-3.0113,-3.0381,-3.0571,-3.0571,-3.0647,-3.0785,-3.0986,-3.0986,-3.0986,-3.0986,-3.0986,-3.0986,-3.0986,-3.0986,-3.0843,-0.5365,0.0,-0.7093,-0.838,-0.8869,0.0,-0.9084,-0.9096,-0.9096,-0.9096,-0.921,-0.9347,0.0,0.0,0.0,0.0,0.0,0.0,0.0,0.0,0.0,0.0,0.0,0.0,0.0,0.0,0.0,0.0,0.0,-0.8649,-0.8942,-0.8812,-0.8731,-0.8731,-0.8625,-0.8621,-0.8727,-0.8759,-0.8852,-0.9003,-0.8852,-0.9225,-1.0121,-1.1101,-1.2356,-1.3742,-1.4167,-1.4944,-1.5886,-1.6305,-1.6487,-1.6541,-1.6784,-1.6885,-1.6925,-1.7099,-1.7192,-1.7239,-1.7239,-1.7286,-1.7279,-1.7279,-1.7279,-1.7279,-1.7279,-1.7279,-1.7481,-1.8357,-1.8856,-1.9407,-2.0666,-2.1984,-2.3063,-2.3392,-2.4855,-2.6117,-2.6052,-2.6394,-2.6693,-2.6455,-2.6392,-2.6185,-2.573,-2.5647,-2.5936,-2.6788,-2.6487,-2.6549,-2.7614,-2.7348,-2.7476,-2.8422,-2.8621,-2.9,-2.9753,-2.9972,-3.0075,-3.0049,-3.0228,-3.0368,-3.0368,-3.0368,-3.052,-3.0911,-3.0949,-3.0986,-3.0986,-3.0986,-3.0986,-3.0986,-3.0986,-3.0725,-0.4439,0.0,-0.6989,0.0,-0.8499,-0.8763,0.0,0.0,-0.9096,0.0,-0.9116,0.0,0.0,0.0,0.0,0.0,0.0,0.0,0.0,0.0,0.0,0.0,0.0,0.0,0.0,0.0,0.0,0.0,-0.8353,-0.8349,-0.8398,-0.8373,-0.8361,-0.8361,-0.8539,-0.8543,-0.8361,-0.8519,-0.8657,-0.8682,-0.8657,-0.8689,-0.8865,-0.9019,-1.0384,-1.2747,-1.3648,-1.4233,-1.4634,-1.554,-1.6021,-1.6265,-1.6272,-1.6454,-1.6683,-1.6683,-1.6824,-1.7019,-1.7019,-1.7153,-1.7279,-1.7279,-1.7279,-1.7279,-1.7279,-1.7279,-1.7384,-1.7812,-1.8178,-1.8863,-2.0816,-2.1721,-2.2373,-2.3486,-2.4238,-2.4812,-2.5223,-2.5853,-2.6176,-2.5829,-2.5554,-2.522,-2.4755,-2.4673,-2.4861,-2.5386,-2.5086,-2.522,-2.6539,-2.6922,-2.7476,-2.8422,-2.917,-2.9663,-2.9792,-2.9972,-3.0049,-2.9869,-3.0049,-3.0152,-3.0152,-3.0152,-3.0267,-3.0482,-3.0647,-3.0849,-3.0986,-3.0986,-3.0986,-3.0986,-3.0986,-3.0947,-0.4723,-0.5689,-0.6674,0.0,-0.8126,-0.83,-0.8455,0.0,-0.8771,-0.8666,0.0,0.0,0.0,0.0,0.0,0.0,0.0,0.0,0.0,0.0,0.0,0.0,0.0,0.0,0.0,0.0,0.0,0.0,-0.8044,-0.8122,-0.828,-0.8292,-0.8292,-0.8292,-0.8369,-0.8373,-0.8292,-0.8369,-0.841,-0.8414,-0.8563,-0.8555,-0.8418,-0.8563,-0.9584,-1.1344,-1.1801,-1.24,-1.3187,-1.417,-1.464,-1.4844,-1.5671,-1.6064,-1.6178,-1.6479,-1.6784,-1.6979,-1.6979,-1.7106,-1.7279,-1.7279,-1.7279,-1.7279,-1.7279,-1.7279,-1.7308,-1.7501,-1.7779,-1.8178,-1.8925,-1.9749,-2.069,-2.158,-2.2537,-2.3383,-2.3894,-2.4887,-2.5569,-2.5402,-2.5073,-2.4735,-2.4538,-2.4714,-2.4869,-2.4817,-2.4848,-2.5032,-2.5337,-2.5519,-2.6008,-2.6894,-2.7758,-2.8502,-2.904,-2.9611,-2.9908,-2.9792,-2.9869,-2.9934,-2.9934,-2.9934,-3.0049,-3.0228,-3.0546,-3.0736,-3.0849,-3.0949,-3.0986,-3.0986,-3.0986,-3.0817,0.0,0.0,-0.6023,-0.7103,-0.7517,-0.7687,0.0,0.0,-0.8337,0.0,0.0,0.0,0.0,0.0,0.0,0.0,0.0,0.0,0.0,0.0,0.0,0.0,0.0,0.0,0.0,0.0,0.0,0.0,-0.776,-0.7865,-0.8138,-0.8154,-0.8154,-0.8154,-0.8195,-0.8219,-0.8219,-0.8312,-0.8361,-0.8361,-0.8547,-0.8539,-0.8365,-0.8547,-0.9076,-0.996,-1.0279,-1.091,-1.1889,-1.2848,-1.3217,-1.3377,-1.4734,-1.5291,-1.5424,-1.6059,-1.6572,-1.6885,-1.6885,-1.7059,-1.7279,-1.7279,-1.7279,-1.7279,-1.7279,-1.7279,-1.7279,-1.7279,-1.756,-1.779,-1.7688,-1.8496,-1.946,-2.0053,-2.0993,-2.208,-2.3109,-2.4133,-2.4881,-2.4944,-2.4691,-2.4497,-2.4497,-2.4786,-2.489,-2.4549,-2.4797,-2.489,-2.4549,-2.47,-2.5105,-2.5746,-2.6565,-2.7395,-2.8091,-2.8752,-2.9209,-2.9456,-2.9456,-2.9585,-2.9792,-2.9792,-2.9869,-3.0011,-3.0356,-3.0584,-3.0609,-3.0849,-3.0911,-3.0911,-3.0986,-3.0764,0.0,-0.4271,0.0,-0.5971,-0.6469,0.0,0.0,0.0,0.0,0.0,0.0,0.0,0.0,0.0,0.0,0.0,0.0,0.0,0.0,0.0,0.0,0.0,0.0,0.0,0.0,0.0,0.0,0.0,-0.75,-0.762,-0.7816,-0.7829,-0.7829,-0.7829,-0.7943,-0.8028,-0.8028,-0.8377,-0.8596,-0.8596,-0.8608,-0.8608,-0.8596,-0.8608,-0.8616,-0.8765,-0.991,-1.0503,-1.0782,-1.1844,-1.2255,-1.2352,-1.3326,-1.3854,-1.422,-1.5127,-1.5964,-1.6629,-1.6629,-1.6911,-1.7279,-1.7279,-1.7279,-1.7279,-1.7279,-1.7279,-1.7279,-1.7279,-1.756,-1.7927,-1.8559,-1.9011,-1.946,-2.0053,-2.0249,-2.0995,-2.3518,-2.3953,-2.3954,-2.4194,-2.4389,-2.4497,-2.4497,-2.4518,-2.4528,-2.4507,-2.4518,-2.4528,-2.4497,-2.5221,-2.5746,-2.5777,-2.6565,-2.711,-2.7191,-2.7232,-2.7597,-2.8502,-2.8581,-2.8922,-2.9753,-2.9792,-2.9792,-2.983,-3.0011,-3.0228,-3.0406,-3.0609,-3.0736,-3.0736,-3.0911,-3.096,0.0,0.0,0.0,-0.4577,-0.5297,-0.5932,-0.6288,-0.692,0.0,0.0,0.0,0.0,0.0,0.0,0.0,0.0,0.0,0.0,0.0,0.0,0.0,0.0,0.0,0.0,0.0,0.0,0.0,0.0,0.0,-0.6513,-0.7259,-0.7336,-0.7516,-0.7923,-0.7979,-0.7959,-0.789,-0.8089,-0.8211,-0.8211,-0.8211,-0.8211,-0.8211,-0.8211,-0.8276,-0.8437,-0.8884,-0.9148,-0.9374,-1.0341,-1.0741,-1.0884,-1.2593,-1.3489,-1.3887,-1.4996,-1.5818,-1.6359,-1.6359,-1.669,-1.7113,-1.7113,-1.72,-1.7279,-1.7279,-1.7279,-1.7279,-1.7279,-1.7366,-1.7519,-1.7768,-1.7922,-1.8209,-1.9088,-1.9786,-2.0628,-2.2236,-2.3101,-2.3711,-2.411,-2.4249,-2.4325,-2.4497,-2.4497,-2.4497,-2.4497,-2.4497,-2.4497,-2.4497,-2.4775,-2.4978,-2.4978,-2.5757,-2.6276,-2.6276,-2.6771,-2.7232,-2.7597,-2.7597,-2.8011,-2.8922,-2.8961,-2.9209,-2.9792,-2.9869,-3.0011,-3.0228,-3.0406,-3.0302,-2.9918,-2.998,-2.9934,-0.2954,0.0,0.0,0.0,0.0,-0.4766,-0.5317,0.0,0.0,0.0,0.0,0.0,0.0,0.0,0.0,0.0,0.0,0.0,0.0,0.0,0.0,0.0,0.0,0.0,0.0,0.0,0.0,0.0,0.0,0.0,-0.6498,-0.6616,-0.6948,-0.756,-0.7805,-0.7874,-0.7804,-0.7992,-0.8105,-0.8105,-0.8105,-0.8105,-0.8105,-0.804,-0.8081,-0.8199,-0.8264,-0.8394,-0.8656,-0.9213,-0.9471,-0.9655,-1.1712,-1.268,-1.3168,-1.4676,-1.5623,-1.6088,-1.619,-1.6501,-1.6878,-1.6878,-1.6965,-1.7099,-1.7145,-1.72,-1.7192,-1.7279,-1.7279,-1.7279,-1.7279,-1.7279,-1.7466,-1.8149,-1.9018,-2.0014,-2.0962,-2.2138,-2.3222,-2.3937,-2.4153,-2.4249,-2.4454,-2.4497,-2.4497,-2.4497,-2.4497,-2.4497,-2.4497,-2.4497,-2.4497,-2.4497,-2.502,-2.5337,-2.5337,-2.5883,-2.6329,-2.6659,-2.6648,-2.7058,-2.8011,-2.8011,-2.8303,-2.8882,-2.8985,-2.9119,-2.9261,-2.9771,-2.9769,-2.9411,-2.9294,-2.9158,0.0,0.0,0.0,0.0,0.0,0.0,-0.472,0.0,0.0,0.0,0.0,0.0,0.0,0.0,0.0,0.0,0.0,0.0,0.0,0.0,0.0,0.0,0.0,0.0,0.0,0.0,0.0,0.0,-0.5374,-0.5472,-0.5571,-0.5714,-0.608,-0.6652,-0.7409,-0.7764,-0.776,-0.8101,-0.8272,-0.8268,-0.8268,-0.8268,-0.826,-0.8081,-0.8004,-0.8024,-0.8203,-0.839,-0.8612,-0.8612,-0.8612,-0.8784,-1.0549,-1.1467,-1.2021,-1.4174,-1.5287,-1.5775,-1.6075,-1.6359,-1.6588,-1.6588,-1.6581,-1.6636,-1.6925,-1.6979,-1.7019,-1.7239,-1.7279,-1.7279,-1.7279,-1.7279,-1.7279,-1.7279,-1.8056,-1.9018,-1.996,-2.1087,-2.2262,-2.357,-2.398,-2.4249,-2.4454,-2.4497,-2.4497,-2.4497,-2.4497,-2.4497,-2.4497,-2.4497,-2.4497,-2.4497,-2.4497,-2.4497,-2.4497,-2.4497,-2.4861,-2.5704,-2.5746,-2.6152,-2.7028,-2.7069,-2.7069,-2.711,-2.74,-2.7567,-2.7555,-2.8637,-2.9174,-2.9149,-2.8786,-2.8746,-0.1783,0.0,0.0,0.0,0.0,0.0,0.0,0.0,0.0,0.0,0.0,0.0,0.0,0.0,0.0,0.0,0.0,0.0,0.0,0.0,0.0,0.0,0.0,0.0,0.0,0.0,0.0,0.0,-0.3478,-0.3937,-0.4563,-0.5434,-0.606,-0.6324,-0.6895,-0.7152,-0.6998,-0.7615,-0.7882,-0.7707,-0.7707,-0.7707,-0.7703,-0.7655,-0.7768,-0.8016,-0.8065,-0.8272,-0.8612,-0.8612,-0.8612,-0.87,-0.9859,-1.0509,-1.1039,-1.3213,-1.422,-1.4636,-1.5583,-1.6076,-1.6312,-1.6312,-1.6447,-1.6636,-1.6683,-1.6831,-1.7026,-1.7073,-1.72,-1.7279,-1.7279,-1.7279,-1.7279,-1.7279,-1.7512,-1.7971,-1.8972,-1.9467,-2.0458,-2.3081,-2.3634,-2.3764,-2.397,-2.4153,-2.4282,-2.4282,-2.4411,-2.4497,-2.4497,-2.4497,-2.4497,-2.4497,-2.4497,-2.4497,-2.4497,-2.4497,-2.4615,-2.4818,-2.4861,-2.5263,-2.611,-2.6152,-2.6453,-2.711,-2.6896,-2.6799,-2.6799,-2.7889,-2.8195,-2.7828,-2.7449,-2.7369,0.0,0.0,0.0,0.0,0.0,0.0,-0.2648,-0.3112,0.0,0.0,0.0,0.0,0.0,0.0,0.0,0.0,0.0,0.0,0.0,0.0,0.0,0.0,0.0,0.0,0.0,-0.2134,-0.2188,-0.2188,-0.251,-0.2949,-0.3547,-0.447,-0.5027,-0.5142,-0.567,-0.604,-0.6274,-0.6774,-0.7092,-0.7253,-0.7324,-0.7363,-0.7369,-0.7288,-0.7438,-0.7797,-0.7749,-0.7986,-0.8341,-0.8422,-0.8539,-0.8696,-0.9559,-1.0022,-1.0416,-1.2199,-1.299,-1.3333,-1.459,-1.5205,-1.5499,-1.5886,-1.6116,-1.6298,-1.6541,-1.673,-1.6878,-1.7066,-1.7192,-1.7279,-1.7279,-1.7279,-1.7279,-1.7279,-1.7279,-1.7606,-1.8557,-1.8788,-1.9604,-2.2359,-2.2862,-2.3081,-2.3711,-2.3937,-2.4024,-2.4024,-2.4153,-2.4239,-2.4368,-2.4368,-2.4411,-2.4497,-2.4497,-2.4497,-2.4497,-2.4497,-2.4425,-2.4281,-2.426,-2.4378,-2.4687,-2.4718,-2.4964,-2.5444,-2.5368,-2.5399,-2.549,-2.6363,-2.6542,-2.596,-2.6148,-2.6289,0.0,0.0,0.0,0.0,0.0,0.0,-0.2772,-0.3023,-0.3366,0.0,0.0,0.0,0.0,0.0,0.0,0.0,0.0,0.0,0.0,0.0,0.0,0.0,0.0,0.0,-0.1635,-0.1911,-0.2087,-0.2087,-0.2192,-0.2391,-0.2659,-0.3203,-0.3526,-0.3592,-0.413,-0.4755,-0.5465,-0.5776,-0.6241,-0.68,-0.7011,-0.7158,-0.7211,-0.703,-0.7146,-0.7525,-0.7478,-0.7648,-0.8028,-0.8215,-0.8398,-0.87,-0.9471,-0.9772,-0.9926,-1.1199,-1.1716,-1.2011,-1.3327,-1.3908,-1.4208,-1.5111,-1.5489,-1.5637,-1.6142,-1.6391,-1.664,-1.7131,-1.7279,-1.7279,-1.7279,-1.7279,-1.7279,-1.7279,-1.7279,-1.7559,-1.8427,-1.8611,-1.9239,-2.1266,-2.1721,-2.2173,-2.3343,-2.357,-2.3657,-2.3754,-2.3797,-2.3894,-2.411,-2.4163,-2.4282,-2.4454,-2.4497,-2.4497,-2.4497,-2.4497,-2.4311,-2.3908,-2.3919,-2.367,-2.3205,-2.3184,-2.3184,-2.3184,-2.3445,-2.3665,-2.3866,-2.4542,-2.4604,-2.4108,-2.5016,-2.5452,0.0,0.0,0.0,0.0,0.0,0.0,-0.1554,-0.1557,-0.177,0.0,0.0,0.0,0.0,0.0,0.0,0.0,0.0,0.0,0.0,0.0,0.0,0.0,0.0,0.0,-0.1219,-0.1281,-0.1311,-0.1311,-0.1663,-0.2096,-0.2578,-0.2791,-0.2915,-0.299,-0.3643,-0.4023,-0.4106,-0.5445,-0.6144,-0.6103,-0.6794,-0.7179,-0.7347,-0.7208,-0.7375,-0.7747,-0.7744,-0.7813,-0.8028,-0.8215,-0.8398,-0.8612,-0.8784,-0.8872,-0.8981,-1.0222,-1.0681,-1.088,-1.2107,-1.259,-1.2629,-1.2859,-1.3417,-1.4101,-1.4412,-1.5192,-1.6102,-1.6861,-1.72,-1.7279,-1.7279,-1.7279,-1.7279,-1.7279,-1.7279,-1.7372,-1.7552,-1.7598,-1.7971,-1.9193,-2.0051,-2.0872,-2.1917,-2.2227,-2.2624,-2.345,-2.3711,-2.3841,-2.3884,-2.4067,-2.4206,-2.4239,-2.4411,-2.4497,-2.4497,-2.4497,-2.4311,-2.3908,-2.3919,-2.367,-2.3205,-2.3184,-2.3184,-2.3184,-2.2877,-2.2562,-2.2241,-2.3601,-2.4212,-2.4108,-2.4289,-2.448,0.0,0.0,0.0,-0.1189,0.0,0.0,0.0,-0.1643,-0.1824,-0.2578,-0.27,-0.276,-0.3173,0.0,0.0,0.0,0.0,0.0,0.0,0.0,0.0,0.0,0.0,0.0,-0.1109,-0.1109,-0.1116,-0.1097,-0.1322,-0.1596,-0.1916,-0.1946,-0.2,-0.2049,-0.2442,-0.2835,-0.3156,-0.4003,-0.4739,-0.5376,-0.5824,-0.6354,-0.6834,-0.6799,-0.6956,-0.7344,-0.723,-0.7402,-0.7724,-0.7816,-0.8042,-0.8308,-0.8539,-0.8612,-0.8664,-0.9279,-0.9549,-0.9777,-1.0915,-1.1339,-1.1472,-1.2027,-1.2535,-1.3059,-1.3777,-1.4839,-1.591,-1.6603,-1.6858,-1.695,-1.7117,-1.7239,-1.7279,-1.7279,-1.7208,-1.7091,-1.7091,-1.7091,-1.7276,-1.7774,-1.8215,-1.9208,-2.1346,-2.2183,-2.2721,-2.3232,-2.3406,-2.3493,-2.3624,-2.3764,-2.3937,-2.4153,-2.4292,-2.4329,-2.4229,-2.4209,-2.3919,-2.3225,-2.3184,-2.2977,-2.2511,-2.2501,-2.2501,-2.2501,-2.2273,-2.2035,-2.1807,-2.2569,-2.2957,-2.2957,-2.3364,-2.3596,0.0,0.0,0.0,0.0,0.0,-0.1359,0.0,0.0,0.0,-0.275,-0.2838,-0.2801,0.0,0.0,0.0,0.0,0.0,0.0,0.0,0.0,0.0,0.0,0.0,0.0,0.0,-0.1113,-0.1086,-0.111,-0.1095,-0.1163,-0.1264,-0.1224,-0.1254,-0.1286,-0.1369,-0.1722,-0.2366,-0.2547,-0.3271,-0.4419,-0.4687,-0.5228,-0.5925,-0.61,-0.6361,-0.6677,-0.6684,-0.693,-0.73,-0.7334,-0.7548,-0.7914,-0.8369,-0.8559,-0.8563,-0.86,-0.8653,-0.8906,-0.9754,-1.0125,-1.0346,-1.1212,-1.1788,-1.2326,-1.3489,-1.466,-1.5725,-1.622,-1.6412,-1.6518,-1.6775,-1.7016,-1.7239,-1.7239,-1.7084,-1.6903,-1.6903,-1.6851,-1.6807,-1.6807,-1.6936,-1.7928,-2.0606,-2.1599,-2.222,-2.2578,-2.2621,-2.279,-2.3235,-2.3262,-2.3414,-2.3892,-2.3917,-2.3851,-2.366,-2.367,-2.3309,-2.2513,-2.2462,-2.2255,-2.1828,-2.1807,-2.1807,-2.1807,-2.1807,-2.1807,-2.1807,-2.1807,-2.1807,-2.1807,-2.2478,-2.2777,0.0,0.0,0.0,0.0,-0.1288,0.0,0.0,0.0,-0.1329,-0.1336,0.0,-0.1345,-0.1349,0.0,0.0,0.0,0.0,0.0,0.0,0.0,0.0,0.0,0.0,0.0,0.0,-0.1091,-0.1111,-0.1114,-0.1102,-0.1122,-0.1136,-0.121,-0.1296,-0.1307,-0.1347,-0.1432,-0.1514,-0.243,-0.2935,-0.3134,-0.386,-0.4331,-0.4643,-0.536,-0.5752,-0.5882,-0.6683,-0.701,-0.6979,-0.7091,-0.7282,-0.7528,-0.8094,-0.8321,-0.8341,-0.8551,-0.8624,-0.8641,-0.8773,-0.883,-0.8842,-0.8975,-1.0322,-1.2032,-1.2918,-1.4192,-1.5353,-1.5421,-1.5847,-1.6232,-1.6214,-1.6618,-1.7026,-1.7026,-1.696,-1.6903,-1.6903,-1.6675,-1.647,-1.647,-1.711,-1.7906,-1.8568,-1.8542,-1.898,-2.0631,-2.0894,-2.1278,-2.2444,-2.2466,-2.2544,-2.2983,-2.2894,-2.2766,-2.2757,-2.2746,-2.2615,-2.2266,-2.2225,-2.2099,-2.1828,-2.1807,-2.1807,-2.1807,-2.1807,-2.1807,-2.1807,-2.1807,-2.1807,-2.1807,-2.1883,-2.1959,0.0,0.0,0.0,0.0,0.0,0.0,-0.1062,0.0,-0.1204,0.0,0.0,0.0,0.0,0.0,0.0,0.0,-0.1315,0.0,0.0,0.0,0.0,0.0,0.0,0.0,0.0,0.0,0.0,0.0,-0.1087,-0.111,-0.1145,-0.1221,-0.1259,-0.1295,-0.1328,-0.1323,-0.1323,-0.1808,-0.2271,-0.2726,-0.3048,-0.353,-0.4077,-0.4417,-0.484,-0.5302,-0.5706,-0.6185,-0.6718,-0.6787,-0.693,-0.7144,-0.7473,-0.7897,-0.8312,-0.8543,-0.8543,-0.8422,-0.8571,-0.8539,-0.8426,-0.8575,-0.953,-1.0798,-1.1373,-1.2219,-1.3173,-1.4078,-1.4449,-1.4807,-1.567,-1.6274,-1.6703,-1.6646,-1.6629,-1.6573,-1.6345,-1.6206,-1.6104,-1.6104,-1.6443,-1.6741,-1.6877,-1.7881,-1.8939,-1.9715,-1.9698,-1.9991,-2.1254,-2.1161,-2.1363,-2.2391,-2.2396,-2.231,-2.2221,-2.2321,-2.2198,-2.1818,-2.1904,-2.1937,-2.1818,-2.1807,-2.1807,-2.1807,-2.1807,-2.1807,-2.1807,-2.1807,-2.1807,-2.1807,-2.1807,-2.1807,0.1955,0.0,0.0,0.0,0.0,0.0,0.0,0.0,0.0,0.0,0.0,0.0,0.0,0.0,-0.108,0.0,0.0,-0.108,0.0,0.0,0.0,0.0,0.0,0.0,0.0,0.0,0.0,0.0,0.0,-0.1133,-0.1187,-0.1198,-0.1228,-0.1282,-0.1303,-0.1298,-0.1305,-0.1354,-0.168,-0.2275,-0.2275,-0.256,-0.3161,-0.3416,-0.4006,-0.4787,-0.4999,-0.5645,-0.6585,-0.6542,-0.6641,-0.6841,-0.6972,-0.7426,-0.8002,-0.8229,-0.8304,-0.8295,-0.8428,-0.8435,-0.839,-0.8567,-0.917,-0.9931,-1.017,-1.0767,-1.1527,-1.2632,-1.3004,-1.3347,-1.4668,-1.5404,-1.5892,-1.6159,-1.6169,-1.614,-1.5922,-1.5848,-1.5739,-1.5739,-1.5739,-1.5739,-1.5739,-1.714,-1.8304,-1.8549,-1.8363,-1.8661,-1.9889,-1.9725,-1.9961,-2.1088,-2.1327,-2.1346,-2.1194,-2.152,-2.1625,-2.1341,-2.1502,-2.1603,-2.148,-2.148,-2.1408,-2.1275,-2.1322,-2.1422,-2.1546,-2.1583,-2.1683,-2.1807,-2.1807,-2.1807,0.0,0.0,0.0,0.1876,0.0,0.0,0.0,0.0,0.0415,0.0,0.0,0.0,-0.0806,-0.096,-0.1067,0.0,0.0,0.0,0.0,0.0,0.0,0.0,0.0,0.0,0.0,0.0,0.0,0.0,0.0,0.0,-0.1086,-0.1151,-0.1217,-0.1212,-0.1272,-0.1318,-0.1305,-0.1377,-0.1406,-0.1434,-0.1434,-0.1433,-0.1522,-0.2504,-0.3358,-0.4192,-0.4937,-0.5735,-0.6494,-0.6358,-0.6412,-0.6616,-0.6741,-0.6925,-0.717,-0.7491,-0.788,-0.8193,-0.8197,-0.8376,-0.8604,-0.8608,-0.917,-0.9903,-0.9907,-1.0554,-1.1327,-1.1343,-1.1592,-1.2076,-1.2927,-1.3608,-1.4347,-1.5479,-1.5667,-1.5662,-1.5878,-1.5672,-1.5403,-1.5403,-1.5403,-1.5403,-1.5403,-1.5494,-1.582,-1.6656,-1.6763,-1.7245,-1.8519,-1.8327,-1.8241,-1.8694,-1.9106,-1.9369,-1.9359,-2.0147,-2.0741,-2.0906,-2.1099,-2.1062,-2.0639,-2.0656,-2.0397,-1.997,-2.017,-2.0467,-2.0917,-2.1071,-2.1373,-2.1807,-2.1807,-2.1807,0.0,0.0,0.3795,0.3086,0.0,0.0,0.0,0.0,0.0,0.0,0.0,0.0,0.0,0.0,0.0,0.0,0.0,0.0,0.0,0.0,0.0,0.0,0.0,0.0,0.0,0.0,0.0,0.0,-0.1116,0.0,-0.1084,-0.115,-0.1217,-0.1211,-0.1271,-0.1317,-0.1305,-0.1376,-0.1406,-0.1391,-0.1391,-0.1391,-0.1391,-0.1749,-0.2347,-0.3118,-0.3386,-0.4259,-0.5497,-0.5448,-0.5825,-0.6419,-0.6432,-0.6551,-0.6779,-0.7281,-0.745,-0.7503,-0.7781,-0.811,-0.8402,-0.8571,-0.8784,-0.9043,-0.9043,-0.9257,-0.9646,-1.0202,-1.0474,-1.0791,-1.1907,-1.2925,-1.3743,-1.4087,-1.4774,-1.5326,-1.5382,-1.5294,-1.5257,-1.5389,-1.5389,-1.5389,-1.5389,-1.5389,-1.5506,-1.579,-1.5636,-1.5973,-1.7196,-1.7049,-1.7168,-1.8102,-1.8357,-1.8447,-1.8447,-1.8829,-1.9321,-1.9803,-1.9898,-2.0017,-2.0145,-2.0125,-2.0054,-1.9883,-2.0083,-2.0436,-2.0886,-2.1014,-2.1197,-2.1352,-2.1352,-2.1507,0.5018,0.5018,0.0,0.4146,0.3988,0.0,0.2774,0.0,0.0,0.0,0.0,0.0,0.0,0.0,0.0,0.0,0.0,0.0,0.0,0.037,0.0,0.0,0.0,0.0,0.0,0.0,0.0,-0.1091,-0.1116,-0.1089,0.0,0.0,-0.1217,-0.1211,-0.126,-0.1301,-0.129,-0.1361,-0.139,-0.1419,-0.1385,-0.1391,-0.1391,-0.1391,-0.1869,-0.2716,-0.2636,-0.3368,-0.4623,-0.4594,-0.4885,-0.5434,-0.5709,-0.5879,-0.605,-0.681,-0.7082,-0.7145,-0.7511,-0.7857,-0.8108,-0.8392,-0.8476,-0.8526,-0.8592,-0.8612,-0.8684,-0.9213,-0.9374,-0.9671,-1.0739,-1.1618,-1.2328,-1.2717,-1.3371,-1.4061,-1.4439,-1.4482,-1.4657,-1.5173,-1.5305,-1.5305,-1.5389,-1.5389,-1.5389,-1.5389,-1.5206,-1.5346,-1.6157,-1.6069,-1.6218,-1.7009,-1.735,-1.7674,-1.7957,-1.8399,-1.8786,-1.9012,-1.9336,-1.949,-1.9421,-1.9437,-1.9437,-1.9437,-1.9475,-1.9813,-2.0447,-2.043,-2.0539,-2.0777,-2.0941,-2.1205]}]]